<?xml version="1.0" encoding="UTF-8"?>
<gpx version="1.1" creator="https://www.youtrack.es" xsi:schemaLocation="http://www.topografix.com/GPX/1/1 http://www.topografix.com/GPX/1/1/gpx.xsd http://www.garmin.com/xmlschemas/GpxExtensions/v3 http://www.garmin.com/xmlschemas/GpxExtensionsv3.xsd http://www.garmin.com/xmlschemas/TrackPointExtension/v1 http://www.garmin.com/xmlschemas/TrackPointExtensionv1.xsd" xmlns:gpxtpx="http://www.garmin.com/xmlschemas/TrackPointExtension/v1" xmlns:gpxx="http://www.garmin.com/xmlschemas/GpxExtensions/v3" xmlns:xsi="http://www.w3.org/2001/XMLSchema-instance">
  <metadata>
    <link href="https://www.youtrack.es">
      <text>YouTrack.es</text>
    </link>
    <time>2026-05-08T02:21:04Z</time>
  </metadata>
  <trk>
    <src>https://www.youtrack.es</src>
    <link href="https://www.youtrack.es/ruta/18926-etapa-10-y-etapa-11">
      <text>YouTrack.es</text>
    </link>
    <trkseg>
      <trkpt lat="3.548480" lon="39.048300">
        <ele>1071.014</ele>
        <time>2012-05-16T13:19:15Z</time>
      </trkpt>
      <trkpt lat="3.548390" lon="39.047880">
        <ele>1076.054</ele>
        <time>2012-05-16T13:19:35Z</time>
      </trkpt>
      <trkpt lat="3.547160" lon="39.048300">
        <ele>1123.009</ele>
        <time>2012-05-16T13:19:55Z</time>
      </trkpt>
      <trkpt lat="3.545680" lon="39.048580">
        <ele>1075.007</ele>
        <time>2012-05-16T13:20:15Z</time>
      </trkpt>
      <trkpt lat="3.543540" lon="39.048690">
        <ele>1070.093</ele>
        <time>2012-05-16T13:20:35Z</time>
      </trkpt>
      <trkpt lat="3.542890" lon="39.048780">
        <ele>1086.029</ele>
        <time>2012-05-16T13:20:55Z</time>
      </trkpt>
      <trkpt lat="3.541720" lon="39.049050">
        <ele>1094.045</ele>
        <time>2012-05-16T13:21:15Z</time>
      </trkpt>
      <trkpt lat="3.541290" lon="39.049190">
        <ele>1100.065</ele>
        <time>2012-05-16T13:21:35Z</time>
      </trkpt>
      <trkpt lat="3.537410" lon="39.050990">
        <ele>1042.050</ele>
        <time>2012-05-16T13:21:55Z</time>
      </trkpt>
      <trkpt lat="3.536270" lon="39.051350">
        <ele>1056.077</ele>
        <time>2012-05-16T13:22:15Z</time>
      </trkpt>
      <trkpt lat="3.532040" lon="39.051940">
        <ele>1012.065</ele>
        <time>2012-05-16T13:22:35Z</time>
      </trkpt>
      <trkpt lat="3.526160" lon="39.052850">
        <ele>996.043</ele>
        <time>2012-05-16T13:22:55Z</time>
      </trkpt>
      <trkpt lat="3.525600" lon="39.053070">
        <ele>988.064</ele>
        <time>2012-05-16T13:23:15Z</time>
      </trkpt>
      <trkpt lat="3.525130" lon="39.053090">
        <ele>988.010</ele>
        <time>2012-05-16T13:23:35Z</time>
      </trkpt>
      <trkpt lat="3.524770" lon="39.053020">
        <ele>992.007</ele>
        <time>2012-05-16T13:23:55Z</time>
      </trkpt>
      <trkpt lat="3.523430" lon="39.053270">
        <ele>1014.046</ele>
        <time>2012-05-16T13:24:15Z</time>
      </trkpt>
      <trkpt lat="3.522810" lon="39.053570">
        <ele>1016.062</ele>
        <time>2012-05-16T13:24:35Z</time>
      </trkpt>
      <trkpt lat="3.521080" lon="39.054640">
        <ele>1072.098</ele>
        <time>2012-05-16T13:24:55Z</time>
      </trkpt>
      <trkpt lat="3.521270" lon="39.055100">
        <ele>1059.088</ele>
        <time>2012-05-16T13:25:15Z</time>
      </trkpt>
      <trkpt lat="3.521170" lon="39.055140">
        <ele>1066.093</ele>
        <time>2012-05-16T13:25:35Z</time>
      </trkpt>
      <trkpt lat="3.521060" lon="39.055290">
        <ele>1066.040</ele>
        <time>2012-05-16T13:25:55Z</time>
      </trkpt>
      <trkpt lat="3.520660" lon="39.056250">
        <ele>1051.058</ele>
        <time>2012-05-16T13:26:15Z</time>
      </trkpt>
      <trkpt lat="3.520360" lon="39.056180">
        <ele>1041.036</ele>
        <time>2012-05-16T13:26:35Z</time>
      </trkpt>
      <trkpt lat="3.519690" lon="39.056230">
        <ele>1029.017</ele>
        <time>2012-05-16T13:26:55Z</time>
      </trkpt>
      <trkpt lat="3.519250" lon="39.056160">
        <ele>1020.018</ele>
        <time>2012-05-16T13:27:15Z</time>
      </trkpt>
      <trkpt lat="3.518420" lon="39.055740">
        <ele>1005.007</ele>
        <time>2012-05-16T13:27:35Z</time>
      </trkpt>
      <trkpt lat="3.518020" lon="39.055880">
        <ele>999.035</ele>
        <time>2012-05-16T13:27:55Z</time>
      </trkpt>
      <trkpt lat="3.517540" lon="39.056320">
        <ele>976.021</ele>
        <time>2012-05-16T13:28:15Z</time>
      </trkpt>
      <trkpt lat="3.516760" lon="39.056720">
        <ele>1006.087</ele>
        <time>2012-05-16T13:28:35Z</time>
      </trkpt>
      <trkpt lat="3.515620" lon="39.057030">
        <ele>1060.047</ele>
        <time>2012-05-16T13:28:55Z</time>
      </trkpt>
      <trkpt lat="3.515150" lon="39.057020">
        <ele>1060.012</ele>
        <time>2012-05-16T13:29:15Z</time>
      </trkpt>
      <trkpt lat="3.514660" lon="39.057090">
        <ele>1057.049</ele>
        <time>2012-05-16T13:29:35Z</time>
      </trkpt>
      <trkpt lat="3.513230" lon="39.057360">
        <ele>1055.057</ele>
        <time>2012-05-16T13:29:55Z</time>
      </trkpt>
      <trkpt lat="3.512730" lon="39.057540">
        <ele>1061.076</ele>
        <time>2012-05-16T13:30:15Z</time>
      </trkpt>
      <trkpt lat="3.509660" lon="39.057810">
        <ele>983.090</ele>
        <time>2012-05-16T13:30:35Z</time>
      </trkpt>
      <trkpt lat="3.507960" lon="39.058400">
        <ele>907.019</ele>
        <time>2012-05-16T13:30:55Z</time>
      </trkpt>
      <trkpt lat="3.507490" lon="39.058510">
        <ele>897.007</ele>
        <time>2012-05-16T13:31:15Z</time>
      </trkpt>
      <trkpt lat="3.505190" lon="39.058730">
        <ele>919.029</ele>
        <time>2012-05-16T13:31:35Z</time>
      </trkpt>
      <trkpt lat="3.504130" lon="39.059100">
        <ele>952.085</ele>
        <time>2012-05-16T13:31:55Z</time>
      </trkpt>
      <trkpt lat="3.503710" lon="39.059480">
        <ele>961.051</ele>
        <time>2012-05-16T13:32:15Z</time>
      </trkpt>
      <trkpt lat="3.502710" lon="39.059100">
        <ele>981.071</ele>
        <time>2012-05-16T13:32:35Z</time>
      </trkpt>
      <trkpt lat="3.502550" lon="39.058980">
        <ele>991.066</ele>
        <time>2012-05-16T13:32:55Z</time>
      </trkpt>
      <trkpt lat="3.501670" lon="39.058680">
        <ele>997.063</ele>
        <time>2012-05-16T13:33:15Z</time>
      </trkpt>
      <trkpt lat="3.501650" lon="39.058050">
        <ele>1008.071</ele>
        <time>2012-05-16T13:33:35Z</time>
      </trkpt>
      <trkpt lat="3.501710" lon="39.057430">
        <ele>1024.013</ele>
        <time>2012-05-16T13:33:55Z</time>
      </trkpt>
      <trkpt lat="3.501820" lon="39.057180">
        <ele>1033.043</ele>
        <time>2012-05-16T13:34:15Z</time>
      </trkpt>
      <trkpt lat="3.502260" lon="39.056540">
        <ele>1034.007</ele>
        <time>2012-05-16T13:34:35Z</time>
      </trkpt>
      <trkpt lat="3.502560" lon="39.056280">
        <ele>1032.007</ele>
        <time>2012-05-16T13:34:55Z</time>
      </trkpt>
      <trkpt lat="3.502580" lon="39.056130">
        <ele>1027.033</ele>
        <time>2012-05-16T13:35:15Z</time>
      </trkpt>
      <trkpt lat="3.502500" lon="39.055550">
        <ele>1012.059</ele>
        <time>2012-05-16T13:35:35Z</time>
      </trkpt>
      <trkpt lat="3.501100" lon="39.055530">
        <ele>1000.025</ele>
        <time>2012-05-16T13:35:55Z</time>
      </trkpt>
      <trkpt lat="3.500400" lon="39.055760">
        <ele>965.055</ele>
        <time>2012-05-16T13:36:15Z</time>
      </trkpt>
      <trkpt lat="3.494870" lon="39.058670">
        <ele>908.090</ele>
        <time>2012-05-16T13:36:35Z</time>
      </trkpt>
      <trkpt lat="3.494160" lon="39.058950">
        <ele>892.067</ele>
        <time>2012-05-16T13:36:55Z</time>
      </trkpt>
      <trkpt lat="3.493110" lon="39.059020">
        <ele>892.035</ele>
        <time>2012-05-16T13:37:15Z</time>
      </trkpt>
      <trkpt lat="3.492530" lon="39.059160">
        <ele>908.086</ele>
        <time>2012-05-16T13:37:35Z</time>
      </trkpt>
      <trkpt lat="3.491930" lon="39.059430">
        <ele>919.060</ele>
        <time>2012-05-16T13:37:55Z</time>
      </trkpt>
      <trkpt lat="3.488500" lon="39.061830">
        <ele>876.026</ele>
        <time>2012-05-16T13:38:15Z</time>
      </trkpt>
      <trkpt lat="3.487760" lon="39.062400">
        <ele>866.007</ele>
        <time>2012-05-16T13:38:35Z</time>
      </trkpt>
      <trkpt lat="3.487130" lon="39.062780">
        <ele>854.010</ele>
        <time>2012-05-16T13:38:55Z</time>
      </trkpt>
      <trkpt lat="3.486600" lon="39.062860">
        <ele>845.056</ele>
        <time>2012-05-16T13:39:15Z</time>
      </trkpt>
      <trkpt lat="3.485070" lon="39.062790">
        <ele>870.032</ele>
        <time>2012-05-16T13:39:35Z</time>
      </trkpt>
      <trkpt lat="3.484690" lon="39.062900">
        <ele>878.022</ele>
        <time>2012-05-16T13:39:55Z</time>
      </trkpt>
      <trkpt lat="3.484050" lon="39.063250">
        <ele>878.017</ele>
        <time>2012-05-16T13:40:15Z</time>
      </trkpt>
      <trkpt lat="3.483670" lon="39.063840">
        <ele>876.084</ele>
        <time>2012-05-16T13:40:35Z</time>
      </trkpt>
      <trkpt lat="3.483370" lon="39.064590">
        <ele>875.052</ele>
        <time>2012-05-16T13:40:55Z</time>
      </trkpt>
      <trkpt lat="3.482980" lon="39.065900">
        <ele>862.072</ele>
        <time>2012-05-16T13:41:15Z</time>
      </trkpt>
      <trkpt lat="3.482680" lon="39.066450">
        <ele>865.013</ele>
        <time>2012-05-16T13:41:35Z</time>
      </trkpt>
      <trkpt lat="3.482340" lon="39.066880">
        <ele>847.014</ele>
        <time>2012-05-16T13:41:55Z</time>
      </trkpt>
      <trkpt lat="3.482030" lon="39.067150">
        <ele>836.007</ele>
        <time>2012-05-16T13:42:15Z</time>
      </trkpt>
      <trkpt lat="3.481480" lon="39.067470">
        <ele>823.079</ele>
        <time>2012-05-16T13:42:35Z</time>
      </trkpt>
      <trkpt lat="3.480670" lon="39.067850">
        <ele>827.055</ele>
        <time>2012-05-16T13:42:55Z</time>
      </trkpt>
      <trkpt lat="3.480360" lon="39.068120">
        <ele>844.051</ele>
        <time>2012-05-16T13:43:15Z</time>
      </trkpt>
      <trkpt lat="3.480150" lon="39.068480">
        <ele>866.011</ele>
        <time>2012-05-16T13:43:35Z</time>
      </trkpt>
      <trkpt lat="3.480000" lon="39.068910">
        <ele>885.026</ele>
        <time>2012-05-16T13:43:55Z</time>
      </trkpt>
      <trkpt lat="3.479890" lon="39.070010">
        <ele>886.083</ele>
        <time>2012-05-16T13:44:15Z</time>
      </trkpt>
      <trkpt lat="3.479680" lon="39.071060">
        <ele>866.031</ele>
        <time>2012-05-16T13:44:35Z</time>
      </trkpt>
      <trkpt lat="3.479030" lon="39.072640">
        <ele>875.021</ele>
        <time>2012-05-16T13:44:55Z</time>
      </trkpt>
      <trkpt lat="3.478930" lon="39.073170">
        <ele>885.041</ele>
        <time>2012-05-16T13:45:15Z</time>
      </trkpt>
      <trkpt lat="3.478970" lon="39.073660">
        <ele>895.005</ele>
        <time>2012-05-16T13:45:35Z</time>
      </trkpt>
      <trkpt lat="3.479050" lon="39.073910">
        <ele>903.007</ele>
        <time>2012-05-16T13:45:55Z</time>
      </trkpt>
      <trkpt lat="3.479750" lon="39.075010">
        <ele>917.054</ele>
        <time>2012-05-16T13:46:15Z</time>
      </trkpt>
      <trkpt lat="3.480690" lon="39.076230">
        <ele>906.060</ele>
        <time>2012-05-16T13:46:35Z</time>
      </trkpt>
      <trkpt lat="3.481990" lon="39.077620">
        <ele>883.016</ele>
        <time>2012-05-16T13:46:55Z</time>
      </trkpt>
      <trkpt lat="3.482130" lon="39.077990">
        <ele>847.026</ele>
        <time>2012-05-16T13:47:15Z</time>
      </trkpt>
      <trkpt lat="3.482130" lon="39.078280">
        <ele>834.081</ele>
        <time>2012-05-16T13:47:35Z</time>
      </trkpt>
      <trkpt lat="3.481710" lon="39.079040">
        <ele>799.078</ele>
        <time>2012-05-16T13:47:55Z</time>
      </trkpt>
      <trkpt lat="3.481630" lon="39.079310">
        <ele>779.056</ele>
        <time>2012-05-16T13:48:15Z</time>
      </trkpt>
      <trkpt lat="3.481620" lon="39.080190">
        <ele>736.048</ele>
        <time>2012-05-16T13:48:35Z</time>
      </trkpt>
      <trkpt lat="3.481480" lon="39.080670">
        <ele>754.061</ele>
        <time>2012-05-16T13:48:55Z</time>
      </trkpt>
      <trkpt lat="3.481170" lon="39.081300">
        <ele>770.017</ele>
        <time>2012-05-16T13:49:15Z</time>
      </trkpt>
      <trkpt lat="3.481180" lon="39.081700">
        <ele>763.007</ele>
        <time>2012-05-16T13:49:35Z</time>
      </trkpt>
      <trkpt lat="3.481320" lon="39.081940">
        <ele>744.086</ele>
        <time>2012-05-16T13:49:55Z</time>
      </trkpt>
      <trkpt lat="3.482350" lon="39.082210">
        <ele>748.092</ele>
        <time>2012-05-16T13:50:15Z</time>
      </trkpt>
      <trkpt lat="3.482970" lon="39.082520">
        <ele>784.048</ele>
        <time>2012-05-16T13:50:35Z</time>
      </trkpt>
      <trkpt lat="3.483330" lon="39.083030">
        <ele>803.048</ele>
        <time>2012-05-16T13:50:55Z</time>
      </trkpt>
      <trkpt lat="3.483410" lon="39.083300">
        <ele>806.033</ele>
        <time>2012-05-16T13:51:15Z</time>
      </trkpt>
      <trkpt lat="3.483360" lon="39.083780">
        <ele>802.090</ele>
        <time>2012-05-16T13:51:35Z</time>
      </trkpt>
      <trkpt lat="3.483120" lon="39.084210">
        <ele>786.028</ele>
        <time>2012-05-16T13:51:55Z</time>
      </trkpt>
      <trkpt lat="3.481900" lon="39.085730">
        <ele>753.031</ele>
        <time>2012-05-16T13:52:15Z</time>
      </trkpt>
      <trkpt lat="3.480680" lon="39.087530">
        <ele>742.061</ele>
        <time>2012-05-16T13:52:35Z</time>
      </trkpt>
      <trkpt lat="3.477790" lon="39.091010">
        <ele>743.007</ele>
        <time>2012-05-16T13:52:55Z</time>
      </trkpt>
      <trkpt lat="3.475370" lon="39.094080">
        <ele>726.007</ele>
        <time>2012-05-16T13:53:15Z</time>
      </trkpt>
      <trkpt lat="3.474800" lon="39.094600">
        <ele>709.095</ele>
        <time>2012-05-16T13:53:35Z</time>
      </trkpt>
      <trkpt lat="3.474260" lon="39.094890">
        <ele>709.081</ele>
        <time>2012-05-16T13:53:55Z</time>
      </trkpt>
      <trkpt lat="3.473630" lon="39.095100">
        <ele>725.027</ele>
        <time>2012-05-16T13:54:15Z</time>
      </trkpt>
      <trkpt lat="3.472870" lon="39.095180">
        <ele>734.037</ele>
        <time>2012-05-16T13:54:35Z</time>
      </trkpt>
      <trkpt lat="3.471810" lon="39.094980">
        <ele>755.062</ele>
        <time>2012-05-16T13:54:55Z</time>
      </trkpt>
      <trkpt lat="3.469000" lon="39.094260">
        <ele>751.099</ele>
        <time>2012-05-16T13:55:15Z</time>
      </trkpt>
      <trkpt lat="3.465540" lon="39.093450">
        <ele>753.067</ele>
        <time>2012-05-16T13:55:35Z</time>
      </trkpt>
      <trkpt lat="3.442910" lon="39.087810">
        <ele>773.052</ele>
        <time>2012-05-16T13:55:55Z</time>
      </trkpt>
      <trkpt lat="3.395720" lon="39.076260">
        <ele>738.053</ele>
        <time>2012-05-16T13:56:15Z</time>
      </trkpt>
      <trkpt lat="3.392770" lon="39.075600">
        <ele>729.008</ele>
        <time>2012-05-16T13:56:35Z</time>
      </trkpt>
      <trkpt lat="3.389650" lon="39.075080">
        <ele>717.007</ele>
        <time>2012-05-16T13:56:55Z</time>
      </trkpt>
      <trkpt lat="3.385720" lon="39.074590">
        <ele>716.017</ele>
        <time>2012-05-16T13:57:15Z</time>
      </trkpt>
      <trkpt lat="3.372150" lon="39.073090">
        <ele>706.073</ele>
        <time>2012-05-16T13:57:35Z</time>
      </trkpt>
      <trkpt lat="3.363020" lon="39.072130">
        <ele>678.089</ele>
        <time>2012-05-16T13:57:55Z</time>
      </trkpt>
      <trkpt lat="3.361330" lon="39.072000">
        <ele>675.069</ele>
        <time>2012-05-16T13:58:15Z</time>
      </trkpt>
      <trkpt lat="3.360060" lon="39.072030">
        <ele>673.044</ele>
        <time>2012-05-16T13:58:35Z</time>
      </trkpt>
      <trkpt lat="3.358690" lon="39.072180">
        <ele>671.021</ele>
        <time>2012-05-16T13:58:55Z</time>
      </trkpt>
      <trkpt lat="3.357920" lon="39.072320">
        <ele>673.059</ele>
        <time>2012-05-16T13:59:15Z</time>
      </trkpt>
      <trkpt lat="3.354140" lon="39.073240">
        <ele>666.063</ele>
        <time>2012-05-16T13:59:35Z</time>
      </trkpt>
      <trkpt lat="3.353690" lon="39.073300">
        <ele>667.044</ele>
        <time>2012-05-16T13:59:55Z</time>
      </trkpt>
      <trkpt lat="3.352490" lon="39.073270">
        <ele>664.018</ele>
        <time>2012-05-16T14:00:15Z</time>
      </trkpt>
      <trkpt lat="3.351920" lon="39.073140">
        <ele>688.007</ele>
        <time>2012-05-16T14:00:35Z</time>
      </trkpt>
      <trkpt lat="3.351020" lon="39.072800">
        <ele>741.058</ele>
        <time>2012-05-16T14:00:55Z</time>
      </trkpt>
      <trkpt lat="3.338560" lon="39.067100">
        <ele>754.044</ele>
        <time>2012-05-16T14:01:15Z</time>
      </trkpt>
      <trkpt lat="3.337930" lon="39.066650">
        <ele>733.090</ele>
        <time>2012-05-16T14:01:35Z</time>
      </trkpt>
      <trkpt lat="3.337420" lon="39.065960">
        <ele>693.060</ele>
        <time>2012-05-16T14:01:55Z</time>
      </trkpt>
      <trkpt lat="3.337080" lon="39.065180">
        <ele>673.045</ele>
        <time>2012-05-16T14:02:15Z</time>
      </trkpt>
      <trkpt lat="3.336870" lon="39.064040">
        <ele>658.052</ele>
        <time>2012-05-16T14:02:35Z</time>
      </trkpt>
      <trkpt lat="3.336930" lon="39.063020">
        <ele>646.080</ele>
        <time>2012-05-16T14:02:55Z</time>
      </trkpt>
      <trkpt lat="3.337270" lon="39.062020">
        <ele>637.071</ele>
        <time>2012-05-16T14:03:15Z</time>
      </trkpt>
      <trkpt lat="3.337560" lon="39.061510">
        <ele>629.041</ele>
        <time>2012-05-16T14:03:35Z</time>
      </trkpt>
      <trkpt lat="3.337820" lon="39.061170">
        <ele>626.015</ele>
        <time>2012-05-16T14:03:55Z</time>
      </trkpt>
      <trkpt lat="3.338890" lon="39.060100">
        <ele>637.007</ele>
        <time>2012-05-16T14:04:15Z</time>
      </trkpt>
      <trkpt lat="3.374080" lon="39.027020">
        <ele>637.039</ele>
        <time>2012-05-16T14:04:35Z</time>
      </trkpt>
      <trkpt lat="3.376150" lon="39.025230">
        <ele>636.095</ele>
        <time>2012-05-16T14:04:55Z</time>
      </trkpt>
      <trkpt lat="3.376700" lon="39.024820">
        <ele>638.071</ele>
        <time>2012-05-16T14:05:15Z</time>
      </trkpt>
      <trkpt lat="3.378020" lon="39.023980">
        <ele>638.061</ele>
        <time>2012-05-16T14:05:35Z</time>
      </trkpt>
      <trkpt lat="3.387220" lon="39.018570">
        <ele>633.096</ele>
        <time>2012-05-16T14:05:55Z</time>
      </trkpt>
      <trkpt lat="3.388230" lon="39.017870">
        <ele>632.093</ele>
        <time>2012-05-16T14:06:15Z</time>
      </trkpt>
      <trkpt lat="3.400390" lon="39.008700">
        <ele>631.011</ele>
        <time>2012-05-16T14:06:35Z</time>
      </trkpt>
      <trkpt lat="3.401020" lon="39.008280">
        <ele>630.027</ele>
        <time>2012-05-16T14:06:55Z</time>
      </trkpt>
      <trkpt lat="3.402560" lon="39.007420">
        <ele>630.068</ele>
        <time>2012-05-16T14:07:15Z</time>
      </trkpt>
      <trkpt lat="3.403460" lon="39.007010">
        <ele>629.014</ele>
        <time>2012-05-16T14:07:35Z</time>
      </trkpt>
      <trkpt lat="3.407740" lon="39.005370">
        <ele>635.007</ele>
        <time>2012-05-16T14:07:55Z</time>
      </trkpt>
      <trkpt lat="3.409600" lon="39.004570">
        <ele>637.054</ele>
        <time>2012-05-16T14:08:15Z</time>
      </trkpt>
      <trkpt lat="3.417740" lon="38.999490">
        <ele>598.070</ele>
        <time>2012-05-16T14:08:35Z</time>
      </trkpt>
      <trkpt lat="3.423240" lon="38.996150">
        <ele>624.076</ele>
        <time>2012-05-16T14:08:55Z</time>
      </trkpt>
      <trkpt lat="3.423870" lon="38.995680">
        <ele>622.096</ele>
        <time>2012-05-16T14:09:15Z</time>
      </trkpt>
      <trkpt lat="3.425300" lon="38.994440">
        <ele>628.031</ele>
        <time>2012-05-16T14:09:35Z</time>
      </trkpt>
      <trkpt lat="3.427000" lon="38.992670">
        <ele>634.068</ele>
        <time>2012-05-16T14:09:55Z</time>
      </trkpt>
      <trkpt lat="3.427740" lon="38.991780">
        <ele>638.016</ele>
        <time>2012-05-16T14:10:15Z</time>
      </trkpt>
      <trkpt lat="3.428650" lon="38.990440">
        <ele>643.041</ele>
        <time>2012-05-16T14:10:35Z</time>
      </trkpt>
      <trkpt lat="3.429660" lon="38.988710">
        <ele>642.081</ele>
        <time>2012-05-16T14:10:55Z</time>
      </trkpt>
      <trkpt lat="3.430630" lon="38.986790">
        <ele>643.009</ele>
        <time>2012-05-16T14:11:15Z</time>
      </trkpt>
      <trkpt lat="3.454080" lon="38.937100">
        <ele>643.007</ele>
        <time>2012-05-16T14:11:35Z</time>
      </trkpt>
      <trkpt lat="3.458030" lon="38.928930">
        <ele>638.016</ele>
        <time>2012-05-16T14:11:55Z</time>
      </trkpt>
      <trkpt lat="3.465620" lon="38.912880">
        <ele>634.062</ele>
        <time>2012-05-16T14:12:15Z</time>
      </trkpt>
      <trkpt lat="3.466060" lon="38.911840">
        <ele>635.028</ele>
        <time>2012-05-16T14:12:35Z</time>
      </trkpt>
      <trkpt lat="3.466340" lon="38.910900">
        <ele>638.058</ele>
        <time>2012-05-16T14:12:55Z</time>
      </trkpt>
      <trkpt lat="3.467560" lon="38.904920">
        <ele>640.083</ele>
        <time>2012-05-16T14:13:15Z</time>
      </trkpt>
      <trkpt lat="3.468180" lon="38.902270">
        <ele>641.010</ele>
        <time>2012-05-16T14:13:35Z</time>
      </trkpt>
      <trkpt lat="3.472870" lon="38.879490">
        <ele>645.018</ele>
        <time>2012-05-16T14:13:55Z</time>
      </trkpt>
      <trkpt lat="3.473970" lon="38.872360">
        <ele>642.079</ele>
        <time>2012-05-16T14:14:15Z</time>
      </trkpt>
      <trkpt lat="3.474970" lon="38.865280">
        <ele>642.005</ele>
        <time>2012-05-16T14:14:35Z</time>
      </trkpt>
      <trkpt lat="3.477350" lon="38.849460">
        <ele>633.025</ele>
        <time>2012-05-16T14:14:55Z</time>
      </trkpt>
      <trkpt lat="3.478760" lon="38.839710">
        <ele>626.007</ele>
        <time>2012-05-16T14:15:15Z</time>
      </trkpt>
      <trkpt lat="3.479010" lon="38.838070">
        <ele>628.089</ele>
        <time>2012-05-16T14:15:35Z</time>
      </trkpt>
      <trkpt lat="3.479360" lon="38.836440">
        <ele>625.025</ele>
        <time>2012-05-16T14:15:55Z</time>
      </trkpt>
      <trkpt lat="3.484000" lon="38.821700">
        <ele>625.051</ele>
        <time>2012-05-16T14:16:15Z</time>
      </trkpt>
      <trkpt lat="3.488920" lon="38.806370">
        <ele>644.081</ele>
        <time>2012-05-16T14:16:35Z</time>
      </trkpt>
      <trkpt lat="3.501750" lon="38.765360">
        <ele>629.096</ele>
        <time>2012-05-16T14:16:55Z</time>
      </trkpt>
      <trkpt lat="3.502370" lon="38.763540">
        <ele>640.013</ele>
        <time>2012-05-16T14:17:15Z</time>
      </trkpt>
      <trkpt lat="3.505260" lon="38.754090">
        <ele>639.061</ele>
        <time>2012-05-16T14:17:35Z</time>
      </trkpt>
      <trkpt lat="3.505920" lon="38.749650">
        <ele>639.035</ele>
        <time>2012-05-16T14:17:55Z</time>
      </trkpt>
      <trkpt lat="3.507780" lon="38.737980">
        <ele>648.086</ele>
        <time>2012-05-16T14:18:15Z</time>
      </trkpt>
      <trkpt lat="3.507880" lon="38.736440">
        <ele>652.014</ele>
        <time>2012-05-16T14:18:35Z</time>
      </trkpt>
      <trkpt lat="3.507840" lon="38.735480">
        <ele>656.007</ele>
        <time>2012-05-16T14:18:55Z</time>
      </trkpt>
      <trkpt lat="3.505650" lon="38.721340">
        <ele>663.055</ele>
        <time>2012-05-16T14:19:15Z</time>
      </trkpt>
      <trkpt lat="3.503460" lon="38.708160">
        <ele>664.071</ele>
        <time>2012-05-16T14:19:35Z</time>
      </trkpt>
      <trkpt lat="3.503250" lon="38.706810">
        <ele>663.027</ele>
        <time>2012-05-16T14:19:55Z</time>
      </trkpt>
      <trkpt lat="3.503160" lon="38.705620">
        <ele>663.077</ele>
        <time>2012-05-16T14:20:15Z</time>
      </trkpt>
      <trkpt lat="3.504970" lon="38.662630">
        <ele>689.072</ele>
        <time>2012-05-16T14:20:35Z</time>
      </trkpt>
      <trkpt lat="3.505390" lon="38.659340">
        <ele>682.099</ele>
        <time>2012-05-16T14:20:55Z</time>
      </trkpt>
      <trkpt lat="3.510500" lon="38.625290">
        <ele>671.027</ele>
        <time>2012-05-16T14:21:15Z</time>
      </trkpt>
      <trkpt lat="3.512860" lon="38.603940">
        <ele>675.083</ele>
        <time>2012-05-16T14:21:35Z</time>
      </trkpt>
      <trkpt lat="3.513730" lon="38.596810">
        <ele>673.025</ele>
        <time>2012-05-16T14:21:55Z</time>
      </trkpt>
      <trkpt lat="3.515560" lon="38.580500">
        <ele>676.017</ele>
        <time>2012-05-16T14:22:15Z</time>
      </trkpt>
      <trkpt lat="3.517450" lon="38.563300">
        <ele>674.007</ele>
        <time>2012-05-16T14:22:35Z</time>
      </trkpt>
      <trkpt lat="3.517470" lon="38.562500">
        <ele>681.030</ele>
        <time>2012-05-16T14:22:55Z</time>
      </trkpt>
      <trkpt lat="3.517350" lon="38.561730">
        <ele>692.026</ele>
        <time>2012-05-16T14:23:15Z</time>
      </trkpt>
      <trkpt lat="3.517000" lon="38.560840">
        <ele>696.032</ele>
        <time>2012-05-16T14:23:35Z</time>
      </trkpt>
      <trkpt lat="3.516250" lon="38.559520">
        <ele>713.032</ele>
        <time>2012-05-16T14:23:55Z</time>
      </trkpt>
      <trkpt lat="3.513940" lon="38.555780">
        <ele>707.037</ele>
        <time>2012-05-16T14:24:15Z</time>
      </trkpt>
      <trkpt lat="3.513690" lon="38.555220">
        <ele>711.034</ele>
        <time>2012-05-16T14:24:35Z</time>
      </trkpt>
      <trkpt lat="3.513520" lon="38.554650">
        <ele>698.032</ele>
        <time>2012-05-16T14:24:55Z</time>
      </trkpt>
      <trkpt lat="3.513400" lon="38.553980">
        <ele>671.099</ele>
        <time>2012-05-16T14:25:15Z</time>
      </trkpt>
      <trkpt lat="3.513370" lon="38.553050">
        <ele>663.007</ele>
        <time>2012-05-16T14:25:35Z</time>
      </trkpt>
      <trkpt lat="3.513460" lon="38.552260">
        <ele>666.027</ele>
        <time>2012-05-16T14:25:55Z</time>
      </trkpt>
      <trkpt lat="3.514560" lon="38.549380">
        <ele>653.007</ele>
        <time>2012-05-16T14:26:15Z</time>
      </trkpt>
      <trkpt lat="3.514610" lon="38.548030">
        <ele>666.091</ele>
        <time>2012-05-16T14:26:35Z</time>
      </trkpt>
      <trkpt lat="3.514560" lon="38.547530">
        <ele>672.077</ele>
        <time>2012-05-16T14:26:55Z</time>
      </trkpt>
      <trkpt lat="3.514430" lon="38.546960">
        <ele>677.043</ele>
        <time>2012-05-16T14:27:15Z</time>
      </trkpt>
      <trkpt lat="3.514190" lon="38.546220">
        <ele>707.033</ele>
        <time>2012-05-16T14:27:35Z</time>
      </trkpt>
      <trkpt lat="3.513730" lon="38.545410">
        <ele>748.068</ele>
        <time>2012-05-16T14:27:55Z</time>
      </trkpt>
      <trkpt lat="3.513390" lon="38.544920">
        <ele>757.015</ele>
        <time>2012-05-16T14:28:15Z</time>
      </trkpt>
      <trkpt lat="3.512900" lon="38.544380">
        <ele>769.073</ele>
        <time>2012-05-16T14:28:35Z</time>
      </trkpt>
      <trkpt lat="3.512480" lon="38.544030">
        <ele>767.036</ele>
        <time>2012-05-16T14:28:55Z</time>
      </trkpt>
      <trkpt lat="3.501710" lon="38.538280">
        <ele>702.017</ele>
        <time>2012-05-16T14:29:15Z</time>
      </trkpt>
      <trkpt lat="3.500690" lon="38.537580">
        <ele>697.018</ele>
        <time>2012-05-16T14:29:35Z</time>
      </trkpt>
      <trkpt lat="3.495790" lon="38.532220">
        <ele>660.007</ele>
        <time>2012-05-16T14:29:55Z</time>
      </trkpt>
      <trkpt lat="3.495120" lon="38.531630">
        <ele>691.055</ele>
        <time>2012-05-16T14:30:15Z</time>
      </trkpt>
      <trkpt lat="3.494590" lon="38.531260">
        <ele>711.031</ele>
        <time>2012-05-16T14:30:35Z</time>
      </trkpt>
      <trkpt lat="3.493900" lon="38.530950">
        <ele>688.067</ele>
        <time>2012-05-16T14:30:55Z</time>
      </trkpt>
      <trkpt lat="3.485110" lon="38.527770">
        <ele>685.017</ele>
        <time>2012-05-16T14:31:15Z</time>
      </trkpt>
      <trkpt lat="3.484220" lon="38.527570">
        <ele>642.092</ele>
        <time>2012-05-16T14:31:35Z</time>
      </trkpt>
      <trkpt lat="3.477150" lon="38.526830">
        <ele>614.069</ele>
        <time>2012-05-16T14:31:55Z</time>
      </trkpt>
      <trkpt lat="3.475220" lon="38.526490">
        <ele>643.037</ele>
        <time>2012-05-16T14:32:15Z</time>
      </trkpt>
      <trkpt lat="3.474620" lon="38.526290">
        <ele>652.094</ele>
        <time>2012-05-16T14:32:35Z</time>
      </trkpt>
      <trkpt lat="3.473940" lon="38.525980">
        <ele>703.057</ele>
        <time>2012-05-16T14:32:55Z</time>
      </trkpt>
      <trkpt lat="3.462120" lon="38.518620">
        <ele>726.022</ele>
        <time>2012-05-16T14:33:15Z</time>
      </trkpt>
      <trkpt lat="3.459670" lon="38.517240">
        <ele>723.007</ele>
        <time>2012-05-16T14:33:35Z</time>
      </trkpt>
      <trkpt lat="3.458950" lon="38.516900">
        <ele>699.071</ele>
        <time>2012-05-16T14:33:55Z</time>
      </trkpt>
      <trkpt lat="3.458480" lon="38.516760">
        <ele>675.097</ele>
        <time>2012-05-16T14:34:15Z</time>
      </trkpt>
      <trkpt lat="3.457230" lon="38.516590">
        <ele>645.053</ele>
        <time>2012-05-16T14:34:35Z</time>
      </trkpt>
      <trkpt lat="3.455710" lon="38.516550">
        <ele>653.073</ele>
        <time>2012-05-16T14:34:55Z</time>
      </trkpt>
      <trkpt lat="3.453180" lon="38.516590">
        <ele>620.038</ele>
        <time>2012-05-16T14:35:15Z</time>
      </trkpt>
      <trkpt lat="3.452300" lon="38.516530">
        <ele>651.025</ele>
        <time>2012-05-16T14:35:35Z</time>
      </trkpt>
      <trkpt lat="3.451780" lon="38.516440">
        <ele>669.073</ele>
        <time>2012-05-16T14:35:55Z</time>
      </trkpt>
      <trkpt lat="3.451180" lon="38.516240">
        <ele>675.049</ele>
        <time>2012-05-16T14:36:15Z</time>
      </trkpt>
      <trkpt lat="3.438830" lon="38.509670">
        <ele>589.002</ele>
        <time>2012-05-16T14:36:35Z</time>
      </trkpt>
      <trkpt lat="3.437490" lon="38.508850">
        <ele>646.022</ele>
        <time>2012-05-16T14:36:55Z</time>
      </trkpt>
      <trkpt lat="3.434540" lon="38.506790">
        <ele>674.007</ele>
        <time>2012-05-16T14:37:15Z</time>
      </trkpt>
      <trkpt lat="3.432090" lon="38.505000">
        <ele>693.096</ele>
        <time>2012-05-16T14:37:35Z</time>
      </trkpt>
      <trkpt lat="3.431280" lon="38.504250">
        <ele>693.032</ele>
        <time>2012-05-16T14:37:55Z</time>
      </trkpt>
      <trkpt lat="3.430480" lon="38.503240">
        <ele>680.078</ele>
        <time>2012-05-16T14:38:15Z</time>
      </trkpt>
      <trkpt lat="3.429770" lon="38.502190">
        <ele>681.028</ele>
        <time>2012-05-16T14:38:35Z</time>
      </trkpt>
      <trkpt lat="3.425540" lon="38.496320">
        <ele>720.043</ele>
        <time>2012-05-16T14:38:55Z</time>
      </trkpt>
      <trkpt lat="3.417030" lon="38.484870">
        <ele>714.070</ele>
        <time>2012-05-16T14:39:15Z</time>
      </trkpt>
      <trkpt lat="3.416620" lon="38.484400">
        <ele>712.038</ele>
        <time>2012-05-16T14:39:35Z</time>
      </trkpt>
      <trkpt lat="3.415880" lon="38.483700">
        <ele>717.072</ele>
        <time>2012-05-16T14:39:55Z</time>
      </trkpt>
      <trkpt lat="3.411810" lon="38.479970">
        <ele>716.013</ele>
        <time>2012-05-16T14:40:15Z</time>
      </trkpt>
      <trkpt lat="3.410550" lon="38.478740">
        <ele>709.014</ele>
        <time>2012-05-16T14:40:35Z</time>
      </trkpt>
      <trkpt lat="3.409900" lon="38.478020">
        <ele>693.007</ele>
        <time>2012-05-16T14:40:55Z</time>
      </trkpt>
      <trkpt lat="3.409190" lon="38.476950">
        <ele>671.039</ele>
        <time>2012-05-16T14:41:15Z</time>
      </trkpt>
      <trkpt lat="3.407580" lon="38.473440">
        <ele>664.045</ele>
        <time>2012-05-16T14:41:35Z</time>
      </trkpt>
      <trkpt lat="3.407020" lon="38.472560">
        <ele>664.061</ele>
        <time>2012-05-16T14:41:55Z</time>
      </trkpt>
      <trkpt lat="3.406230" lon="38.471730">
        <ele>648.071</ele>
        <time>2012-05-16T14:42:15Z</time>
      </trkpt>
      <trkpt lat="3.405040" lon="38.470970">
        <ele>618.026</ele>
        <time>2012-05-16T14:42:35Z</time>
      </trkpt>
      <trkpt lat="3.404570" lon="38.470780">
        <ele>612.053</ele>
        <time>2012-05-16T14:42:55Z</time>
      </trkpt>
      <trkpt lat="3.403480" lon="38.470520">
        <ele>607.071</ele>
        <time>2012-05-16T14:43:15Z</time>
      </trkpt>
      <trkpt lat="3.402880" lon="38.470460">
        <ele>611.085</ele>
        <time>2012-05-16T14:43:35Z</time>
      </trkpt>
      <trkpt lat="3.401740" lon="38.470560">
        <ele>602.089</ele>
        <time>2012-05-16T14:43:55Z</time>
      </trkpt>
      <trkpt lat="3.400900" lon="38.470780">
        <ele>590.017</ele>
        <time>2012-05-16T14:44:15Z</time>
      </trkpt>
      <trkpt lat="3.398630" lon="38.471500">
        <ele>618.007</ele>
        <time>2012-05-16T14:44:35Z</time>
      </trkpt>
      <trkpt lat="3.394460" lon="38.472960">
        <ele>607.090</ele>
        <time>2012-05-16T14:44:55Z</time>
      </trkpt>
      <trkpt lat="3.393940" lon="38.473120">
        <ele>621.056</ele>
        <time>2012-05-16T14:45:15Z</time>
      </trkpt>
      <trkpt lat="3.393170" lon="38.473250">
        <ele>683.072</ele>
        <time>2012-05-16T14:45:35Z</time>
      </trkpt>
      <trkpt lat="3.391960" lon="38.473160">
        <ele>754.062</ele>
        <time>2012-05-16T14:45:55Z</time>
      </trkpt>
      <trkpt lat="3.389740" lon="38.472530">
        <ele>699.067</ele>
        <time>2012-05-16T14:46:15Z</time>
      </trkpt>
      <trkpt lat="3.388370" lon="38.472220">
        <ele>640.074</ele>
        <time>2012-05-16T14:46:35Z</time>
      </trkpt>
      <trkpt lat="3.385050" lon="38.472030">
        <ele>609.042</ele>
        <time>2012-05-16T14:46:55Z</time>
      </trkpt>
      <trkpt lat="3.380810" lon="38.471890">
        <ele>608.066</ele>
        <time>2012-05-16T14:47:15Z</time>
      </trkpt>
      <trkpt lat="3.380260" lon="38.471810">
        <ele>608.029</ele>
        <time>2012-05-16T14:47:35Z</time>
      </trkpt>
      <trkpt lat="3.379440" lon="38.471620">
        <ele>605.021</ele>
        <time>2012-05-16T14:47:55Z</time>
      </trkpt>
      <trkpt lat="3.379020" lon="38.471440">
        <ele>605.007</ele>
        <time>2012-05-16T14:48:15Z</time>
      </trkpt>
      <trkpt lat="3.377960" lon="38.470830">
        <ele>652.038</ele>
        <time>2012-05-16T14:48:35Z</time>
      </trkpt>
      <trkpt lat="3.372060" lon="38.466850">
        <ele>727.064</ele>
        <time>2012-05-16T14:48:55Z</time>
      </trkpt>
      <trkpt lat="3.370180" lon="38.465640">
        <ele>648.040</ele>
        <time>2012-05-16T14:49:15Z</time>
      </trkpt>
      <trkpt lat="3.369480" lon="38.465270">
        <ele>661.010</ele>
        <time>2012-05-16T14:49:35Z</time>
      </trkpt>
      <trkpt lat="3.368940" lon="38.465060">
        <ele>648.045</ele>
        <time>2012-05-16T14:49:55Z</time>
      </trkpt>
      <trkpt lat="3.367920" lon="38.464800">
        <ele>622.042</ele>
        <time>2012-05-16T14:50:15Z</time>
      </trkpt>
      <trkpt lat="3.367570" lon="38.464770">
        <ele>594.020</ele>
        <time>2012-05-16T14:50:35Z</time>
      </trkpt>
      <trkpt lat="3.367090" lon="38.464770">
        <ele>583.011</ele>
        <time>2012-05-16T14:50:55Z</time>
      </trkpt>
      <trkpt lat="3.365560" lon="38.465030">
        <ele>624.021</ele>
        <time>2012-05-16T14:51:15Z</time>
      </trkpt>
      <trkpt lat="3.348860" lon="38.468600">
        <ele>625.003</ele>
        <time>2012-05-16T14:51:35Z</time>
      </trkpt>
      <trkpt lat="3.347860" lon="38.468720">
        <ele>616.007</ele>
        <time>2012-05-16T14:51:55Z</time>
      </trkpt>
      <trkpt lat="3.347100" lon="38.468700">
        <ele>619.023</ele>
        <time>2012-05-16T14:52:15Z</time>
      </trkpt>
      <trkpt lat="3.346070" lon="38.468440">
        <ele>615.069</ele>
        <time>2012-05-16T14:52:35Z</time>
      </trkpt>
      <trkpt lat="3.345170" lon="38.468050">
        <ele>613.035</ele>
        <time>2012-05-16T14:52:55Z</time>
      </trkpt>
      <trkpt lat="3.341720" lon="38.465860">
        <ele>640.055</ele>
        <time>2012-05-16T14:53:15Z</time>
      </trkpt>
      <trkpt lat="3.334950" lon="38.461970">
        <ele>695.090</ele>
        <time>2012-05-16T14:53:35Z</time>
      </trkpt>
      <trkpt lat="3.334030" lon="38.461320">
        <ele>691.097</ele>
        <time>2012-05-16T14:53:55Z</time>
      </trkpt>
      <trkpt lat="3.333620" lon="38.460950">
        <ele>653.065</ele>
        <time>2012-05-16T14:54:15Z</time>
      </trkpt>
      <trkpt lat="3.332910" lon="38.460060">
        <ele>635.065</ele>
        <time>2012-05-16T14:54:35Z</time>
      </trkpt>
      <trkpt lat="3.332440" lon="38.459120">
        <ele>631.068</ele>
        <time>2012-05-16T14:54:55Z</time>
      </trkpt>
      <trkpt lat="3.332170" lon="38.458180">
        <ele>627.014</ele>
        <time>2012-05-16T14:55:15Z</time>
      </trkpt>
      <trkpt lat="3.331940" lon="38.449770">
        <ele>620.007</ele>
        <time>2012-05-16T14:55:35Z</time>
      </trkpt>
      <trkpt lat="3.331840" lon="38.443880">
        <ele>619.018</ele>
        <time>2012-05-16T14:55:55Z</time>
      </trkpt>
      <trkpt lat="3.331750" lon="38.442890">
        <ele>620.054</ele>
        <time>2012-05-16T14:56:15Z</time>
      </trkpt>
      <trkpt lat="3.331600" lon="38.442020">
        <ele>623.050</ele>
        <time>2012-05-16T14:56:35Z</time>
      </trkpt>
      <trkpt lat="3.329600" lon="38.435730">
        <ele>634.090</ele>
        <time>2012-05-16T14:56:55Z</time>
      </trkpt>
      <trkpt lat="3.329020" lon="38.433740">
        <ele>632.085</ele>
        <time>2012-05-16T14:57:15Z</time>
      </trkpt>
      <trkpt lat="3.326390" lon="38.425530">
        <ele>638.032</ele>
        <time>2012-05-16T14:57:35Z</time>
      </trkpt>
      <trkpt lat="3.317420" lon="38.398350">
        <ele>715.060</ele>
        <time>2012-05-16T14:57:55Z</time>
      </trkpt>
      <trkpt lat="3.315150" lon="38.391610">
        <ele>716.091</ele>
        <time>2012-05-16T14:58:15Z</time>
      </trkpt>
      <trkpt lat="3.313020" lon="38.384750">
        <ele>729.081</ele>
        <time>2012-05-16T14:58:35Z</time>
      </trkpt>
      <trkpt lat="3.312800" lon="38.384150">
        <ele>728.019</ele>
        <time>2012-05-16T14:58:55Z</time>
      </trkpt>
      <trkpt lat="3.312170" lon="38.383150">
        <ele>727.007</ele>
        <time>2012-05-16T14:59:15Z</time>
      </trkpt>
      <trkpt lat="3.311580" lon="38.382490">
        <ele>725.031</ele>
        <time>2012-05-16T14:59:35Z</time>
      </trkpt>
      <trkpt lat="3.310360" lon="38.381480">
        <ele>727.027</ele>
        <time>2012-05-16T14:59:55Z</time>
      </trkpt>
      <trkpt lat="3.308990" lon="38.380540">
        <ele>721.073</ele>
        <time>2012-05-16T15:00:15Z</time>
      </trkpt>
      <trkpt lat="3.307780" lon="38.379790">
        <ele>701.093</ele>
        <time>2012-05-16T15:00:35Z</time>
      </trkpt>
      <trkpt lat="3.306210" lon="38.379050">
        <ele>695.058</ele>
        <time>2012-05-16T15:00:55Z</time>
      </trkpt>
      <trkpt lat="3.301190" lon="38.377010">
        <ele>686.025</ele>
        <time>2012-05-16T15:01:15Z</time>
      </trkpt>
      <trkpt lat="3.294600" lon="38.374240">
        <ele>681.013</ele>
        <time>2012-05-16T15:01:35Z</time>
      </trkpt>
      <trkpt lat="3.267090" lon="38.362490">
        <ele>739.078</ele>
        <time>2012-05-16T15:01:55Z</time>
      </trkpt>
      <trkpt lat="3.266580" lon="38.362190">
        <ele>733.033</ele>
        <time>2012-05-16T15:02:15Z</time>
      </trkpt>
      <trkpt lat="3.265850" lon="38.361690">
        <ele>686.026</ele>
        <time>2012-05-16T15:02:35Z</time>
      </trkpt>
      <trkpt lat="3.265120" lon="38.360950">
        <ele>669.007</ele>
        <time>2012-05-16T15:02:55Z</time>
      </trkpt>
      <trkpt lat="3.257950" lon="38.351480">
        <ele>656.029</ele>
        <time>2012-05-16T15:03:15Z</time>
      </trkpt>
      <trkpt lat="3.256900" lon="38.350170">
        <ele>667.025</ele>
        <time>2012-05-16T15:03:35Z</time>
      </trkpt>
      <trkpt lat="3.256350" lon="38.349700">
        <ele>663.021</ele>
        <time>2012-05-16T15:03:55Z</time>
      </trkpt>
      <trkpt lat="3.254900" lon="38.348700">
        <ele>674.081</ele>
        <time>2012-05-16T15:04:15Z</time>
      </trkpt>
      <trkpt lat="3.248890" lon="38.344830">
        <ele>658.026</ele>
        <time>2012-05-16T15:04:35Z</time>
      </trkpt>
      <trkpt lat="3.248160" lon="38.344310">
        <ele>651.043</ele>
        <time>2012-05-16T15:04:55Z</time>
      </trkpt>
      <trkpt lat="3.247190" lon="38.343420">
        <ele>657.021</ele>
        <time>2012-05-16T15:05:15Z</time>
      </trkpt>
      <trkpt lat="3.241290" lon="38.337180">
        <ele>638.068</ele>
        <time>2012-05-16T15:05:35Z</time>
      </trkpt>
      <trkpt lat="3.240820" lon="38.336760">
        <ele>640.042</ele>
        <time>2012-05-16T15:05:55Z</time>
      </trkpt>
      <trkpt lat="3.240260" lon="38.336370">
        <ele>648.026</ele>
        <time>2012-05-16T15:06:15Z</time>
      </trkpt>
      <trkpt lat="3.230870" lon="38.331260">
        <ele>630.007</ele>
        <time>2012-05-16T15:06:35Z</time>
      </trkpt>
      <trkpt lat="3.230410" lon="38.330920">
        <ele>632.078</ele>
        <time>2012-05-16T15:06:55Z</time>
      </trkpt>
      <trkpt lat="3.229830" lon="38.330400">
        <ele>631.074</ele>
        <time>2012-05-16T15:07:15Z</time>
      </trkpt>
      <trkpt lat="3.229560" lon="38.330080">
        <ele>628.020</ele>
        <time>2012-05-16T15:07:35Z</time>
      </trkpt>
      <trkpt lat="3.228510" lon="38.328520">
        <ele>625.040</ele>
        <time>2012-05-16T15:07:55Z</time>
      </trkpt>
      <trkpt lat="3.224700" lon="38.325040">
        <ele>639.055</ele>
        <time>2012-05-16T15:08:15Z</time>
      </trkpt>
      <trkpt lat="3.223000" lon="38.323760">
        <ele>635.012</ele>
        <time>2012-05-16T15:08:35Z</time>
      </trkpt>
      <trkpt lat="3.220730" lon="38.322230">
        <ele>629.070</ele>
        <time>2012-05-16T15:08:55Z</time>
      </trkpt>
      <trkpt lat="3.207940" lon="38.315910">
        <ele>635.019</ele>
        <time>2012-05-16T15:09:15Z</time>
      </trkpt>
      <trkpt lat="3.198880" lon="38.311640">
        <ele>620.009</ele>
        <time>2012-05-16T15:09:35Z</time>
      </trkpt>
      <trkpt lat="3.186280" lon="38.305530">
        <ele>619.019</ele>
        <time>2012-05-16T15:09:55Z</time>
      </trkpt>
      <trkpt lat="3.185280" lon="38.304680">
        <ele>627.007</ele>
        <time>2012-05-16T15:10:15Z</time>
      </trkpt>
      <trkpt lat="3.183970" lon="38.302970">
        <ele>621.033</ele>
        <time>2012-05-16T15:10:35Z</time>
      </trkpt>
      <trkpt lat="3.183580" lon="38.302670">
        <ele>622.059</ele>
        <time>2012-05-16T15:10:55Z</time>
      </trkpt>
      <trkpt lat="3.177850" lon="38.299290">
        <ele>625.025</ele>
        <time>2012-05-16T15:11:15Z</time>
      </trkpt>
      <trkpt lat="3.171470" lon="38.295860">
        <ele>610.065</ele>
        <time>2012-05-16T15:11:35Z</time>
      </trkpt>
      <trkpt lat="3.144340" lon="38.281700">
        <ele>618.020</ele>
        <time>2012-05-16T15:11:55Z</time>
      </trkpt>
      <trkpt lat="3.138120" lon="38.278170">
        <ele>616.067</ele>
        <time>2012-05-16T15:12:15Z</time>
      </trkpt>
      <trkpt lat="3.101090" lon="38.256710">
        <ele>599.075</ele>
        <time>2012-05-16T15:12:35Z</time>
      </trkpt>
      <trkpt lat="3.099380" lon="38.255600">
        <ele>613.047</ele>
        <time>2012-05-16T15:12:55Z</time>
      </trkpt>
      <trkpt lat="3.093040" lon="38.251820">
        <ele>603.029</ele>
        <time>2012-05-16T15:13:15Z</time>
      </trkpt>
      <trkpt lat="3.078470" lon="38.244520">
        <ele>587.021</ele>
        <time>2012-05-16T15:13:35Z</time>
      </trkpt>
      <trkpt lat="3.059010" lon="38.236280">
        <ele>586.007</ele>
        <time>2012-05-16T15:13:55Z</time>
      </trkpt>
      <trkpt lat="3.046010" lon="38.230330">
        <ele>579.076</ele>
        <time>2012-05-16T15:14:15Z</time>
      </trkpt>
      <trkpt lat="3.043800" lon="38.229240">
        <ele>576.092</ele>
        <time>2012-05-16T15:14:35Z</time>
      </trkpt>
      <trkpt lat="3.042360" lon="38.228600">
        <ele>588.028</ele>
        <time>2012-05-16T15:14:55Z</time>
      </trkpt>
      <trkpt lat="3.039470" lon="38.227530">
        <ele>573.078</ele>
        <time>2012-05-16T15:15:15Z</time>
      </trkpt>
      <trkpt lat="3.037870" lon="38.226780">
        <ele>582.073</ele>
        <time>2012-05-16T15:15:35Z</time>
      </trkpt>
      <trkpt lat="2.987450" lon="38.199210">
        <ele>556.010</ele>
        <time>2012-05-16T15:15:55Z</time>
      </trkpt>
      <trkpt lat="2.981240" lon="38.195700">
        <ele>543.058</ele>
        <time>2012-05-16T15:16:15Z</time>
      </trkpt>
      <trkpt lat="2.973350" lon="38.191430">
        <ele>532.032</ele>
        <time>2012-05-16T15:16:35Z</time>
      </trkpt>
      <trkpt lat="2.960860" lon="38.184460">
        <ele>529.092</ele>
        <time>2012-05-16T15:16:55Z</time>
      </trkpt>
      <trkpt lat="2.954520" lon="38.181150">
        <ele>536.011</ele>
        <time>2012-05-16T15:17:15Z</time>
      </trkpt>
      <trkpt lat="2.946090" lon="38.176510">
        <ele>507.007</ele>
        <time>2012-05-16T15:17:35Z</time>
      </trkpt>
      <trkpt lat="2.940380" lon="38.173540">
        <ele>523.065</ele>
        <time>2012-05-16T15:17:55Z</time>
      </trkpt>
      <trkpt lat="2.936470" lon="38.171060">
        <ele>533.051</ele>
        <time>2012-05-16T15:18:15Z</time>
      </trkpt>
      <trkpt lat="2.934460" lon="38.169570">
        <ele>551.097</ele>
        <time>2012-05-16T15:18:35Z</time>
      </trkpt>
      <trkpt lat="2.932770" lon="38.168250">
        <ele>556.037</ele>
        <time>2012-05-16T15:18:55Z</time>
      </trkpt>
      <trkpt lat="2.930530" lon="38.166370">
        <ele>535.022</ele>
        <time>2012-05-16T15:19:15Z</time>
      </trkpt>
      <trkpt lat="2.929040" lon="38.165010">
        <ele>532.079</ele>
        <time>2012-05-16T15:19:35Z</time>
      </trkpt>
      <trkpt lat="2.927960" lon="38.163850">
        <ele>503.087</ele>
        <time>2012-05-16T15:19:55Z</time>
      </trkpt>
      <trkpt lat="2.927190" lon="38.162420">
        <ele>524.046</ele>
        <time>2012-05-16T15:20:15Z</time>
      </trkpt>
      <trkpt lat="2.926710" lon="38.161070">
        <ele>523.088</ele>
        <time>2012-05-16T15:20:35Z</time>
      </trkpt>
      <trkpt lat="2.924440" lon="38.153540">
        <ele>524.016</ele>
        <time>2012-05-16T15:20:55Z</time>
      </trkpt>
      <trkpt lat="2.924170" lon="38.152780">
        <ele>521.007</ele>
        <time>2012-05-16T15:21:15Z</time>
      </trkpt>
      <trkpt lat="2.923920" lon="38.152260">
        <ele>519.036</ele>
        <time>2012-05-16T15:21:35Z</time>
      </trkpt>
      <trkpt lat="2.923450" lon="38.151490">
        <ele>523.032</ele>
        <time>2012-05-16T15:21:55Z</time>
      </trkpt>
      <trkpt lat="2.923130" lon="38.151090">
        <ele>524.078</ele>
        <time>2012-05-16T15:22:15Z</time>
      </trkpt>
      <trkpt lat="2.922760" lon="38.150750">
        <ele>526.048</ele>
        <time>2012-05-16T15:22:35Z</time>
      </trkpt>
      <trkpt lat="2.922220" lon="38.150350">
        <ele>538.073</ele>
        <time>2012-05-16T15:22:55Z</time>
      </trkpt>
      <trkpt lat="2.921540" lon="38.149940">
        <ele>537.010</ele>
        <time>2012-05-16T15:23:15Z</time>
      </trkpt>
      <trkpt lat="2.914710" lon="38.146070">
        <ele>521.098</ele>
        <time>2012-05-16T15:23:35Z</time>
      </trkpt>
      <trkpt lat="2.911870" lon="38.144590">
        <ele>522.015</ele>
        <time>2012-05-16T15:23:55Z</time>
      </trkpt>
      <trkpt lat="2.904460" lon="38.140400">
        <ele>527.065</ele>
        <time>2012-05-16T15:24:15Z</time>
      </trkpt>
      <trkpt lat="2.898060" lon="38.136980">
        <ele>530.011</ele>
        <time>2012-05-16T15:24:35Z</time>
      </trkpt>
      <trkpt lat="2.891920" lon="38.133600">
        <ele>523.007</ele>
        <time>2012-05-16T15:24:55Z</time>
      </trkpt>
      <trkpt lat="2.879420" lon="38.126550">
        <ele>525.093</ele>
        <time>2012-05-16T15:25:15Z</time>
      </trkpt>
      <trkpt lat="2.877420" lon="38.125480">
        <ele>517.099</ele>
        <time>2012-05-16T15:25:35Z</time>
      </trkpt>
      <trkpt lat="2.876780" lon="38.125190">
        <ele>489.065</ele>
        <time>2012-05-16T15:25:55Z</time>
      </trkpt>
      <trkpt lat="2.876290" lon="38.125040">
        <ele>480.025</ele>
        <time>2012-05-16T15:26:15Z</time>
      </trkpt>
      <trkpt lat="2.875740" lon="38.124930">
        <ele>477.020</ele>
        <time>2012-05-16T15:26:35Z</time>
      </trkpt>
      <trkpt lat="2.875280" lon="38.124900">
        <ele>481.047</ele>
        <time>2012-05-16T15:26:55Z</time>
      </trkpt>
      <trkpt lat="2.874580" lon="38.124890">
        <ele>449.015</ele>
        <time>2012-05-16T15:27:15Z</time>
      </trkpt>
      <trkpt lat="2.869490" lon="38.125110">
        <ele>464.021</ele>
        <time>2012-05-16T15:27:35Z</time>
      </trkpt>
      <trkpt lat="2.868390" lon="38.125090">
        <ele>467.041</ele>
        <time>2012-05-16T15:27:55Z</time>
      </trkpt>
      <trkpt lat="2.867350" lon="38.124990">
        <ele>502.005</ele>
        <time>2012-05-16T15:28:15Z</time>
      </trkpt>
      <trkpt lat="2.863790" lon="38.124440">
        <ele>492.007</ele>
        <time>2012-05-16T15:28:35Z</time>
      </trkpt>
      <trkpt lat="2.861200" lon="38.123940">
        <ele>479.064</ele>
        <time>2012-05-16T15:28:55Z</time>
      </trkpt>
      <trkpt lat="2.860600" lon="38.123760">
        <ele>494.010</ele>
        <time>2012-05-16T15:29:15Z</time>
      </trkpt>
      <trkpt lat="2.859120" lon="38.123070">
        <ele>501.076</ele>
        <time>2012-05-16T15:29:35Z</time>
      </trkpt>
      <trkpt lat="2.857150" lon="38.121960">
        <ele>513.026</ele>
        <time>2012-05-16T15:29:55Z</time>
      </trkpt>
      <trkpt lat="2.855350" lon="38.121100">
        <ele>503.041</ele>
        <time>2012-05-16T15:30:15Z</time>
      </trkpt>
      <trkpt lat="2.844580" lon="38.115500">
        <ele>506.078</ele>
        <time>2012-05-16T15:30:35Z</time>
      </trkpt>
      <trkpt lat="2.843380" lon="38.114830">
        <ele>499.096</ele>
        <time>2012-05-16T15:30:55Z</time>
      </trkpt>
      <trkpt lat="2.837440" lon="38.110190">
        <ele>505.066</ele>
        <time>2012-05-16T15:31:15Z</time>
      </trkpt>
      <trkpt lat="2.832390" lon="38.108320">
        <ele>503.029</ele>
        <time>2012-05-16T15:31:35Z</time>
      </trkpt>
      <trkpt lat="2.824060" lon="38.105500">
        <ele>488.021</ele>
        <time>2012-05-16T15:31:55Z</time>
      </trkpt>
      <trkpt lat="2.811010" lon="38.101390">
        <ele>510.007</ele>
        <time>2012-05-16T15:32:15Z</time>
      </trkpt>
      <trkpt lat="2.809610" lon="38.100860">
        <ele>505.068</ele>
        <time>2012-05-16T15:32:35Z</time>
      </trkpt>
      <trkpt lat="2.803520" lon="38.097980">
        <ele>507.024</ele>
        <time>2012-05-16T15:32:55Z</time>
      </trkpt>
      <trkpt lat="2.800850" lon="38.096960">
        <ele>512.070</ele>
        <time>2012-05-16T15:33:15Z</time>
      </trkpt>
      <trkpt lat="2.794070" lon="38.094690">
        <ele>509.060</ele>
        <time>2012-05-16T15:33:35Z</time>
      </trkpt>
      <trkpt lat="2.792750" lon="38.094180">
        <ele>511.045</ele>
        <time>2012-05-16T15:33:55Z</time>
      </trkpt>
      <trkpt lat="2.787570" lon="38.091730">
        <ele>541.052</ele>
        <time>2012-05-16T15:34:15Z</time>
      </trkpt>
      <trkpt lat="2.786360" lon="38.091100">
        <ele>558.080</ele>
        <time>2012-05-16T15:34:35Z</time>
      </trkpt>
      <trkpt lat="2.785550" lon="38.090740">
        <ele>559.058</ele>
        <time>2012-05-16T15:34:55Z</time>
      </trkpt>
      <trkpt lat="2.784450" lon="38.090370">
        <ele>527.052</ele>
        <time>2012-05-16T15:35:15Z</time>
      </trkpt>
      <trkpt lat="2.783940" lon="38.090270">
        <ele>512.017</ele>
        <time>2012-05-16T15:35:35Z</time>
      </trkpt>
      <trkpt lat="2.783380" lon="38.090250">
        <ele>497.007</ele>
        <time>2012-05-16T15:35:55Z</time>
      </trkpt>
      <trkpt lat="2.782260" lon="38.090360">
        <ele>482.017</ele>
        <time>2012-05-16T15:36:15Z</time>
      </trkpt>
      <trkpt lat="2.781650" lon="38.090520">
        <ele>484.063</ele>
        <time>2012-05-16T15:36:35Z</time>
      </trkpt>
      <trkpt lat="2.780970" lon="38.090790">
        <ele>494.029</ele>
        <time>2012-05-16T15:36:55Z</time>
      </trkpt>
      <trkpt lat="2.780090" lon="38.091380">
        <ele>501.069</ele>
        <time>2012-05-16T15:37:15Z</time>
      </trkpt>
      <trkpt lat="2.778770" lon="38.092500">
        <ele>514.094</ele>
        <time>2012-05-16T15:37:35Z</time>
      </trkpt>
      <trkpt lat="2.778040" lon="38.092960">
        <ele>513.081</ele>
        <time>2012-05-16T15:37:55Z</time>
      </trkpt>
      <trkpt lat="2.776810" lon="38.093420">
        <ele>499.089</ele>
        <time>2012-05-16T15:38:15Z</time>
      </trkpt>
      <trkpt lat="2.775970" lon="38.093560">
        <ele>488.098</ele>
        <time>2012-05-16T15:38:35Z</time>
      </trkpt>
      <trkpt lat="2.773520" lon="38.093540">
        <ele>509.015</ele>
        <time>2012-05-16T15:38:55Z</time>
      </trkpt>
      <trkpt lat="2.760330" lon="38.093030">
        <ele>514.026</ele>
        <time>2012-05-16T15:39:15Z</time>
      </trkpt>
      <trkpt lat="2.759300" lon="38.092900">
        <ele>522.007</ele>
        <time>2012-05-16T15:39:35Z</time>
      </trkpt>
      <trkpt lat="2.758520" lon="38.092700">
        <ele>526.081</ele>
        <time>2012-05-16T15:39:55Z</time>
      </trkpt>
      <trkpt lat="2.757500" lon="38.092330">
        <ele>536.077</ele>
        <time>2012-05-16T15:40:15Z</time>
      </trkpt>
      <trkpt lat="2.749440" lon="38.088170">
        <ele>529.083</ele>
        <time>2012-05-16T15:40:35Z</time>
      </trkpt>
      <trkpt lat="2.746870" lon="38.087050">
        <ele>520.083</ele>
        <time>2012-05-16T15:40:55Z</time>
      </trkpt>
      <trkpt lat="2.745480" lon="38.086660">
        <ele>523.028</ele>
        <time>2012-05-16T15:41:15Z</time>
      </trkpt>
      <trkpt lat="2.744100" lon="38.086420">
        <ele>510.025</ele>
        <time>2012-05-16T15:41:35Z</time>
      </trkpt>
      <trkpt lat="2.741960" lon="38.086270">
        <ele>529.053</ele>
        <time>2012-05-16T15:41:55Z</time>
      </trkpt>
      <trkpt lat="2.739890" lon="38.086260">
        <ele>517.058</ele>
        <time>2012-05-16T15:42:15Z</time>
      </trkpt>
      <trkpt lat="2.739140" lon="38.086350">
        <ele>520.052</ele>
        <time>2012-05-16T15:42:35Z</time>
      </trkpt>
      <trkpt lat="2.738560" lon="38.086460">
        <ele>520.017</ele>
        <time>2012-05-16T15:42:55Z</time>
      </trkpt>
      <trkpt lat="2.736870" lon="38.087010">
        <ele>518.007</ele>
        <time>2012-05-16T15:43:15Z</time>
      </trkpt>
      <trkpt lat="2.734780" lon="38.087960">
        <ele>517.057</ele>
        <time>2012-05-16T15:43:35Z</time>
      </trkpt>
      <trkpt lat="2.734150" lon="38.088150">
        <ele>518.043</ele>
        <time>2012-05-16T15:43:55Z</time>
      </trkpt>
      <trkpt lat="2.733270" lon="38.088310">
        <ele>521.079</ele>
        <time>2012-05-16T15:44:15Z</time>
      </trkpt>
      <trkpt lat="2.723330" lon="38.088600">
        <ele>530.089</ele>
        <time>2012-05-16T15:44:35Z</time>
      </trkpt>
      <trkpt lat="2.721280" lon="38.088620">
        <ele>533.024</ele>
        <time>2012-05-16T15:44:55Z</time>
      </trkpt>
      <trkpt lat="2.719090" lon="38.088560">
        <ele>537.091</ele>
        <time>2012-05-16T15:45:15Z</time>
      </trkpt>
      <trkpt lat="2.712040" lon="38.087860">
        <ele>544.029</ele>
        <time>2012-05-16T15:45:35Z</time>
      </trkpt>
      <trkpt lat="2.708600" lon="38.087260">
        <ele>549.098</ele>
        <time>2012-05-16T15:45:55Z</time>
      </trkpt>
      <trkpt lat="2.704860" lon="38.086490">
        <ele>546.015</ele>
        <time>2012-05-16T15:46:15Z</time>
      </trkpt>
      <trkpt lat="2.703600" lon="38.086060">
        <ele>546.026</ele>
        <time>2012-05-16T15:46:35Z</time>
      </trkpt>
      <trkpt lat="2.698380" lon="38.083420">
        <ele>570.007</ele>
        <time>2012-05-16T15:46:55Z</time>
      </trkpt>
      <trkpt lat="2.696640" lon="38.082760">
        <ele>541.051</ele>
        <time>2012-05-16T15:47:15Z</time>
      </trkpt>
      <trkpt lat="2.695770" lon="38.082580">
        <ele>537.027</ele>
        <time>2012-05-16T15:47:35Z</time>
      </trkpt>
      <trkpt lat="2.694980" lon="38.082490">
        <ele>544.073</ele>
        <time>2012-05-16T15:47:55Z</time>
      </trkpt>
      <trkpt lat="2.692780" lon="38.082490">
        <ele>548.093</ele>
        <time>2012-05-16T15:48:15Z</time>
      </trkpt>
      <trkpt lat="2.691510" lon="38.082600">
        <ele>552.078</ele>
        <time>2012-05-16T15:48:35Z</time>
      </trkpt>
      <trkpt lat="2.690360" lon="38.082820">
        <ele>559.095</ele>
        <time>2012-05-16T15:48:55Z</time>
      </trkpt>
      <trkpt lat="2.689340" lon="38.083090">
        <ele>555.043</ele>
        <time>2012-05-16T15:49:15Z</time>
      </trkpt>
      <trkpt lat="2.687360" lon="38.083790">
        <ele>543.013</ele>
        <time>2012-05-16T15:49:35Z</time>
      </trkpt>
      <trkpt lat="2.686760" lon="38.083910">
        <ele>533.043</ele>
        <time>2012-05-16T15:49:55Z</time>
      </trkpt>
      <trkpt lat="2.682350" lon="38.084310">
        <ele>551.007</ele>
        <time>2012-05-16T15:50:15Z</time>
      </trkpt>
      <trkpt lat="2.679720" lon="38.084610">
        <ele>575.007</ele>
        <time>2012-05-16T15:50:35Z</time>
      </trkpt>
      <trkpt lat="2.678780" lon="38.084570">
        <ele>581.033</ele>
        <time>2012-05-16T15:50:55Z</time>
      </trkpt>
      <trkpt lat="2.678030" lon="38.084450">
        <ele>579.039</ele>
        <time>2012-05-16T15:51:15Z</time>
      </trkpt>
      <trkpt lat="2.677320" lon="38.084260">
        <ele>575.045</ele>
        <time>2012-05-16T15:51:35Z</time>
      </trkpt>
      <trkpt lat="2.675550" lon="38.083500">
        <ele>586.055</ele>
        <time>2012-05-16T15:51:55Z</time>
      </trkpt>
      <trkpt lat="2.675030" lon="38.083220">
        <ele>584.030</ele>
        <time>2012-05-16T15:52:15Z</time>
      </trkpt>
      <trkpt lat="2.674520" lon="38.083050">
        <ele>583.017</ele>
        <time>2012-05-16T15:52:35Z</time>
      </trkpt>
      <trkpt lat="2.673420" lon="38.082760">
        <ele>575.025</ele>
        <time>2012-05-16T15:52:55Z</time>
      </trkpt>
      <trkpt lat="2.672120" lon="38.082560">
        <ele>575.078</ele>
        <time>2012-05-16T15:53:15Z</time>
      </trkpt>
      <trkpt lat="2.669420" lon="38.083070">
        <ele>570.033</ele>
        <time>2012-05-16T15:53:35Z</time>
      </trkpt>
      <trkpt lat="2.668260" lon="38.083030">
        <ele>585.026</ele>
        <time>2012-05-16T15:53:55Z</time>
      </trkpt>
      <trkpt lat="2.667800" lon="38.082940">
        <ele>585.007</ele>
        <time>2012-05-16T15:54:15Z</time>
      </trkpt>
      <trkpt lat="2.666090" lon="38.082290">
        <ele>597.039</ele>
        <time>2012-05-16T15:54:35Z</time>
      </trkpt>
      <trkpt lat="2.661200" lon="38.080240">
        <ele>612.025</ele>
        <time>2012-05-16T15:54:55Z</time>
      </trkpt>
      <trkpt lat="2.659770" lon="38.079720">
        <ele>606.071</ele>
        <time>2012-05-16T15:55:15Z</time>
      </trkpt>
      <trkpt lat="2.651970" lon="38.077550">
        <ele>618.061</ele>
        <time>2012-05-16T15:55:35Z</time>
      </trkpt>
      <trkpt lat="2.650560" lon="38.077290">
        <ele>589.026</ele>
        <time>2012-05-16T15:55:55Z</time>
      </trkpt>
      <trkpt lat="2.648730" lon="38.077140">
        <ele>588.063</ele>
        <time>2012-05-16T15:56:15Z</time>
      </trkpt>
      <trkpt lat="2.648000" lon="38.077030">
        <ele>595.011</ele>
        <time>2012-05-16T15:56:35Z</time>
      </trkpt>
      <trkpt lat="2.646750" lon="38.076700">
        <ele>610.089</ele>
        <time>2012-05-16T15:56:55Z</time>
      </trkpt>
      <trkpt lat="2.645650" lon="38.076320">
        <ele>622.006</ele>
        <time>2012-05-16T15:57:15Z</time>
      </trkpt>
      <trkpt lat="2.644870" lon="38.075980">
        <ele>637.026</ele>
        <time>2012-05-16T15:57:35Z</time>
      </trkpt>
      <trkpt lat="2.643410" lon="38.075200">
        <ele>649.007</ele>
        <time>2012-05-16T15:57:55Z</time>
      </trkpt>
      <trkpt lat="2.641430" lon="38.073840">
        <ele>630.090</ele>
        <time>2012-05-16T15:58:15Z</time>
      </trkpt>
      <trkpt lat="2.640810" lon="38.073470">
        <ele>630.026</ele>
        <time>2012-05-16T15:58:35Z</time>
      </trkpt>
      <trkpt lat="2.636240" lon="38.070980">
        <ele>630.062</ele>
        <time>2012-05-16T15:58:55Z</time>
      </trkpt>
      <trkpt lat="2.633850" lon="38.069800">
        <ele>637.062</ele>
        <time>2012-05-16T15:59:15Z</time>
      </trkpt>
      <trkpt lat="2.632300" lon="38.069090">
        <ele>629.047</ele>
        <time>2012-05-16T15:59:35Z</time>
      </trkpt>
      <trkpt lat="2.625670" lon="38.066530">
        <ele>628.094</ele>
        <time>2012-05-16T15:59:55Z</time>
      </trkpt>
      <trkpt lat="2.624970" lon="38.066300">
        <ele>624.042</ele>
        <time>2012-05-16T16:00:15Z</time>
      </trkpt>
      <trkpt lat="2.623970" lon="38.066110">
        <ele>621.074</ele>
        <time>2012-05-16T16:00:35Z</time>
      </trkpt>
      <trkpt lat="2.622830" lon="38.065960">
        <ele>618.056</ele>
        <time>2012-05-16T16:00:55Z</time>
      </trkpt>
      <trkpt lat="2.620350" lon="38.065770">
        <ele>619.021</ele>
        <time>2012-05-16T16:01:15Z</time>
      </trkpt>
      <trkpt lat="2.619670" lon="38.065650">
        <ele>626.007</ele>
        <time>2012-05-16T16:01:35Z</time>
      </trkpt>
      <trkpt lat="2.618180" lon="38.065220">
        <ele>640.019</ele>
        <time>2012-05-16T16:01:55Z</time>
      </trkpt>
      <trkpt lat="2.614630" lon="38.064010">
        <ele>631.065</ele>
        <time>2012-05-16T16:02:15Z</time>
      </trkpt>
      <trkpt lat="2.612380" lon="38.063310">
        <ele>633.091</ele>
        <time>2012-05-16T16:02:35Z</time>
      </trkpt>
      <trkpt lat="2.610890" lon="38.063050">
        <ele>637.031</ele>
        <time>2012-05-16T16:02:55Z</time>
      </trkpt>
      <trkpt lat="2.609260" lon="38.063010">
        <ele>644.066</ele>
        <time>2012-05-16T16:03:15Z</time>
      </trkpt>
      <trkpt lat="2.608220" lon="38.062910">
        <ele>640.083</ele>
        <time>2012-05-16T16:03:35Z</time>
      </trkpt>
      <trkpt lat="2.607190" lon="38.062720">
        <ele>670.041</ele>
        <time>2012-05-16T16:03:55Z</time>
      </trkpt>
      <trkpt lat="2.606280" lon="38.062420">
        <ele>678.067</ele>
        <time>2012-05-16T16:04:15Z</time>
      </trkpt>
      <trkpt lat="2.604990" lon="38.061830">
        <ele>683.081</ele>
        <time>2012-05-16T16:04:35Z</time>
      </trkpt>
      <trkpt lat="2.603530" lon="38.060810">
        <ele>663.019</ele>
        <time>2012-05-16T16:04:55Z</time>
      </trkpt>
      <trkpt lat="2.596870" lon="38.055720">
        <ele>681.007</ele>
        <time>2012-05-16T16:05:15Z</time>
      </trkpt>
      <trkpt lat="2.595900" lon="38.055150">
        <ele>677.038</ele>
        <time>2012-05-16T16:05:35Z</time>
      </trkpt>
      <trkpt lat="2.594680" lon="38.054770">
        <ele>661.084</ele>
        <time>2012-05-16T16:05:55Z</time>
      </trkpt>
      <trkpt lat="2.594130" lon="38.054700">
        <ele>655.090</ele>
        <time>2012-05-16T16:06:15Z</time>
      </trkpt>
      <trkpt lat="2.593110" lon="38.054680">
        <ele>655.080</ele>
        <time>2012-05-16T16:06:35Z</time>
      </trkpt>
      <trkpt lat="2.592230" lon="38.054860">
        <ele>657.085</ele>
        <time>2012-05-16T16:06:55Z</time>
      </trkpt>
      <trkpt lat="2.583230" lon="38.058000">
        <ele>680.092</ele>
        <time>2012-05-16T16:07:15Z</time>
      </trkpt>
      <trkpt lat="2.578910" lon="38.059380">
        <ele>689.030</ele>
        <time>2012-05-16T16:07:35Z</time>
      </trkpt>
      <trkpt lat="2.577510" lon="38.059790">
        <ele>700.038</ele>
        <time>2012-05-16T16:07:55Z</time>
      </trkpt>
      <trkpt lat="2.576890" lon="38.059900">
        <ele>706.070</ele>
        <time>2012-05-16T16:08:15Z</time>
      </trkpt>
      <trkpt lat="2.576520" lon="38.059950">
        <ele>704.017</ele>
        <time>2012-05-16T16:08:35Z</time>
      </trkpt>
      <trkpt lat="2.573730" lon="38.060020">
        <ele>713.007</ele>
        <time>2012-05-16T16:08:55Z</time>
      </trkpt>
      <trkpt lat="2.572810" lon="38.059990">
        <ele>700.045</ele>
        <time>2012-05-16T16:09:15Z</time>
      </trkpt>
      <trkpt lat="2.569720" lon="38.060070">
        <ele>692.061</ele>
        <time>2012-05-16T16:09:35Z</time>
      </trkpt>
      <trkpt lat="2.568210" lon="38.060190">
        <ele>690.057</ele>
        <time>2012-05-16T16:09:55Z</time>
      </trkpt>
      <trkpt lat="2.566950" lon="38.060420">
        <ele>704.057</ele>
        <time>2012-05-16T16:10:15Z</time>
      </trkpt>
      <trkpt lat="2.561240" lon="38.061720">
        <ele>709.072</ele>
        <time>2012-05-16T16:10:35Z</time>
      </trkpt>
      <trkpt lat="2.559510" lon="38.062040">
        <ele>714.039</ele>
        <time>2012-05-16T16:10:55Z</time>
      </trkpt>
      <trkpt lat="2.557900" lon="38.062060">
        <ele>724.017</ele>
        <time>2012-05-16T16:11:15Z</time>
      </trkpt>
      <trkpt lat="2.552540" lon="38.061470">
        <ele>747.077</ele>
        <time>2012-05-16T16:11:35Z</time>
      </trkpt>
      <trkpt lat="2.551670" lon="38.061440">
        <ele>741.061</ele>
        <time>2012-05-16T16:11:55Z</time>
      </trkpt>
      <trkpt lat="2.549610" lon="38.061670">
        <ele>746.027</ele>
        <time>2012-05-16T16:12:15Z</time>
      </trkpt>
      <trkpt lat="2.543830" lon="38.062570">
        <ele>757.007</ele>
        <time>2012-05-16T16:12:35Z</time>
      </trkpt>
      <trkpt lat="2.540110" lon="38.062910">
        <ele>777.019</ele>
        <time>2012-05-16T16:12:55Z</time>
      </trkpt>
      <trkpt lat="2.539230" lon="38.063110">
        <ele>785.075</ele>
        <time>2012-05-16T16:13:15Z</time>
      </trkpt>
      <trkpt lat="2.538240" lon="38.063460">
        <ele>791.041</ele>
        <time>2012-05-16T16:13:35Z</time>
      </trkpt>
      <trkpt lat="2.537550" lon="38.063870">
        <ele>796.011</ele>
        <time>2012-05-16T16:13:55Z</time>
      </trkpt>
      <trkpt lat="2.536360" lon="38.064750">
        <ele>803.056</ele>
        <time>2012-05-16T16:14:15Z</time>
      </trkpt>
      <trkpt lat="2.535810" lon="38.065050">
        <ele>807.043</ele>
        <time>2012-05-16T16:14:35Z</time>
      </trkpt>
      <trkpt lat="2.535300" lon="38.065260">
        <ele>814.091</ele>
        <time>2012-05-16T16:14:55Z</time>
      </trkpt>
      <trkpt lat="2.534470" lon="38.065490">
        <ele>819.087</ele>
        <time>2012-05-16T16:15:15Z</time>
      </trkpt>
      <trkpt lat="2.534030" lon="38.065520">
        <ele>817.042</ele>
        <time>2012-05-16T16:15:35Z</time>
      </trkpt>
      <trkpt lat="2.533100" lon="38.065410">
        <ele>810.026</ele>
        <time>2012-05-16T16:15:55Z</time>
      </trkpt>
      <trkpt lat="2.532490" lon="38.065230">
        <ele>814.007</ele>
        <time>2012-05-16T16:16:15Z</time>
      </trkpt>
      <trkpt lat="2.525990" lon="38.063110">
        <ele>816.040</ele>
        <time>2012-05-16T16:16:35Z</time>
      </trkpt>
      <trkpt lat="2.522780" lon="38.061990">
        <ele>834.046</ele>
        <time>2012-05-16T16:16:55Z</time>
      </trkpt>
      <trkpt lat="2.517770" lon="38.060390">
        <ele>838.092</ele>
        <time>2012-05-16T16:17:15Z</time>
      </trkpt>
      <trkpt lat="2.514100" lon="38.059270">
        <ele>835.032</ele>
        <time>2012-05-16T16:17:35Z</time>
      </trkpt>
      <trkpt lat="2.511750" lon="38.058490">
        <ele>844.037</ele>
        <time>2012-05-16T16:17:55Z</time>
      </trkpt>
      <trkpt lat="2.509870" lon="38.058040">
        <ele>835.044</ele>
        <time>2012-05-16T16:18:15Z</time>
      </trkpt>
      <trkpt lat="2.500560" lon="38.057780">
        <ele>849.092</ele>
        <time>2012-05-16T16:18:35Z</time>
      </trkpt>
      <trkpt lat="2.496820" lon="38.057750">
        <ele>853.025</ele>
        <time>2012-05-16T16:18:55Z</time>
      </trkpt>
      <trkpt lat="2.495920" lon="38.057930">
        <ele>854.026</ele>
        <time>2012-05-16T16:19:15Z</time>
      </trkpt>
      <trkpt lat="2.495300" lon="38.058150">
        <ele>856.008</ele>
        <time>2012-05-16T16:19:35Z</time>
      </trkpt>
      <trkpt lat="2.493200" lon="38.059200">
        <ele>855.007</ele>
        <time>2012-05-16T16:19:55Z</time>
      </trkpt>
      <trkpt lat="2.490340" lon="38.060720">
        <ele>858.064</ele>
        <time>2012-05-16T16:20:15Z</time>
      </trkpt>
      <trkpt lat="2.488010" lon="38.061800">
        <ele>861.060</ele>
        <time>2012-05-16T16:20:35Z</time>
      </trkpt>
      <trkpt lat="2.481180" lon="38.064270">
        <ele>881.056</ele>
        <time>2012-05-16T16:20:55Z</time>
      </trkpt>
      <trkpt lat="2.477060" lon="38.065700">
        <ele>895.076</ele>
        <time>2012-05-16T16:21:15Z</time>
      </trkpt>
      <trkpt lat="2.475280" lon="38.066030">
        <ele>888.041</ele>
        <time>2012-05-16T16:21:35Z</time>
      </trkpt>
      <trkpt lat="2.473700" lon="38.066200">
        <ele>900.078</ele>
        <time>2012-05-16T16:21:55Z</time>
      </trkpt>
      <trkpt lat="2.470330" lon="38.066320">
        <ele>905.066</ele>
        <time>2012-05-16T16:22:15Z</time>
      </trkpt>
      <trkpt lat="2.469750" lon="38.066180">
        <ele>904.057</ele>
        <time>2012-05-16T16:22:35Z</time>
      </trkpt>
      <trkpt lat="2.468410" lon="38.065650">
        <ele>908.000</ele>
        <time>2012-05-16T16:22:55Z</time>
      </trkpt>
      <trkpt lat="2.467190" lon="38.065000">
        <ele>908.020</ele>
        <time>2012-05-16T16:23:15Z</time>
      </trkpt>
      <trkpt lat="2.466070" lon="38.064490">
        <ele>918.007</ele>
        <time>2012-05-16T16:23:35Z</time>
      </trkpt>
      <trkpt lat="2.464630" lon="38.064150">
        <ele>927.037</ele>
        <time>2012-05-16T16:23:55Z</time>
      </trkpt>
      <trkpt lat="2.463480" lon="38.064090">
        <ele>930.063</ele>
        <time>2012-05-16T16:24:15Z</time>
      </trkpt>
      <trkpt lat="2.463070" lon="38.064120">
        <ele>933.079</ele>
        <time>2012-05-16T16:24:35Z</time>
      </trkpt>
      <trkpt lat="2.458850" lon="38.064610">
        <ele>941.019</ele>
        <time>2012-05-16T16:24:55Z</time>
      </trkpt>
      <trkpt lat="2.457440" lon="38.064310">
        <ele>945.064</ele>
        <time>2012-05-16T16:25:15Z</time>
      </trkpt>
      <trkpt lat="2.455760" lon="38.063610">
        <ele>949.071</ele>
        <time>2012-05-16T16:25:35Z</time>
      </trkpt>
      <trkpt lat="2.449570" lon="38.060580">
        <ele>974.029</ele>
        <time>2012-05-16T16:25:55Z</time>
      </trkpt>
      <trkpt lat="2.448730" lon="38.060140">
        <ele>975.066</ele>
        <time>2012-05-16T16:26:15Z</time>
      </trkpt>
      <trkpt lat="2.444570" lon="38.057710">
        <ele>1004.029</ele>
        <time>2012-05-16T16:26:35Z</time>
      </trkpt>
      <trkpt lat="2.444280" lon="38.057600">
        <ele>1011.021</ele>
        <time>2012-05-16T16:26:55Z</time>
      </trkpt>
      <trkpt lat="2.443740" lon="38.057270">
        <ele>1018.007</ele>
        <time>2012-05-16T16:27:15Z</time>
      </trkpt>
      <trkpt lat="2.443480" lon="38.057180">
        <ele>1018.088</ele>
        <time>2012-05-16T16:27:35Z</time>
      </trkpt>
      <trkpt lat="2.443220" lon="38.057000">
        <ele>1020.084</ele>
        <time>2012-05-16T16:27:55Z</time>
      </trkpt>
      <trkpt lat="2.438160" lon="38.055190">
        <ele>1024.040</ele>
        <time>2012-05-16T16:28:15Z</time>
      </trkpt>
      <trkpt lat="2.436360" lon="38.054630">
        <ele>1026.020</ele>
        <time>2012-05-16T16:28:35Z</time>
      </trkpt>
      <trkpt lat="2.435750" lon="38.054560">
        <ele>1029.035</ele>
        <time>2012-05-16T16:28:55Z</time>
      </trkpt>
      <trkpt lat="2.434070" lon="38.054600">
        <ele>1034.042</ele>
        <time>2012-05-16T16:29:15Z</time>
      </trkpt>
      <trkpt lat="2.426670" lon="38.055120">
        <ele>1063.050</ele>
        <time>2012-05-16T16:29:35Z</time>
      </trkpt>
      <trkpt lat="2.420440" lon="38.055470">
        <ele>1088.057</ele>
        <time>2012-05-16T16:29:55Z</time>
      </trkpt>
      <trkpt lat="2.418920" lon="38.055710">
        <ele>1093.000</ele>
        <time>2012-05-16T16:30:15Z</time>
      </trkpt>
      <trkpt lat="2.418440" lon="38.055840">
        <ele>1094.020</ele>
        <time>2012-05-16T16:30:35Z</time>
      </trkpt>
      <trkpt lat="2.416400" lon="38.056640">
        <ele>1102.007</ele>
        <time>2012-05-16T16:30:55Z</time>
      </trkpt>
      <trkpt lat="2.415070" lon="38.057080">
        <ele>1103.087</ele>
        <time>2012-05-16T16:31:15Z</time>
      </trkpt>
      <trkpt lat="2.413760" lon="38.057080">
        <ele>1104.073</ele>
        <time>2012-05-16T16:31:35Z</time>
      </trkpt>
      <trkpt lat="2.412180" lon="38.056910">
        <ele>1112.059</ele>
        <time>2012-05-16T16:31:55Z</time>
      </trkpt>
      <trkpt lat="2.410650" lon="38.056900">
        <ele>1115.069</ele>
        <time>2012-05-16T16:32:15Z</time>
      </trkpt>
      <trkpt lat="2.406810" lon="38.056460">
        <ele>1131.084</ele>
        <time>2012-05-16T16:32:35Z</time>
      </trkpt>
      <trkpt lat="2.406160" lon="38.056160">
        <ele>1135.091</ele>
        <time>2012-05-16T16:32:55Z</time>
      </trkpt>
      <trkpt lat="2.405960" lon="38.056000">
        <ele>1137.099</ele>
        <time>2012-05-16T16:33:15Z</time>
      </trkpt>
      <trkpt lat="2.402920" lon="38.052330">
        <ele>1129.086</ele>
        <time>2012-05-16T16:33:35Z</time>
      </trkpt>
      <trkpt lat="2.400930" lon="38.049120">
        <ele>1151.060</ele>
        <time>2012-05-16T16:33:55Z</time>
      </trkpt>
      <trkpt lat="2.400390" lon="38.048570">
        <ele>1156.026</ele>
        <time>2012-05-16T16:34:15Z</time>
      </trkpt>
      <trkpt lat="2.399740" lon="38.048110">
        <ele>1160.007</ele>
        <time>2012-05-16T16:34:35Z</time>
      </trkpt>
      <trkpt lat="2.398760" lon="38.047700">
        <ele>1157.030</ele>
        <time>2012-05-16T16:34:55Z</time>
      </trkpt>
      <trkpt lat="2.398130" lon="38.047330">
        <ele>1151.076</ele>
        <time>2012-05-16T16:35:15Z</time>
      </trkpt>
      <trkpt lat="2.397580" lon="38.046830">
        <ele>1156.052</ele>
        <time>2012-05-16T16:35:35Z</time>
      </trkpt>
      <trkpt lat="2.397150" lon="38.046170">
        <ele>1157.092</ele>
        <time>2012-05-16T16:35:55Z</time>
      </trkpt>
      <trkpt lat="2.391580" lon="38.035940">
        <ele>1184.097</ele>
        <time>2012-05-16T16:36:15Z</time>
      </trkpt>
      <trkpt lat="2.390400" lon="38.033900">
        <ele>1185.084</ele>
        <time>2012-05-16T16:36:35Z</time>
      </trkpt>
      <trkpt lat="2.389940" lon="38.033250">
        <ele>1187.032</ele>
        <time>2012-05-16T16:36:55Z</time>
      </trkpt>
      <trkpt lat="2.389020" lon="38.032340">
        <ele>1187.064</ele>
        <time>2012-05-16T16:37:15Z</time>
      </trkpt>
      <trkpt lat="2.383640" lon="38.027720">
        <ele>1204.006</ele>
        <time>2012-05-16T16:37:35Z</time>
      </trkpt>
      <trkpt lat="2.382520" lon="38.026980">
        <ele>1210.016</ele>
        <time>2012-05-16T16:37:55Z</time>
      </trkpt>
      <trkpt lat="2.378250" lon="38.024730">
        <ele>1231.007</ele>
        <time>2012-05-16T16:38:15Z</time>
      </trkpt>
      <trkpt lat="2.375160" lon="38.023490">
        <ele>1248.088</ele>
        <time>2012-05-16T16:38:35Z</time>
      </trkpt>
      <trkpt lat="2.373120" lon="38.022500">
        <ele>1261.094</ele>
        <time>2012-05-16T16:38:55Z</time>
      </trkpt>
      <trkpt lat="2.371070" lon="38.021120">
        <ele>1272.010</ele>
        <time>2012-05-16T16:39:15Z</time>
      </trkpt>
      <trkpt lat="2.369770" lon="38.020020">
        <ele>1279.060</ele>
        <time>2012-05-16T16:39:35Z</time>
      </trkpt>
      <trkpt lat="2.365610" lon="38.016300">
        <ele>1287.045</ele>
        <time>2012-05-16T16:39:55Z</time>
      </trkpt>
      <trkpt lat="2.361490" lon="38.012270">
        <ele>1295.082</ele>
        <time>2012-05-16T16:40:15Z</time>
      </trkpt>
      <trkpt lat="2.361230" lon="38.011920">
        <ele>1297.080</ele>
        <time>2012-05-16T16:40:35Z</time>
      </trkpt>
      <trkpt lat="2.360670" lon="38.010790">
        <ele>1299.034</ele>
        <time>2012-05-16T16:40:55Z</time>
      </trkpt>
      <trkpt lat="2.360290" lon="38.009390">
        <ele>1301.055</ele>
        <time>2012-05-16T16:41:15Z</time>
      </trkpt>
      <trkpt lat="2.359930" lon="38.007740">
        <ele>1305.010</ele>
        <time>2012-05-16T16:41:35Z</time>
      </trkpt>
      <trkpt lat="2.359460" lon="38.006560">
        <ele>1307.007</ele>
        <time>2012-05-16T16:41:55Z</time>
      </trkpt>
      <trkpt lat="2.356300" lon="38.001920">
        <ele>1318.085</ele>
        <time>2012-05-16T16:42:15Z</time>
      </trkpt>
      <trkpt lat="2.354360" lon="37.999130">
        <ele>1321.041</ele>
        <time>2012-05-16T16:42:35Z</time>
      </trkpt>
      <trkpt lat="2.353560" lon="37.998060">
        <ele>1319.077</ele>
        <time>2012-05-16T16:42:55Z</time>
      </trkpt>
      <trkpt lat="2.352910" lon="37.997410">
        <ele>1318.027</ele>
        <time>2012-05-16T16:43:15Z</time>
      </trkpt>
      <trkpt lat="2.352170" lon="37.996790">
        <ele>1317.092</ele>
        <time>2012-05-16T16:43:35Z</time>
      </trkpt>
      <trkpt lat="2.350370" lon="37.995440">
        <ele>1322.019</ele>
        <time>2012-05-16T16:43:55Z</time>
      </trkpt>
      <trkpt lat="2.349510" lon="37.994870">
        <ele>1325.037</ele>
        <time>2012-05-16T16:44:15Z</time>
      </trkpt>
      <trkpt lat="2.348190" lon="37.994200">
        <ele>1331.041</ele>
        <time>2012-05-16T16:44:35Z</time>
      </trkpt>
      <trkpt lat="2.344880" lon="37.992890">
        <ele>1335.081</ele>
        <time>2012-05-16T16:44:55Z</time>
      </trkpt>
      <trkpt lat="2.344880" lon="37.992890">
        <ele>1335.009</ele>
        <time>2012-05-16T16:45:15Z</time>
      </trkpt>
      <trkpt lat="2.341870" lon="37.991770">
        <ele>1350.007</ele>
        <time>2012-05-16T16:45:35Z</time>
      </trkpt>
      <trkpt lat="2.338790" lon="37.990770">
        <ele>1360.076</ele>
        <time>2012-05-16T16:45:55Z</time>
      </trkpt>
      <trkpt lat="2.334800" lon="37.989650">
        <ele>1361.012</ele>
        <time>2012-05-16T16:46:15Z</time>
      </trkpt>
      <trkpt lat="2.334800" lon="37.989650">
        <ele>1361.038</ele>
        <time>2012-05-16T16:46:35Z</time>
      </trkpt>
      <trkpt lat="2.334630" lon="37.989620">
        <ele>1361.028</ele>
        <time>2012-05-16T16:46:55Z</time>
      </trkpt>
      <trkpt lat="2.334590" lon="37.990080">
        <ele>1360.023</ele>
        <time>2012-05-16T16:47:15Z</time>
      </trkpt>
      <trkpt lat="2.332350" lon="37.990100">
        <ele>1361.025</ele>
        <time>2012-05-16T13:19:16Z</time>
      </trkpt>
      <trkpt lat="2.332510" lon="37.989370">
        <ele>1359.026</ele>
        <time>2012-05-16T13:19:36Z</time>
      </trkpt>
      <trkpt lat="2.331200" lon="37.989220">
        <ele>1361.008</ele>
        <time>2012-05-16T13:19:56Z</time>
      </trkpt>
      <trkpt lat="2.330700" lon="37.989010">
        <ele>1363.007</ele>
        <time>2012-05-16T13:20:16Z</time>
      </trkpt>
      <trkpt lat="2.330400" lon="37.988740">
        <ele>1363.044</ele>
        <time>2012-05-16T13:20:36Z</time>
      </trkpt>
      <trkpt lat="2.330160" lon="37.988300">
        <ele>1364.030</ele>
        <time>2012-05-16T13:20:56Z</time>
      </trkpt>
      <trkpt lat="2.330080" lon="37.987920">
        <ele>1364.076</ele>
        <time>2012-05-16T13:21:16Z</time>
      </trkpt>
      <trkpt lat="2.330100" lon="37.987450">
        <ele>1364.036</ele>
        <time>2012-05-16T13:21:36Z</time>
      </trkpt>
      <trkpt lat="2.330220" lon="37.987060">
        <ele>1364.011</ele>
        <time>2012-05-16T13:21:56Z</time>
      </trkpt>
      <trkpt lat="2.330310" lon="37.986930">
        <ele>1364.099</ele>
        <time>2012-05-16T13:22:16Z</time>
      </trkpt>
      <trkpt lat="2.330310" lon="37.986930">
        <ele>1364.052</ele>
        <time>2012-05-16T13:22:36Z</time>
      </trkpt>
      <trkpt lat="2.331920" lon="37.984830">
        <ele>1361.096</ele>
        <time>2012-05-16T13:22:56Z</time>
      </trkpt>
      <trkpt lat="2.332260" lon="37.984480">
        <ele>1359.031</ele>
        <time>2012-05-16T13:23:16Z</time>
      </trkpt>
      <trkpt lat="2.331370" lon="37.982920">
        <ele>1360.024</ele>
        <time>2012-05-16T13:23:36Z</time>
      </trkpt>
      <trkpt lat="2.331260" lon="37.982790">
        <ele>1361.007</ele>
        <time>2012-05-16T13:23:56Z</time>
      </trkpt>
      <trkpt lat="2.330530" lon="37.982290">
        <ele>1368.011</ele>
        <time>2012-05-16T13:24:16Z</time>
      </trkpt>
      <trkpt lat="2.330090" lon="37.982340">
        <ele>1375.017</ele>
        <time>2012-05-16T13:24:36Z</time>
      </trkpt>
      <trkpt lat="2.329660" lon="37.984030">
        <ele>1373.083</ele>
        <time>2012-05-16T13:24:56Z</time>
      </trkpt>
      <trkpt lat="2.329190" lon="37.984640">
        <ele>1375.023</ele>
        <time>2012-05-16T13:25:16Z</time>
      </trkpt>
      <trkpt lat="2.328240" lon="37.985660">
        <ele>1375.068</ele>
        <time>2012-05-16T13:25:36Z</time>
      </trkpt>
      <trkpt lat="2.327920" lon="37.985930">
        <ele>1374.016</ele>
        <time>2012-05-16T13:25:56Z</time>
      </trkpt>
      <trkpt lat="2.326680" lon="37.986540">
        <ele>1376.029</ele>
        <time>2012-05-16T13:26:16Z</time>
      </trkpt>
      <trkpt lat="2.324810" lon="37.986960">
        <ele>1382.052</ele>
        <time>2012-05-16T13:26:36Z</time>
      </trkpt>
      <trkpt lat="2.323960" lon="37.987390">
        <ele>1383.053</ele>
        <time>2012-05-16T13:26:56Z</time>
      </trkpt>
      <trkpt lat="2.323460" lon="37.986530">
        <ele>1389.008</ele>
        <time>2012-05-16T13:27:16Z</time>
      </trkpt>
      <trkpt lat="2.322920" lon="37.986850">
        <ele>1388.007</ele>
        <time>2012-05-16T13:27:36Z</time>
      </trkpt>
      <trkpt lat="2.322860" lon="37.986970">
        <ele>1388.087</ele>
        <time>2012-05-16T13:27:56Z</time>
      </trkpt>
      <trkpt lat="2.322790" lon="37.986480">
        <ele>1392.073</ele>
        <time>2012-05-16T13:28:16Z</time>
      </trkpt>
      <trkpt lat="2.322710" lon="37.986350">
        <ele>1392.049</ele>
        <time>2012-05-16T13:28:36Z</time>
      </trkpt>
      <trkpt lat="2.322440" lon="37.986160">
        <ele>1394.049</ele>
        <time>2012-05-16T13:28:56Z</time>
      </trkpt>
      <trkpt lat="2.321920" lon="37.986000">
        <ele>1392.034</ele>
        <time>2012-05-16T13:29:16Z</time>
      </trkpt>
      <trkpt lat="2.321870" lon="37.985940">
        <ele>1394.022</ele>
        <time>2012-05-16T13:29:36Z</time>
      </trkpt>
      <trkpt lat="2.321790" lon="37.984990">
        <ele>1396.045</ele>
        <time>2012-05-16T13:29:56Z</time>
      </trkpt>
      <trkpt lat="2.321270" lon="37.984320">
        <ele>1396.066</ele>
        <time>2012-05-16T13:30:16Z</time>
      </trkpt>
      <trkpt lat="2.320840" lon="37.984020">
        <ele>1401.029</ele>
        <time>2012-05-16T13:30:36Z</time>
      </trkpt>
      <trkpt lat="2.320150" lon="37.983830">
        <ele>1400.021</ele>
        <time>2012-05-16T13:30:56Z</time>
      </trkpt>
      <trkpt lat="2.319830" lon="37.983660">
        <ele>1409.007</ele>
        <time>2012-05-16T13:31:16Z</time>
      </trkpt>
      <trkpt lat="2.319290" lon="37.982910">
        <ele>1420.088</ele>
        <time>2012-05-16T13:31:36Z</time>
      </trkpt>
      <trkpt lat="2.319250" lon="37.982760">
        <ele>1420.074</ele>
        <time>2012-05-16T13:31:56Z</time>
      </trkpt>
      <trkpt lat="2.319250" lon="37.981820">
        <ele>1425.010</ele>
        <time>2012-05-16T13:32:16Z</time>
      </trkpt>
      <trkpt lat="2.319110" lon="37.981630">
        <ele>1428.020</ele>
        <time>2012-05-16T13:32:36Z</time>
      </trkpt>
      <trkpt lat="2.318990" lon="37.981570">
        <ele>1427.095</ele>
        <time>2012-05-16T13:32:56Z</time>
      </trkpt>
      <trkpt lat="2.318940" lon="37.981380">
        <ele>1430.013</ele>
        <time>2012-05-16T13:33:16Z</time>
      </trkpt>
      <trkpt lat="2.318500" lon="37.980980">
        <ele>1431.046</ele>
        <time>2012-05-16T13:33:36Z</time>
      </trkpt>
      <trkpt lat="2.318380" lon="37.980500">
        <ele>1426.089</ele>
        <time>2012-05-16T13:33:56Z</time>
      </trkpt>
      <trkpt lat="2.318400" lon="37.980260">
        <ele>1426.006</ele>
        <time>2012-05-16T13:34:16Z</time>
      </trkpt>
      <trkpt lat="2.318730" lon="37.979780">
        <ele>1428.026</ele>
        <time>2012-05-16T13:34:36Z</time>
      </trkpt>
      <trkpt lat="2.318790" lon="37.979630">
        <ele>1431.007</ele>
        <time>2012-05-16T13:34:56Z</time>
      </trkpt>
      <trkpt lat="2.318770" lon="37.979530">
        <ele>1431.070</ele>
        <time>2012-05-16T13:35:16Z</time>
      </trkpt>
      <trkpt lat="2.318000" lon="37.978420">
        <ele>1442.016</ele>
        <time>2012-05-16T13:35:36Z</time>
      </trkpt>
      <trkpt lat="2.317930" lon="37.978180">
        <ele>1445.092</ele>
        <time>2012-05-16T13:35:56Z</time>
      </trkpt>
      <trkpt lat="2.317970" lon="37.977260">
        <ele>1458.022</ele>
        <time>2012-05-16T13:36:16Z</time>
      </trkpt>
      <trkpt lat="2.317880" lon="37.977090">
        <ele>1458.067</ele>
        <time>2012-05-16T13:36:36Z</time>
      </trkpt>
      <trkpt lat="2.317590" lon="37.976880">
        <ele>1463.095</ele>
        <time>2012-05-16T13:36:56Z</time>
      </trkpt>
      <trkpt lat="2.317480" lon="37.976740">
        <ele>1470.058</ele>
        <time>2012-05-16T13:37:16Z</time>
      </trkpt>
      <trkpt lat="2.317360" lon="37.975880">
        <ele>1491.091</ele>
        <time>2012-05-16T13:37:36Z</time>
      </trkpt>
      <trkpt lat="2.317110" lon="37.975100">
        <ele>1503.081</ele>
        <time>2012-05-16T13:37:56Z</time>
      </trkpt>
      <trkpt lat="2.316960" lon="37.974770">
        <ele>1511.019</ele>
        <time>2012-05-16T13:38:16Z</time>
      </trkpt>
      <trkpt lat="2.316600" lon="37.974490">
        <ele>1519.007</ele>
        <time>2012-05-16T13:38:36Z</time>
      </trkpt>
      <trkpt lat="2.315770" lon="37.974140">
        <ele>1527.071</ele>
        <time>2012-05-16T13:38:56Z</time>
      </trkpt>
      <trkpt lat="2.315160" lon="37.973990">
        <ele>1525.057</ele>
        <time>2012-05-16T13:39:16Z</time>
      </trkpt>
      <trkpt lat="2.315050" lon="37.973830">
        <ele>1523.093</ele>
        <time>2012-05-16T13:39:36Z</time>
      </trkpt>
      <trkpt lat="2.315170" lon="37.973520">
        <ele>1524.083</ele>
        <time>2012-05-16T13:39:56Z</time>
      </trkpt>
      <trkpt lat="2.314920" lon="37.972560">
        <ele>1521.078</ele>
        <time>2012-05-16T13:40:16Z</time>
      </trkpt>
      <trkpt lat="2.314730" lon="37.972440">
        <ele>1515.036</ele>
        <time>2012-05-16T13:40:36Z</time>
      </trkpt>
      <trkpt lat="2.314430" lon="37.972110">
        <ele>1512.089</ele>
        <time>2012-05-16T13:40:56Z</time>
      </trkpt>
      <trkpt lat="2.314250" lon="37.971640">
        <ele>1508.042</ele>
        <time>2012-05-16T13:41:16Z</time>
      </trkpt>
      <trkpt lat="2.314040" lon="37.971320">
        <ele>1512.022</ele>
        <time>2012-05-16T13:41:36Z</time>
      </trkpt>
      <trkpt lat="2.313450" lon="37.970790">
        <ele>1491.014</ele>
        <time>2012-05-16T13:41:56Z</time>
      </trkpt>
      <trkpt lat="2.313330" lon="37.970580">
        <ele>1493.007</ele>
        <time>2012-05-16T13:42:16Z</time>
      </trkpt>
      <trkpt lat="2.313200" lon="37.970100">
        <ele>1494.036</ele>
        <time>2012-05-16T13:42:36Z</time>
      </trkpt>
      <trkpt lat="2.313230" lon="37.968870">
        <ele>1497.092</ele>
        <time>2012-05-16T13:42:56Z</time>
      </trkpt>
      <trkpt lat="2.312650" lon="37.967470">
        <ele>1500.018</ele>
        <time>2012-05-16T13:43:16Z</time>
      </trkpt>
      <trkpt lat="2.312160" lon="37.966560">
        <ele>1497.048</ele>
        <time>2012-05-16T13:43:36Z</time>
      </trkpt>
      <trkpt lat="2.311600" lon="37.966000">
        <ele>1497.063</ele>
        <time>2012-05-16T13:43:56Z</time>
      </trkpt>
      <trkpt lat="2.310770" lon="37.965800">
        <ele>1493.011</ele>
        <time>2012-05-16T13:44:16Z</time>
      </trkpt>
      <trkpt lat="2.310300" lon="37.965760">
        <ele>1484.054</ele>
        <time>2012-05-16T13:44:36Z</time>
      </trkpt>
      <trkpt lat="2.309360" lon="37.965580">
        <ele>1484.039</ele>
        <time>2012-05-16T13:44:56Z</time>
      </trkpt>
      <trkpt lat="2.309150" lon="37.965590">
        <ele>1487.001</ele>
        <time>2012-05-16T13:45:16Z</time>
      </trkpt>
      <trkpt lat="2.308910" lon="37.965690">
        <ele>1492.021</ele>
        <time>2012-05-16T13:45:36Z</time>
      </trkpt>
      <trkpt lat="2.308780" lon="37.965850">
        <ele>1482.007</ele>
        <time>2012-05-16T13:45:56Z</time>
      </trkpt>
      <trkpt lat="2.308410" lon="37.966050">
        <ele>1485.055</ele>
        <time>2012-05-16T13:46:16Z</time>
      </trkpt>
      <trkpt lat="2.307970" lon="37.966050">
        <ele>1491.041</ele>
        <time>2012-05-16T13:46:36Z</time>
      </trkpt>
      <trkpt lat="2.307480" lon="37.965980">
        <ele>1505.037</ele>
        <time>2012-05-16T13:46:56Z</time>
      </trkpt>
      <trkpt lat="2.307210" lon="37.966060">
        <ele>1515.097</ele>
        <time>2012-05-16T13:47:16Z</time>
      </trkpt>
      <trkpt lat="2.306880" lon="37.966070">
        <ele>1524.092</ele>
        <time>2012-05-16T13:47:36Z</time>
      </trkpt>
      <trkpt lat="2.306810" lon="37.965780">
        <ele>1525.040</ele>
        <time>2012-05-16T13:47:56Z</time>
      </trkpt>
      <trkpt lat="2.306720" lon="37.965670">
        <ele>1531.073</ele>
        <time>2012-05-16T13:48:16Z</time>
      </trkpt>
      <trkpt lat="2.306480" lon="37.965680">
        <ele>1533.055</ele>
        <time>2012-05-16T13:48:36Z</time>
      </trkpt>
      <trkpt lat="2.306400" lon="37.965600">
        <ele>1533.007</ele>
        <time>2012-05-16T13:48:56Z</time>
      </trkpt>
      <trkpt lat="2.306420" lon="37.965490">
        <ele>1533.017</ele>
        <time>2012-05-16T13:49:16Z</time>
      </trkpt>
      <trkpt lat="2.306590" lon="37.965270">
        <ele>1532.007</ele>
        <time>2012-05-16T13:49:36Z</time>
      </trkpt>
      <trkpt lat="2.306790" lon="37.964740">
        <ele>1538.017</ele>
        <time>2012-05-16T13:49:56Z</time>
      </trkpt>
      <trkpt lat="2.307370" lon="37.964000">
        <ele>1549.073</ele>
        <time>2012-05-16T13:50:16Z</time>
      </trkpt>
      <trkpt lat="2.308020" lon="37.963420">
        <ele>1555.059</ele>
        <time>2012-05-16T13:50:36Z</time>
      </trkpt>
      <trkpt lat="2.308180" lon="37.963140">
        <ele>1552.019</ele>
        <time>2012-05-16T13:50:56Z</time>
      </trkpt>
      <trkpt lat="2.308480" lon="37.963100">
        <ele>1562.084</ele>
        <time>2012-05-16T13:51:16Z</time>
      </trkpt>
      <trkpt lat="2.308620" lon="37.962990">
        <ele>1562.082</ele>
        <time>2012-05-16T13:51:36Z</time>
      </trkpt>
      <trkpt lat="2.308620" lon="37.962910">
        <ele>1560.025</ele>
        <time>2012-05-16T13:51:56Z</time>
      </trkpt>
      <trkpt lat="2.308160" lon="37.962450">
        <ele>1554.013</ele>
        <time>2012-05-16T13:52:16Z</time>
      </trkpt>
      <trkpt lat="2.307210" lon="37.962470">
        <ele>1545.043</ele>
        <time>2012-05-16T13:52:36Z</time>
      </trkpt>
      <trkpt lat="2.306790" lon="37.962380">
        <ele>1545.007</ele>
        <time>2012-05-16T13:52:56Z</time>
      </trkpt>
      <trkpt lat="2.305710" lon="37.961680">
        <ele>1537.007</ele>
        <time>2012-05-16T13:53:16Z</time>
      </trkpt>
      <trkpt lat="2.304770" lon="37.961350">
        <ele>1525.073</ele>
        <time>2012-05-16T13:53:36Z</time>
      </trkpt>
      <trkpt lat="2.304640" lon="37.961260">
        <ele>1525.049</ele>
        <time>2012-05-16T13:53:56Z</time>
      </trkpt>
      <trkpt lat="2.304490" lon="37.961050">
        <ele>1522.075</ele>
        <time>2012-05-16T13:54:16Z</time>
      </trkpt>
      <trkpt lat="2.303800" lon="37.960670">
        <ele>1519.035</ele>
        <time>2012-05-16T13:54:36Z</time>
      </trkpt>
      <trkpt lat="2.303450" lon="37.960380">
        <ele>1517.060</ele>
        <time>2012-05-16T13:54:56Z</time>
      </trkpt>
      <trkpt lat="2.303130" lon="37.960280">
        <ele>1516.078</ele>
        <time>2012-05-16T13:55:16Z</time>
      </trkpt>
      <trkpt lat="2.302460" lon="37.959930">
        <ele>1514.041</ele>
        <time>2012-05-16T13:55:36Z</time>
      </trkpt>
      <trkpt lat="2.302230" lon="37.959750">
        <ele>1513.097</ele>
        <time>2012-05-16T13:55:56Z</time>
      </trkpt>
      <trkpt lat="2.302130" lon="37.959320">
        <ele>1513.023</ele>
        <time>2012-05-16T13:56:16Z</time>
      </trkpt>
      <trkpt lat="2.302050" lon="37.959220">
        <ele>1511.025</ele>
        <time>2012-05-16T13:56:36Z</time>
      </trkpt>
      <trkpt lat="2.301890" lon="37.959210">
        <ele>1511.007</ele>
        <time>2012-05-16T13:56:56Z</time>
      </trkpt>
      <trkpt lat="2.301900" lon="37.958930">
        <ele>1510.091</ele>
        <time>2012-05-16T13:57:16Z</time>
      </trkpt>
      <trkpt lat="2.301640" lon="37.958810">
        <ele>1509.027</ele>
        <time>2012-05-16T13:57:36Z</time>
      </trkpt>
      <trkpt lat="2.301380" lon="37.958400">
        <ele>1505.013</ele>
        <time>2012-05-16T13:57:56Z</time>
      </trkpt>
      <trkpt lat="2.301220" lon="37.958330">
        <ele>1505.053</ele>
        <time>2012-05-16T13:58:16Z</time>
      </trkpt>
      <trkpt lat="2.301070" lon="37.958140">
        <ele>1504.038</ele>
        <time>2012-05-16T13:58:36Z</time>
      </trkpt>
      <trkpt lat="2.301040" lon="37.957980">
        <ele>1504.076</ele>
        <time>2012-05-16T13:58:56Z</time>
      </trkpt>
      <trkpt lat="2.300880" lon="37.957760">
        <ele>1502.049</ele>
        <time>2012-05-16T13:59:16Z</time>
      </trkpt>
      <trkpt lat="2.300550" lon="37.957060">
        <ele>1497.081</ele>
        <time>2012-05-16T13:59:36Z</time>
      </trkpt>
      <trkpt lat="2.300340" lon="37.956790">
        <ele>1495.061</ele>
        <time>2012-05-16T13:59:56Z</time>
      </trkpt>
      <trkpt lat="2.299740" lon="37.956310">
        <ele>1493.017</ele>
        <time>2012-05-16T14:00:16Z</time>
      </trkpt>
      <trkpt lat="2.299500" lon="37.956220">
        <ele>1492.007</ele>
        <time>2012-05-16T14:00:36Z</time>
      </trkpt>
      <trkpt lat="2.298850" lon="37.956180">
        <ele>1488.060</ele>
        <time>2012-05-16T14:00:56Z</time>
      </trkpt>
      <trkpt lat="2.298190" lon="37.956060">
        <ele>1480.046</ele>
        <time>2012-05-16T14:01:16Z</time>
      </trkpt>
      <trkpt lat="2.297890" lon="37.955810">
        <ele>1480.082</ele>
        <time>2012-05-16T14:01:36Z</time>
      </trkpt>
      <trkpt lat="2.296960" lon="37.955300">
        <ele>1474.092</ele>
        <time>2012-05-16T14:01:56Z</time>
      </trkpt>
      <trkpt lat="2.296340" lon="37.955350">
        <ele>1468.017</ele>
        <time>2012-05-16T14:02:16Z</time>
      </trkpt>
      <trkpt lat="2.295740" lon="37.955280">
        <ele>1465.015</ele>
        <time>2012-05-16T14:02:36Z</time>
      </trkpt>
      <trkpt lat="2.295360" lon="37.955090">
        <ele>1459.038</ele>
        <time>2012-05-16T14:02:56Z</time>
      </trkpt>
      <trkpt lat="2.295090" lon="37.954710">
        <ele>1456.026</ele>
        <time>2012-05-16T14:03:16Z</time>
      </trkpt>
      <trkpt lat="2.294670" lon="37.954740">
        <ele>1456.047</ele>
        <time>2012-05-16T14:03:36Z</time>
      </trkpt>
      <trkpt lat="2.294390" lon="37.954700">
        <ele>1455.011</ele>
        <time>2012-05-16T14:03:56Z</time>
      </trkpt>
      <trkpt lat="2.294170" lon="37.954610">
        <ele>1454.007</ele>
        <time>2012-05-16T14:04:16Z</time>
      </trkpt>
      <trkpt lat="2.294010" lon="37.954480">
        <ele>1451.034</ele>
        <time>2012-05-16T14:04:36Z</time>
      </trkpt>
      <trkpt lat="2.293610" lon="37.954410">
        <ele>1449.020</ele>
        <time>2012-05-16T14:04:56Z</time>
      </trkpt>
      <trkpt lat="2.293370" lon="37.954310">
        <ele>1447.096</ele>
        <time>2012-05-16T14:05:16Z</time>
      </trkpt>
      <trkpt lat="2.291370" lon="37.954360">
        <ele>1438.026</ele>
        <time>2012-05-16T14:05:36Z</time>
      </trkpt>
      <trkpt lat="2.290640" lon="37.954190">
        <ele>1434.041</ele>
        <time>2012-05-16T14:05:56Z</time>
      </trkpt>
      <trkpt lat="2.289390" lon="37.954240">
        <ele>1426.079</ele>
        <time>2012-05-16T14:06:16Z</time>
      </trkpt>
      <trkpt lat="2.289100" lon="37.954240">
        <ele>1425.032</ele>
        <time>2012-05-16T14:06:36Z</time>
      </trkpt>
      <trkpt lat="2.288950" lon="37.954190">
        <ele>1424.045</ele>
        <time>2012-05-16T14:06:56Z</time>
      </trkpt>
      <trkpt lat="2.288760" lon="37.954360">
        <ele>1424.047</ele>
        <time>2012-05-16T14:07:16Z</time>
      </trkpt>
      <trkpt lat="2.288560" lon="37.954180">
        <ele>1423.011</ele>
        <time>2012-05-16T14:07:36Z</time>
      </trkpt>
      <trkpt lat="2.288250" lon="37.954080">
        <ele>1422.007</ele>
        <time>2012-05-16T14:07:56Z</time>
      </trkpt>
      <trkpt lat="2.287810" lon="37.954120">
        <ele>1418.076</ele>
        <time>2012-05-16T14:08:16Z</time>
      </trkpt>
      <trkpt lat="2.287280" lon="37.954280">
        <ele>1414.022</ele>
        <time>2012-05-16T14:08:36Z</time>
      </trkpt>
      <trkpt lat="2.287040" lon="37.954160">
        <ele>1412.038</ele>
        <time>2012-05-16T14:08:56Z</time>
      </trkpt>
      <trkpt lat="2.286330" lon="37.954020">
        <ele>1407.028</ele>
        <time>2012-05-16T14:09:16Z</time>
      </trkpt>
      <trkpt lat="2.286170" lon="37.953950">
        <ele>1404.023</ele>
        <time>2012-05-16T14:09:36Z</time>
      </trkpt>
      <trkpt lat="2.286060" lon="37.953820">
        <ele>1404.021</ele>
        <time>2012-05-16T14:09:56Z</time>
      </trkpt>
      <trkpt lat="2.285650" lon="37.953660">
        <ele>1395.094</ele>
        <time>2012-05-16T14:10:16Z</time>
      </trkpt>
      <trkpt lat="2.284820" lon="37.953610">
        <ele>1386.041</ele>
        <time>2012-05-16T14:10:36Z</time>
      </trkpt>
      <trkpt lat="2.284510" lon="37.953620">
        <ele>1383.081</ele>
        <time>2012-05-16T14:10:56Z</time>
      </trkpt>
      <trkpt lat="2.284130" lon="37.953830">
        <ele>1380.009</ele>
        <time>2012-05-16T14:11:16Z</time>
      </trkpt>
      <trkpt lat="2.284030" lon="37.954350">
        <ele>1382.007</ele>
        <time>2012-05-16T14:11:36Z</time>
      </trkpt>
      <trkpt lat="2.283230" lon="37.954330">
        <ele>1367.036</ele>
        <time>2012-05-16T14:11:56Z</time>
      </trkpt>
      <trkpt lat="2.282840" lon="37.954410">
        <ele>1368.092</ele>
        <time>2012-05-16T14:12:16Z</time>
      </trkpt>
      <trkpt lat="2.282360" lon="37.954410">
        <ele>1376.078</ele>
        <time>2012-05-16T14:12:36Z</time>
      </trkpt>
      <trkpt lat="2.282040" lon="37.954210">
        <ele>1377.038</ele>
        <time>2012-05-16T14:12:56Z</time>
      </trkpt>
      <trkpt lat="2.281770" lon="37.953910">
        <ele>1382.063</ele>
        <time>2012-05-16T14:13:16Z</time>
      </trkpt>
      <trkpt lat="2.281490" lon="37.953350">
        <ele>1390.031</ele>
        <time>2012-05-16T14:13:36Z</time>
      </trkpt>
      <trkpt lat="2.281510" lon="37.952720">
        <ele>1395.094</ele>
        <time>2012-05-16T14:13:56Z</time>
      </trkpt>
      <trkpt lat="2.281650" lon="37.952370">
        <ele>1397.038</ele>
        <time>2012-05-16T14:14:16Z</time>
      </trkpt>
      <trkpt lat="2.281690" lon="37.951710">
        <ele>1403.070</ele>
        <time>2012-05-16T14:14:36Z</time>
      </trkpt>
      <trkpt lat="2.281600" lon="37.951370">
        <ele>1404.017</ele>
        <time>2012-05-16T14:14:56Z</time>
      </trkpt>
      <trkpt lat="2.281690" lon="37.950400">
        <ele>1406.007</ele>
        <time>2012-05-16T14:15:16Z</time>
      </trkpt>
      <trkpt lat="2.281690" lon="37.949800">
        <ele>1406.095</ele>
        <time>2012-05-16T14:15:36Z</time>
      </trkpt>
      <trkpt lat="2.281610" lon="37.949280">
        <ele>1409.031</ele>
        <time>2012-05-16T14:15:56Z</time>
      </trkpt>
      <trkpt lat="2.281430" lon="37.948860">
        <ele>1412.067</ele>
        <time>2012-05-16T14:16:16Z</time>
      </trkpt>
      <trkpt lat="2.281470" lon="37.948370">
        <ele>1417.087</ele>
        <time>2012-05-16T14:16:36Z</time>
      </trkpt>
      <trkpt lat="2.281630" lon="37.947940">
        <ele>1418.082</ele>
        <time>2012-05-16T14:16:56Z</time>
      </trkpt>
      <trkpt lat="2.281990" lon="37.947490">
        <ele>1418.020</ele>
        <time>2012-05-16T14:17:16Z</time>
      </trkpt>
      <trkpt lat="2.282190" lon="37.946560">
        <ele>1422.013</ele>
        <time>2012-05-16T14:17:36Z</time>
      </trkpt>
      <trkpt lat="2.282320" lon="37.946240">
        <ele>1426.018</ele>
        <time>2012-05-16T14:17:56Z</time>
      </trkpt>
      <trkpt lat="2.282900" lon="37.945650">
        <ele>1427.098</ele>
        <time>2012-05-16T14:18:16Z</time>
      </trkpt>
      <trkpt lat="2.282970" lon="37.945360">
        <ele>1428.017</ele>
        <time>2012-05-16T14:18:36Z</time>
      </trkpt>
      <trkpt lat="2.283380" lon="37.944910">
        <ele>1430.007</ele>
        <time>2012-05-16T14:18:56Z</time>
      </trkpt>
      <trkpt lat="2.283560" lon="37.944380">
        <ele>1435.033</ele>
        <time>2012-05-16T14:19:16Z</time>
      </trkpt>
      <trkpt lat="2.284150" lon="37.943570">
        <ele>1443.089</ele>
        <time>2012-05-16T14:19:36Z</time>
      </trkpt>
      <trkpt lat="2.284230" lon="37.943180">
        <ele>1447.045</ele>
        <time>2012-05-16T14:19:56Z</time>
      </trkpt>
      <trkpt lat="2.284320" lon="37.943010">
        <ele>1446.075</ele>
        <time>2012-05-16T14:20:16Z</time>
      </trkpt>
      <trkpt lat="2.284410" lon="37.941940">
        <ele>1447.080</ele>
        <time>2012-05-16T14:20:36Z</time>
      </trkpt>
      <trkpt lat="2.284280" lon="37.941500">
        <ele>1449.038</ele>
        <time>2012-05-16T14:20:56Z</time>
      </trkpt>
      <trkpt lat="2.283960" lon="37.941030">
        <ele>1451.091</ele>
        <time>2012-05-16T14:21:16Z</time>
      </trkpt>
      <trkpt lat="2.283140" lon="37.940660">
        <ele>1453.091</ele>
        <time>2012-05-16T14:21:36Z</time>
      </trkpt>
      <trkpt lat="2.282890" lon="37.940470">
        <ele>1453.081</ele>
        <time>2012-05-16T14:21:56Z</time>
      </trkpt>
      <trkpt lat="2.282570" lon="37.939670">
        <ele>1453.019</ele>
        <time>2012-05-16T14:22:16Z</time>
      </trkpt>
      <trkpt lat="2.282130" lon="37.939190">
        <ele>1454.007</ele>
        <time>2012-05-16T14:22:36Z</time>
      </trkpt>
      <trkpt lat="2.281660" lon="37.937600">
        <ele>1465.071</ele>
        <time>2012-05-16T14:22:56Z</time>
      </trkpt>
      <trkpt lat="2.281520" lon="37.937290">
        <ele>1466.047</ele>
        <time>2012-05-16T14:23:16Z</time>
      </trkpt>
      <trkpt lat="2.281610" lon="37.936400">
        <ele>1475.023</ele>
        <time>2012-05-16T14:23:36Z</time>
      </trkpt>
      <trkpt lat="2.281580" lon="37.936070">
        <ele>1477.083</ele>
        <time>2012-05-16T14:23:56Z</time>
      </trkpt>
      <trkpt lat="2.281460" lon="37.935950">
        <ele>1478.058</ele>
        <time>2012-05-16T14:24:16Z</time>
      </trkpt>
      <trkpt lat="2.281100" lon="37.935750">
        <ele>1476.086</ele>
        <time>2012-05-16T14:24:36Z</time>
      </trkpt>
      <trkpt lat="2.280670" lon="37.935330">
        <ele>1474.019</ele>
        <time>2012-05-16T14:24:56Z</time>
      </trkpt>
      <trkpt lat="2.280410" lon="37.935310">
        <ele>1470.086</ele>
        <time>2012-05-16T14:25:16Z</time>
      </trkpt>
      <trkpt lat="2.280010" lon="37.935040">
        <ele>1468.060</ele>
        <time>2012-05-16T14:25:36Z</time>
      </trkpt>
      <trkpt lat="2.279800" lon="37.934990">
        <ele>1464.026</ele>
        <time>2012-05-16T14:25:56Z</time>
      </trkpt>
      <trkpt lat="2.278990" lon="37.934430">
        <ele>1459.007</ele>
        <time>2012-05-16T14:26:16Z</time>
      </trkpt>
      <trkpt lat="2.278630" lon="37.934430">
        <ele>1457.040</ele>
        <time>2012-05-16T14:26:36Z</time>
      </trkpt>
      <trkpt lat="2.278320" lon="37.934250">
        <ele>1455.086</ele>
        <time>2012-05-16T14:26:56Z</time>
      </trkpt>
      <trkpt lat="2.277780" lon="37.934040">
        <ele>1452.012</ele>
        <time>2012-05-16T14:27:16Z</time>
      </trkpt>
      <trkpt lat="2.277070" lon="37.933900">
        <ele>1447.012</ele>
        <time>2012-05-16T14:27:36Z</time>
      </trkpt>
      <trkpt lat="2.276380" lon="37.933900">
        <ele>1447.027</ele>
        <time>2012-05-16T14:27:56Z</time>
      </trkpt>
      <trkpt lat="2.275280" lon="37.933720">
        <ele>1448.055</ele>
        <time>2012-05-16T14:28:16Z</time>
      </trkpt>
      <trkpt lat="2.274950" lon="37.933380">
        <ele>1446.068</ele>
        <time>2012-05-16T14:28:36Z</time>
      </trkpt>
      <trkpt lat="2.274790" lon="37.932940">
        <ele>1444.053</ele>
        <time>2012-05-16T14:28:56Z</time>
      </trkpt>
      <trkpt lat="2.274470" lon="37.932380">
        <ele>1444.004</ele>
        <time>2012-05-16T14:29:16Z</time>
      </trkpt>
      <trkpt lat="2.274090" lon="37.932040">
        <ele>1442.014</ele>
        <time>2012-05-16T14:29:36Z</time>
      </trkpt>
      <trkpt lat="2.273540" lon="37.931780">
        <ele>1438.007</ele>
        <time>2012-05-16T14:29:56Z</time>
      </trkpt>
      <trkpt lat="2.273230" lon="37.931350">
        <ele>1434.067</ele>
        <time>2012-05-16T14:30:16Z</time>
      </trkpt>
      <trkpt lat="2.273050" lon="37.931200">
        <ele>1432.043</ele>
        <time>2012-05-16T14:30:36Z</time>
      </trkpt>
      <trkpt lat="2.272730" lon="37.931120">
        <ele>1430.019</ele>
        <time>2012-05-16T14:30:56Z</time>
      </trkpt>
      <trkpt lat="2.272330" lon="37.930900">
        <ele>1427.099</ele>
        <time>2012-05-16T14:31:16Z</time>
      </trkpt>
      <trkpt lat="2.272240" lon="37.930650">
        <ele>1427.034</ele>
        <time>2012-05-16T14:31:36Z</time>
      </trkpt>
      <trkpt lat="2.272140" lon="37.930580">
        <ele>1427.012</ele>
        <time>2012-05-16T14:31:56Z</time>
      </trkpt>
      <trkpt lat="2.271710" lon="37.930570">
        <ele>1424.015</ele>
        <time>2012-05-16T14:32:16Z</time>
      </trkpt>
      <trkpt lat="2.271340" lon="37.930250">
        <ele>1422.075</ele>
        <time>2012-05-16T14:32:36Z</time>
      </trkpt>
      <trkpt lat="2.270450" lon="37.930020">
        <ele>1420.028</ele>
        <time>2012-05-16T14:32:56Z</time>
      </trkpt>
      <trkpt lat="2.270060" lon="37.929990">
        <ele>1419.020</ele>
        <time>2012-05-16T14:33:16Z</time>
      </trkpt>
      <trkpt lat="2.269290" lon="37.930040">
        <ele>1421.007</ele>
        <time>2012-05-16T14:33:36Z</time>
      </trkpt>
      <trkpt lat="2.269000" lon="37.929970">
        <ele>1422.059</ele>
        <time>2012-05-16T14:33:56Z</time>
      </trkpt>
      <trkpt lat="2.268850" lon="37.930020">
        <ele>1422.095</ele>
        <time>2012-05-16T14:34:16Z</time>
      </trkpt>
      <trkpt lat="2.267670" lon="37.930070">
        <ele>1429.081</ele>
        <time>2012-05-16T14:34:36Z</time>
      </trkpt>
      <trkpt lat="2.267430" lon="37.929910">
        <ele>1433.021</ele>
        <time>2012-05-16T14:34:56Z</time>
      </trkpt>
      <trkpt lat="2.267250" lon="37.929980">
        <ele>1437.086</ele>
        <time>2012-05-16T14:35:16Z</time>
      </trkpt>
      <trkpt lat="2.266850" lon="37.929790">
        <ele>1437.044</ele>
        <time>2012-05-16T14:35:36Z</time>
      </trkpt>
      <trkpt lat="2.266650" lon="37.929330">
        <ele>1434.097</ele>
        <time>2012-05-16T14:35:56Z</time>
      </trkpt>
      <trkpt lat="2.266520" lon="37.929270">
        <ele>1430.044</ele>
        <time>2012-05-16T14:36:16Z</time>
      </trkpt>
      <trkpt lat="2.265690" lon="37.929510">
        <ele>1434.005</ele>
        <time>2012-05-16T14:36:36Z</time>
      </trkpt>
      <trkpt lat="2.265530" lon="37.929740">
        <ele>1436.015</ele>
        <time>2012-05-16T14:36:56Z</time>
      </trkpt>
      <trkpt lat="2.265400" lon="37.930180">
        <ele>1429.007</ele>
        <time>2012-05-16T14:37:16Z</time>
      </trkpt>
      <trkpt lat="2.264920" lon="37.930020">
        <ele>1432.016</ele>
        <time>2012-05-16T14:37:36Z</time>
      </trkpt>
      <trkpt lat="2.263410" lon="37.929720">
        <ele>1412.022</ele>
        <time>2012-05-16T14:37:56Z</time>
      </trkpt>
      <trkpt lat="2.262910" lon="37.929730">
        <ele>1407.048</ele>
        <time>2012-05-16T14:38:16Z</time>
      </trkpt>
      <trkpt lat="2.262560" lon="37.929800">
        <ele>1404.038</ele>
        <time>2012-05-16T14:38:36Z</time>
      </trkpt>
      <trkpt lat="2.261620" lon="37.929770">
        <ele>1391.083</ele>
        <time>2012-05-16T14:38:56Z</time>
      </trkpt>
      <trkpt lat="2.261340" lon="37.929950">
        <ele>1380.071</ele>
        <time>2012-05-16T14:39:16Z</time>
      </trkpt>
      <trkpt lat="2.259700" lon="37.930490">
        <ele>1368.084</ele>
        <time>2012-05-16T14:39:36Z</time>
      </trkpt>
      <trkpt lat="2.259080" lon="37.930860">
        <ele>1367.092</ele>
        <time>2012-05-16T14:39:56Z</time>
      </trkpt>
      <trkpt lat="2.258490" lon="37.931370">
        <ele>1373.073</ele>
        <time>2012-05-16T14:40:16Z</time>
      </trkpt>
      <trkpt lat="2.258200" lon="37.931720">
        <ele>1373.020</ele>
        <time>2012-05-16T14:40:36Z</time>
      </trkpt>
      <trkpt lat="2.257970" lon="37.932120">
        <ele>1367.007</ele>
        <time>2012-05-16T14:40:56Z</time>
      </trkpt>
      <trkpt lat="2.257640" lon="37.933300">
        <ele>1360.051</ele>
        <time>2012-05-16T14:41:16Z</time>
      </trkpt>
      <trkpt lat="2.257700" lon="37.934070">
        <ele>1355.047</ele>
        <time>2012-05-16T14:41:36Z</time>
      </trkpt>
      <trkpt lat="2.257600" lon="37.934610">
        <ele>1351.043</ele>
        <time>2012-05-16T14:41:56Z</time>
      </trkpt>
      <trkpt lat="2.257170" lon="37.935640">
        <ele>1345.053</ele>
        <time>2012-05-16T14:42:16Z</time>
      </trkpt>
      <trkpt lat="2.257060" lon="37.935760">
        <ele>1345.058</ele>
        <time>2012-05-16T14:42:36Z</time>
      </trkpt>
      <trkpt lat="2.256960" lon="37.935790">
        <ele>1345.086</ele>
        <time>2012-05-16T14:42:56Z</time>
      </trkpt>
      <trkpt lat="2.256560" lon="37.935640">
        <ele>1346.029</ele>
        <time>2012-05-16T14:43:16Z</time>
      </trkpt>
      <trkpt lat="2.255470" lon="37.934970">
        <ele>1347.027</ele>
        <time>2012-05-16T14:43:36Z</time>
      </trkpt>
      <trkpt lat="2.254950" lon="37.934790">
        <ele>1345.068</ele>
        <time>2012-05-16T14:43:56Z</time>
      </trkpt>
      <trkpt lat="2.254740" lon="37.934770">
        <ele>1344.014</ele>
        <time>2012-05-16T14:44:16Z</time>
      </trkpt>
      <trkpt lat="2.254010" lon="37.934390">
        <ele>1338.007</ele>
        <time>2012-05-16T14:44:36Z</time>
      </trkpt>
      <trkpt lat="2.253690" lon="37.934290">
        <ele>1336.014</ele>
        <time>2012-05-16T14:44:56Z</time>
      </trkpt>
      <trkpt lat="2.253210" lon="37.934280">
        <ele>1334.060</ele>
        <time>2012-05-16T14:45:16Z</time>
      </trkpt>
      <trkpt lat="2.252660" lon="37.934110">
        <ele>1323.036</ele>
        <time>2012-05-16T14:45:36Z</time>
      </trkpt>
      <trkpt lat="2.251670" lon="37.933740">
        <ele>1306.086</ele>
        <time>2012-05-16T14:45:56Z</time>
      </trkpt>
      <trkpt lat="2.251230" lon="37.933460">
        <ele>1297.041</ele>
        <time>2012-05-16T14:46:16Z</time>
      </trkpt>
      <trkpt lat="2.250600" lon="37.933520">
        <ele>1290.089</ele>
        <time>2012-05-16T14:46:36Z</time>
      </trkpt>
      <trkpt lat="2.249620" lon="37.933380">
        <ele>1283.032</ele>
        <time>2012-05-16T14:46:56Z</time>
      </trkpt>
      <trkpt lat="2.248940" lon="37.933460">
        <ele>1276.053</ele>
        <time>2012-05-16T14:47:16Z</time>
      </trkpt>
      <trkpt lat="2.248330" lon="37.933470">
        <ele>1272.004</ele>
        <time>2012-05-16T14:47:36Z</time>
      </trkpt>
      <trkpt lat="2.247910" lon="37.933280">
        <ele>1267.014</ele>
        <time>2012-05-16T14:47:56Z</time>
      </trkpt>
      <trkpt lat="2.247360" lon="37.933160">
        <ele>1258.007</ele>
        <time>2012-05-16T14:48:16Z</time>
      </trkpt>
      <trkpt lat="2.245800" lon="37.932990">
        <ele>1244.097</ele>
        <time>2012-05-16T14:48:36Z</time>
      </trkpt>
      <trkpt lat="2.244830" lon="37.932780">
        <ele>1235.043</ele>
        <time>2012-05-16T14:48:56Z</time>
      </trkpt>
      <trkpt lat="2.244390" lon="37.932650">
        <ele>1234.039</ele>
        <time>2012-05-16T14:49:16Z</time>
      </trkpt>
      <trkpt lat="2.244170" lon="37.932530">
        <ele>1232.039</ele>
        <time>2012-05-16T14:49:36Z</time>
      </trkpt>
      <trkpt lat="2.243800" lon="37.932180">
        <ele>1228.034</ele>
        <time>2012-05-16T14:49:56Z</time>
      </trkpt>
      <trkpt lat="2.243010" lon="37.931760">
        <ele>1220.022</ele>
        <time>2012-05-16T14:50:16Z</time>
      </trkpt>
      <trkpt lat="2.242210" lon="37.931150">
        <ele>1213.035</ele>
        <time>2012-05-16T14:50:36Z</time>
      </trkpt>
      <trkpt lat="2.241980" lon="37.930840">
        <ele>1210.013</ele>
        <time>2012-05-16T14:50:56Z</time>
      </trkpt>
      <trkpt lat="2.241700" lon="37.930070">
        <ele>1202.043</ele>
        <time>2012-05-16T14:51:16Z</time>
      </trkpt>
      <trkpt lat="2.241510" lon="37.929770">
        <ele>1200.007</ele>
        <time>2012-05-16T14:51:36Z</time>
      </trkpt>
      <trkpt lat="2.241160" lon="37.929620">
        <ele>1199.007</ele>
        <time>2012-05-16T14:51:56Z</time>
      </trkpt>
      <trkpt lat="2.241080" lon="37.929500">
        <ele>1196.083</ele>
        <time>2012-05-16T14:52:16Z</time>
      </trkpt>
      <trkpt lat="2.240770" lon="37.929310">
        <ele>1195.069</ele>
        <time>2012-05-16T14:52:36Z</time>
      </trkpt>
      <trkpt lat="2.240180" lon="37.929270">
        <ele>1189.065</ele>
        <time>2012-05-16T14:52:56Z</time>
      </trkpt>
      <trkpt lat="2.239220" lon="37.929440">
        <ele>1184.025</ele>
        <time>2012-05-16T14:53:16Z</time>
      </trkpt>
      <trkpt lat="2.238990" lon="37.929430">
        <ele>1183.070</ele>
        <time>2012-05-16T14:53:36Z</time>
      </trkpt>
      <trkpt lat="2.238620" lon="37.929280">
        <ele>1176.018</ele>
        <time>2012-05-16T14:53:56Z</time>
      </trkpt>
      <trkpt lat="2.237990" lon="37.928570">
        <ele>1167.071</ele>
        <time>2012-05-16T14:54:16Z</time>
      </trkpt>
      <trkpt lat="2.237160" lon="37.927330">
        <ele>1162.082</ele>
        <time>2012-05-16T14:54:36Z</time>
      </trkpt>
      <trkpt lat="2.236890" lon="37.927090">
        <ele>1161.043</ele>
        <time>2012-05-16T14:54:56Z</time>
      </trkpt>
      <trkpt lat="2.236720" lon="37.927030">
        <ele>1159.017</ele>
        <time>2012-05-16T14:55:16Z</time>
      </trkpt>
      <trkpt lat="2.236210" lon="37.927050">
        <ele>1154.007</ele>
        <time>2012-05-16T14:55:36Z</time>
      </trkpt>
      <trkpt lat="2.235640" lon="37.926850">
        <ele>1148.020</ele>
        <time>2012-05-16T14:55:56Z</time>
      </trkpt>
      <trkpt lat="2.235400" lon="37.926850">
        <ele>1146.016</ele>
        <time>2012-05-16T14:56:16Z</time>
      </trkpt>
      <trkpt lat="2.235250" lon="37.927010">
        <ele>1146.012</ele>
        <time>2012-05-16T14:56:36Z</time>
      </trkpt>
      <trkpt lat="2.234930" lon="37.927830">
        <ele>1143.092</ele>
        <time>2012-05-16T14:56:56Z</time>
      </trkpt>
      <trkpt lat="2.234410" lon="37.928150">
        <ele>1144.057</ele>
        <time>2012-05-16T14:57:16Z</time>
      </trkpt>
      <trkpt lat="2.233670" lon="37.928350">
        <ele>1148.015</ele>
        <time>2012-05-16T14:57:36Z</time>
      </trkpt>
      <trkpt lat="2.233310" lon="37.927970">
        <ele>1152.058</ele>
        <time>2012-05-16T14:57:56Z</time>
      </trkpt>
      <trkpt lat="2.232430" lon="37.927260">
        <ele>1159.055</ele>
        <time>2012-05-16T14:58:16Z</time>
      </trkpt>
      <trkpt lat="2.231670" lon="37.926360">
        <ele>1156.007</ele>
        <time>2012-05-16T14:58:36Z</time>
      </trkpt>
      <trkpt lat="2.231280" lon="37.925230">
        <ele>1156.017</ele>
        <time>2012-05-16T14:58:56Z</time>
      </trkpt>
      <trkpt lat="2.231080" lon="37.924950">
        <ele>1155.007</ele>
        <time>2012-05-16T14:59:16Z</time>
      </trkpt>
      <trkpt lat="2.230950" lon="37.924860">
        <ele>1153.017</ele>
        <time>2012-05-16T14:59:36Z</time>
      </trkpt>
      <trkpt lat="2.230140" lon="37.924760">
        <ele>1152.073</ele>
        <time>2012-05-16T14:59:56Z</time>
      </trkpt>
      <trkpt lat="2.229090" lon="37.924180">
        <ele>1157.089</ele>
        <time>2012-05-16T15:00:16Z</time>
      </trkpt>
      <trkpt lat="2.228400" lon="37.923390">
        <ele>1157.059</ele>
        <time>2012-05-16T15:00:36Z</time>
      </trkpt>
      <trkpt lat="2.226850" lon="37.922290">
        <ele>1135.014</ele>
        <time>2012-05-16T15:00:56Z</time>
      </trkpt>
      <trkpt lat="2.225900" lon="37.921330">
        <ele>1120.042</ele>
        <time>2012-05-16T15:01:16Z</time>
      </trkpt>
      <trkpt lat="2.225080" lon="37.920810">
        <ele>1117.055</ele>
        <time>2012-05-16T15:01:36Z</time>
      </trkpt>
      <trkpt lat="2.224370" lon="37.920670">
        <ele>1115.013</ele>
        <time>2012-05-16T15:01:56Z</time>
      </trkpt>
      <trkpt lat="2.222910" lon="37.920520">
        <ele>1110.043</ele>
        <time>2012-05-16T15:02:16Z</time>
      </trkpt>
      <trkpt lat="2.222220" lon="37.920200">
        <ele>1106.007</ele>
        <time>2012-05-16T15:02:36Z</time>
      </trkpt>
      <trkpt lat="2.221240" lon="37.919850">
        <ele>1101.007</ele>
        <time>2012-05-16T15:02:56Z</time>
      </trkpt>
      <trkpt lat="2.219860" lon="37.919110">
        <ele>1101.053</ele>
        <time>2012-05-16T15:03:16Z</time>
      </trkpt>
      <trkpt lat="2.217750" lon="37.918490">
        <ele>1088.019</ele>
        <time>2012-05-16T15:03:36Z</time>
      </trkpt>
      <trkpt lat="2.217020" lon="37.918450">
        <ele>1085.055</ele>
        <time>2012-05-16T15:03:56Z</time>
      </trkpt>
      <trkpt lat="2.217130" lon="37.918140">
        <ele>1084.065</ele>
        <time>2012-05-16T15:04:16Z</time>
      </trkpt>
      <trkpt lat="2.217120" lon="37.917800">
        <ele>1084.090</ele>
        <time>2012-05-16T15:04:36Z</time>
      </trkpt>
      <trkpt lat="2.217000" lon="37.917200">
        <ele>1082.028</ele>
        <time>2012-05-16T15:04:56Z</time>
      </trkpt>
      <trkpt lat="2.217030" lon="37.916980">
        <ele>1081.051</ele>
        <time>2012-05-16T15:05:16Z</time>
      </trkpt>
      <trkpt lat="2.217250" lon="37.916300">
        <ele>1082.084</ele>
        <time>2012-05-16T15:05:36Z</time>
      </trkpt>
      <trkpt lat="2.217380" lon="37.915670">
        <ele>1085.007</ele>
        <time>2012-05-16T15:05:56Z</time>
      </trkpt>
      <trkpt lat="2.218240" lon="37.913750">
        <ele>1093.017</ele>
        <time>2012-05-16T15:06:16Z</time>
      </trkpt>
      <trkpt lat="2.218460" lon="37.912950">
        <ele>1091.007</ele>
        <time>2012-05-16T15:06:36Z</time>
      </trkpt>
      <trkpt lat="2.219120" lon="37.912050">
        <ele>1077.060</ele>
        <time>2012-05-16T15:06:56Z</time>
      </trkpt>
      <trkpt lat="2.219500" lon="37.911890">
        <ele>1079.036</ele>
        <time>2012-05-16T15:07:16Z</time>
      </trkpt>
      <trkpt lat="2.220100" lon="37.911460">
        <ele>1081.012</ele>
        <time>2012-05-16T15:07:36Z</time>
      </trkpt>
      <trkpt lat="2.220210" lon="37.910990">
        <ele>1083.042</ele>
        <time>2012-05-16T15:07:56Z</time>
      </trkpt>
      <trkpt lat="2.220280" lon="37.910880">
        <ele>1084.087</ele>
        <time>2012-05-16T15:08:16Z</time>
      </trkpt>
      <trkpt lat="2.220650" lon="37.910570">
        <ele>1086.065</ele>
        <time>2012-05-16T15:08:36Z</time>
      </trkpt>
      <trkpt lat="2.220950" lon="37.910170">
        <ele>1089.038</ele>
        <time>2012-05-16T15:08:56Z</time>
      </trkpt>
      <trkpt lat="2.221200" lon="37.909690">
        <ele>1092.052</ele>
        <time>2012-05-16T15:09:16Z</time>
      </trkpt>
      <trkpt lat="2.221330" lon="37.909000">
        <ele>1098.053</ele>
        <time>2012-05-16T15:09:36Z</time>
      </trkpt>
      <trkpt lat="2.221370" lon="37.908480">
        <ele>1101.008</ele>
        <time>2012-05-16T15:09:56Z</time>
      </trkpt>
      <trkpt lat="2.221350" lon="37.908310">
        <ele>1105.007</ele>
        <time>2012-05-16T15:10:16Z</time>
      </trkpt>
      <trkpt lat="2.221180" lon="37.908030">
        <ele>1108.067</ele>
        <time>2012-05-16T15:10:36Z</time>
      </trkpt>
      <trkpt lat="2.220890" lon="37.907790">
        <ele>1111.063</ele>
        <time>2012-05-16T15:10:56Z</time>
      </trkpt>
      <trkpt lat="2.220800" lon="37.907640">
        <ele>1111.049</ele>
        <time>2012-05-16T15:11:16Z</time>
      </trkpt>
      <trkpt lat="2.220220" lon="37.905300">
        <ele>1118.089</ele>
        <time>2012-05-16T15:11:36Z</time>
      </trkpt>
      <trkpt lat="2.220020" lon="37.904880">
        <ele>1115.094</ele>
        <time>2012-05-16T15:11:56Z</time>
      </trkpt>
      <trkpt lat="2.219720" lon="37.903860">
        <ele>1108.012</ele>
        <time>2012-05-16T15:12:16Z</time>
      </trkpt>
      <trkpt lat="2.219390" lon="37.903600">
        <ele>1108.025</ele>
        <time>2012-05-16T15:12:36Z</time>
      </trkpt>
      <trkpt lat="2.218960" lon="37.903460">
        <ele>1108.078</ele>
        <time>2012-05-16T15:12:56Z</time>
      </trkpt>
      <trkpt lat="2.218280" lon="37.902990">
        <ele>1108.033</ele>
        <time>2012-05-16T15:13:16Z</time>
      </trkpt>
      <trkpt lat="2.217870" lon="37.902590">
        <ele>1110.026</ele>
        <time>2012-05-16T15:13:36Z</time>
      </trkpt>
      <trkpt lat="2.217430" lon="37.901970">
        <ele>1108.007</ele>
        <time>2012-05-16T15:13:56Z</time>
      </trkpt>
      <trkpt lat="2.216070" lon="37.899510">
        <ele>1090.099</ele>
        <time>2012-05-16T15:14:16Z</time>
      </trkpt>
      <trkpt lat="2.215090" lon="37.897900">
        <ele>1083.015</ele>
        <time>2012-05-16T15:14:36Z</time>
      </trkpt>
      <trkpt lat="2.214670" lon="37.897000">
        <ele>1081.031</ele>
        <time>2012-05-16T15:14:56Z</time>
      </trkpt>
      <trkpt lat="2.214070" lon="37.895970">
        <ele>1076.011</ele>
        <time>2012-05-16T15:15:16Z</time>
      </trkpt>
      <trkpt lat="2.213980" lon="37.895720">
        <ele>1074.096</ele>
        <time>2012-05-16T15:15:36Z</time>
      </trkpt>
      <trkpt lat="2.213970" lon="37.895480">
        <ele>1075.064</ele>
        <time>2012-05-16T15:15:56Z</time>
      </trkpt>
      <trkpt lat="2.214310" lon="37.894230">
        <ele>1075.087</ele>
        <time>2012-05-16T15:16:16Z</time>
      </trkpt>
      <trkpt lat="2.211170" lon="37.893650">
        <ele>1065.028</ele>
        <time>2012-05-16T15:16:36Z</time>
      </trkpt>
      <trkpt lat="2.211380" lon="37.892660">
        <ele>1067.089</ele>
        <time>2012-05-16T15:16:56Z</time>
      </trkpt>
      <trkpt lat="2.211690" lon="37.891800">
        <ele>1066.017</ele>
        <time>2012-05-16T15:17:16Z</time>
      </trkpt>
      <trkpt lat="2.210610" lon="37.891580">
        <ele>1065.007</ele>
        <time>2012-05-16T15:17:36Z</time>
      </trkpt>
      <trkpt lat="2.210310" lon="37.891400">
        <ele>1063.094</ele>
        <time>2012-05-16T15:17:56Z</time>
      </trkpt>
      <trkpt lat="2.209610" lon="37.891320">
        <ele>1062.040</ele>
        <time>2012-05-16T15:18:16Z</time>
      </trkpt>
      <trkpt lat="2.208090" lon="37.891430">
        <ele>1063.066</ele>
        <time>2012-05-16T15:18:36Z</time>
      </trkpt>
      <trkpt lat="2.207570" lon="37.891400">
        <ele>1060.076</ele>
        <time>2012-05-16T15:18:56Z</time>
      </trkpt>
      <trkpt lat="2.207190" lon="37.891050">
        <ele>1061.051</ele>
        <time>2012-05-16T15:19:16Z</time>
      </trkpt>
      <trkpt lat="2.206580" lon="37.890750">
        <ele>1063.099</ele>
        <time>2012-05-16T15:19:36Z</time>
      </trkpt>
      <trkpt lat="2.206240" lon="37.890420">
        <ele>1063.032</ele>
        <time>2012-05-16T15:19:56Z</time>
      </trkpt>
      <trkpt lat="2.205390" lon="37.890080">
        <ele>1063.089</ele>
        <time>2012-05-16T15:20:16Z</time>
      </trkpt>
      <trkpt lat="2.205450" lon="37.889690">
        <ele>1062.006</ele>
        <time>2012-05-16T15:20:36Z</time>
      </trkpt>
      <trkpt lat="2.205410" lon="37.889180">
        <ele>1061.026</ele>
        <time>2012-05-16T15:20:56Z</time>
      </trkpt>
      <trkpt lat="2.204930" lon="37.888090">
        <ele>1057.007</ele>
        <time>2012-05-16T15:21:16Z</time>
      </trkpt>
      <trkpt lat="2.203190" lon="37.886030">
        <ele>1058.060</ele>
        <time>2012-05-16T15:21:36Z</time>
      </trkpt>
      <trkpt lat="2.202730" lon="37.885320">
        <ele>1057.016</ele>
        <time>2012-05-16T15:21:56Z</time>
      </trkpt>
      <trkpt lat="2.201310" lon="37.884330">
        <ele>1058.042</ele>
        <time>2012-05-16T15:22:16Z</time>
      </trkpt>
      <trkpt lat="2.200230" lon="37.883260">
        <ele>1059.072</ele>
        <time>2012-05-16T15:22:36Z</time>
      </trkpt>
      <trkpt lat="2.199320" lon="37.882130">
        <ele>1054.097</ele>
        <time>2012-05-16T15:22:56Z</time>
      </trkpt>
      <trkpt lat="2.198670" lon="37.881660">
        <ele>1053.095</ele>
        <time>2012-05-16T15:23:16Z</time>
      </trkpt>
      <trkpt lat="2.198420" lon="37.881340">
        <ele>1050.028</ele>
        <time>2012-05-16T15:23:36Z</time>
      </trkpt>
      <trkpt lat="2.198090" lon="37.880730">
        <ele>1048.055</ele>
        <time>2012-05-16T15:23:56Z</time>
      </trkpt>
      <trkpt lat="2.198060" lon="37.880560">
        <ele>1048.007</ele>
        <time>2012-05-16T15:24:16Z</time>
      </trkpt>
      <trkpt lat="2.194000" lon="37.878850">
        <ele>1038.017</ele>
        <time>2012-05-16T15:24:36Z</time>
      </trkpt>
      <trkpt lat="2.181380" lon="37.873690">
        <ele>1017.007</ele>
        <time>2012-05-16T15:24:56Z</time>
      </trkpt>
      <trkpt lat="2.181030" lon="37.873590">
        <ele>1018.017</ele>
        <time>2012-05-16T15:25:16Z</time>
      </trkpt>
      <trkpt lat="2.180000" lon="37.873430">
        <ele>1009.063</ele>
        <time>2012-05-16T15:25:36Z</time>
      </trkpt>
      <trkpt lat="2.172640" lon="37.874130">
        <ele>1002.029</ele>
        <time>2012-05-16T15:25:56Z</time>
      </trkpt>
      <trkpt lat="2.170620" lon="37.874100">
        <ele>1001.069</ele>
        <time>2012-05-16T15:26:16Z</time>
      </trkpt>
      <trkpt lat="2.165640" lon="37.873870">
        <ele>957.054</ele>
        <time>2012-05-16T15:26:36Z</time>
      </trkpt>
      <trkpt lat="2.165120" lon="37.873860">
        <ele>957.072</ele>
        <time>2012-05-16T15:26:56Z</time>
      </trkpt>
      <trkpt lat="2.164530" lon="37.873930">
        <ele>956.015</ele>
        <time>2012-05-16T15:27:16Z</time>
      </trkpt>
      <trkpt lat="2.160040" lon="37.875080">
        <ele>943.066</ele>
        <time>2012-05-16T15:27:36Z</time>
      </trkpt>
      <trkpt lat="2.155240" lon="37.876440">
        <ele>940.029</ele>
        <time>2012-05-16T15:27:56Z</time>
      </trkpt>
      <trkpt lat="2.149070" lon="37.879310">
        <ele>925.021</ele>
        <time>2012-05-16T15:28:16Z</time>
      </trkpt>
      <trkpt lat="2.147840" lon="37.879740">
        <ele>918.007</ele>
        <time>2012-05-16T15:28:36Z</time>
      </trkpt>
      <trkpt lat="2.129850" lon="37.883900">
        <ele>838.058</ele>
        <time>2012-05-16T15:28:56Z</time>
      </trkpt>
      <trkpt lat="2.129220" lon="37.884160">
        <ele>839.054</ele>
        <time>2012-05-16T15:29:16Z</time>
      </trkpt>
      <trkpt lat="2.128620" lon="37.884590">
        <ele>840.010</ele>
        <time>2012-05-16T15:29:36Z</time>
      </trkpt>
      <trkpt lat="2.128110" lon="37.885100">
        <ele>831.080</ele>
        <time>2012-05-16T15:29:56Z</time>
      </trkpt>
      <trkpt lat="2.127760" lon="37.885340">
        <ele>829.055</ele>
        <time>2012-05-16T15:30:16Z</time>
      </trkpt>
      <trkpt lat="2.126980" lon="37.885700">
        <ele>825.013</ele>
        <time>2012-05-16T15:30:36Z</time>
      </trkpt>
      <trkpt lat="2.126100" lon="37.885840">
        <ele>820.056</ele>
        <time>2012-05-16T15:30:56Z</time>
      </trkpt>
      <trkpt lat="2.125360" lon="37.885770">
        <ele>815.041</ele>
        <time>2012-05-16T15:31:16Z</time>
      </trkpt>
      <trkpt lat="2.122950" lon="37.884980">
        <ele>813.081</ele>
        <time>2012-05-16T15:31:36Z</time>
      </trkpt>
      <trkpt lat="2.122320" lon="37.884820">
        <ele>799.009</ele>
        <time>2012-05-16T15:31:56Z</time>
      </trkpt>
      <trkpt lat="2.121920" lon="37.884730">
        <ele>792.007</ele>
        <time>2012-05-16T15:32:16Z</time>
      </trkpt>
      <trkpt lat="2.121400" lon="37.884730">
        <ele>783.026</ele>
        <time>2012-05-16T15:32:36Z</time>
      </trkpt>
      <trkpt lat="2.121020" lon="37.884790">
        <ele>782.062</ele>
        <time>2012-05-16T15:32:56Z</time>
      </trkpt>
      <trkpt lat="2.119670" lon="37.885190">
        <ele>780.078</ele>
        <time>2012-05-16T15:33:16Z</time>
      </trkpt>
      <trkpt lat="2.118080" lon="37.885740">
        <ele>799.078</ele>
        <time>2012-05-16T15:33:36Z</time>
      </trkpt>
      <trkpt lat="2.104560" lon="37.889910">
        <ele>800.043</ele>
        <time>2012-05-16T15:33:56Z</time>
      </trkpt>
      <trkpt lat="2.097730" lon="37.892100">
        <ele>788.011</ele>
        <time>2012-05-16T15:34:16Z</time>
      </trkpt>
      <trkpt lat="2.091550" lon="37.893780">
        <ele>772.034</ele>
        <time>2012-05-16T15:34:36Z</time>
      </trkpt>
      <trkpt lat="2.088990" lon="37.894400">
        <ele>762.015</ele>
        <time>2012-05-16T15:34:56Z</time>
      </trkpt>
      <trkpt lat="2.084930" lon="37.894980">
        <ele>749.065</ele>
        <time>2012-05-16T15:35:16Z</time>
      </trkpt>
      <trkpt lat="2.082890" lon="37.895210">
        <ele>733.011</ele>
        <time>2012-05-16T15:35:36Z</time>
      </trkpt>
      <trkpt lat="2.082230" lon="37.895240">
        <ele>740.007</ele>
        <time>2012-05-16T15:35:56Z</time>
      </trkpt>
      <trkpt lat="2.075950" lon="37.895100">
        <ele>724.063</ele>
        <time>2012-05-16T15:36:16Z</time>
      </trkpt>
      <trkpt lat="2.075410" lon="37.895130">
        <ele>717.029</ele>
        <time>2012-05-16T15:36:36Z</time>
      </trkpt>
      <trkpt lat="2.074740" lon="37.895270">
        <ele>713.085</ele>
        <time>2012-05-16T15:36:56Z</time>
      </trkpt>
      <trkpt lat="2.074120" lon="37.895460">
        <ele>715.035</ele>
        <time>2012-05-16T15:37:16Z</time>
      </trkpt>
      <trkpt lat="2.073100" lon="37.895980">
        <ele>716.040</ele>
        <time>2012-05-16T15:37:36Z</time>
      </trkpt>
      <trkpt lat="2.072380" lon="37.896590">
        <ele>714.088</ele>
        <time>2012-05-16T15:37:56Z</time>
      </trkpt>
      <trkpt lat="2.070810" lon="37.898190">
        <ele>705.091</ele>
        <time>2012-05-16T15:38:16Z</time>
      </trkpt>
      <trkpt lat="2.070280" lon="37.898590">
        <ele>705.094</ele>
        <time>2012-05-16T15:38:36Z</time>
      </trkpt>
      <trkpt lat="2.069550" lon="37.899000">
        <ele>705.057</ele>
        <time>2012-05-16T15:38:56Z</time>
      </trkpt>
      <trkpt lat="2.064640" lon="37.900680">
        <ele>692.022</ele>
        <time>2012-05-16T15:39:16Z</time>
      </trkpt>
      <trkpt lat="2.061400" lon="37.901850">
        <ele>690.007</ele>
        <time>2012-05-16T15:39:36Z</time>
      </trkpt>
      <trkpt lat="2.060720" lon="37.902120">
        <ele>685.061</ele>
        <time>2012-05-16T15:39:56Z</time>
      </trkpt>
      <trkpt lat="2.060080" lon="37.902480">
        <ele>679.077</ele>
        <time>2012-05-16T15:40:16Z</time>
      </trkpt>
      <trkpt lat="2.059710" lon="37.902740">
        <ele>676.063</ele>
        <time>2012-05-16T15:40:36Z</time>
      </trkpt>
      <trkpt lat="2.058720" lon="37.903680">
        <ele>669.053</ele>
        <time>2012-05-16T15:40:56Z</time>
      </trkpt>
      <trkpt lat="2.058080" lon="37.904480">
        <ele>666.028</ele>
        <time>2012-05-16T15:41:16Z</time>
      </trkpt>
      <trkpt lat="2.057020" lon="37.905630">
        <ele>663.076</ele>
        <time>2012-05-16T15:41:36Z</time>
      </trkpt>
      <trkpt lat="2.055930" lon="37.906600">
        <ele>658.019</ele>
        <time>2012-05-16T15:41:56Z</time>
      </trkpt>
      <trkpt lat="2.055470" lon="37.906930">
        <ele>656.079</ele>
        <time>2012-05-16T15:42:16Z</time>
      </trkpt>
      <trkpt lat="2.054350" lon="37.907520">
        <ele>649.005</ele>
        <time>2012-05-16T15:42:36Z</time>
      </trkpt>
      <trkpt lat="2.044790" lon="37.912030">
        <ele>625.025</ele>
        <time>2012-05-16T15:42:56Z</time>
      </trkpt>
      <trkpt lat="2.042430" lon="37.913190">
        <ele>613.007</ele>
        <time>2012-05-16T15:43:16Z</time>
      </trkpt>
      <trkpt lat="2.040880" lon="37.913820">
        <ele>585.079</ele>
        <time>2012-05-16T15:43:36Z</time>
      </trkpt>
      <trkpt lat="2.040270" lon="37.913980">
        <ele>583.015</ele>
        <time>2012-05-16T15:43:56Z</time>
      </trkpt>
      <trkpt lat="2.032080" lon="37.914890">
        <ele>571.061</ele>
        <time>2012-05-16T15:44:16Z</time>
      </trkpt>
      <trkpt lat="2.026520" lon="37.915430">
        <ele>554.021</ele>
        <time>2012-05-16T15:44:36Z</time>
      </trkpt>
      <trkpt lat="2.025900" lon="37.915540">
        <ele>555.056</ele>
        <time>2012-05-16T15:44:56Z</time>
      </trkpt>
      <trkpt lat="2.021940" lon="37.915960">
        <ele>532.034</ele>
        <time>2012-05-16T15:45:16Z</time>
      </trkpt>
      <trkpt lat="2.019260" lon="37.916190">
        <ele>539.067</ele>
        <time>2012-05-16T15:45:36Z</time>
      </trkpt>
      <trkpt lat="2.018340" lon="37.916120">
        <ele>538.065</ele>
        <time>2012-05-16T15:45:56Z</time>
      </trkpt>
      <trkpt lat="2.017720" lon="37.915990">
        <ele>530.068</ele>
        <time>2012-05-16T15:46:16Z</time>
      </trkpt>
      <trkpt lat="2.017110" lon="37.915780">
        <ele>529.014</ele>
        <time>2012-05-16T15:46:36Z</time>
      </trkpt>
      <trkpt lat="2.016600" lon="37.915560">
        <ele>529.007</ele>
        <time>2012-05-16T15:46:56Z</time>
      </trkpt>
      <trkpt lat="2.012600" lon="37.913410">
        <ele>511.058</ele>
        <time>2012-05-16T15:47:16Z</time>
      </trkpt>
      <trkpt lat="2.011930" lon="37.913170">
        <ele>510.054</ele>
        <time>2012-05-16T15:47:36Z</time>
      </trkpt>
      <trkpt lat="2.010910" lon="37.912950">
        <ele>512.040</ele>
        <time>2012-05-16T15:47:56Z</time>
      </trkpt>
      <trkpt lat="2.010060" lon="37.912950">
        <ele>507.090</ele>
        <time>2012-05-16T15:48:16Z</time>
      </trkpt>
      <trkpt lat="2.001600" lon="37.913930">
        <ele>494.025</ele>
        <time>2012-05-16T15:48:36Z</time>
      </trkpt>
      <trkpt lat="2.000590" lon="37.913930">
        <ele>471.013</ele>
        <time>2012-05-16T15:48:56Z</time>
      </trkpt>
      <trkpt lat="1.997580" lon="37.913490">
        <ele>469.036</ele>
        <time>2012-05-16T15:49:16Z</time>
      </trkpt>
      <trkpt lat="1.996060" lon="37.913350">
        <ele>456.051</ele>
        <time>2012-05-16T15:49:36Z</time>
      </trkpt>
      <trkpt lat="1.995600" lon="37.913390">
        <ele>462.001</ele>
        <time>2012-05-16T15:49:56Z</time>
      </trkpt>
      <trkpt lat="1.994280" lon="37.913640">
        <ele>469.011</ele>
        <time>2012-05-16T15:50:16Z</time>
      </trkpt>
      <trkpt lat="1.993660" lon="37.913960">
        <ele>468.007</ele>
        <time>2012-05-16T15:50:36Z</time>
      </trkpt>
      <trkpt lat="1.993190" lon="37.914270">
        <ele>467.057</ele>
        <time>2012-05-16T15:50:56Z</time>
      </trkpt>
      <trkpt lat="1.991660" lon="37.915370">
        <ele>469.093</ele>
        <time>2012-05-16T15:51:16Z</time>
      </trkpt>
      <trkpt lat="1.990640" lon="37.915850">
        <ele>466.019</ele>
        <time>2012-05-16T15:51:36Z</time>
      </trkpt>
      <trkpt lat="1.989630" lon="37.916110">
        <ele>464.079</ele>
        <time>2012-05-16T15:51:56Z</time>
      </trkpt>
      <trkpt lat="1.988680" lon="37.916180">
        <ele>460.044</ele>
        <time>2012-05-16T15:52:16Z</time>
      </trkpt>
      <trkpt lat="1.988130" lon="37.916140">
        <ele>459.082</ele>
        <time>2012-05-16T15:52:36Z</time>
      </trkpt>
      <trkpt lat="1.987120" lon="37.915900">
        <ele>454.015</ele>
        <time>2012-05-16T15:52:56Z</time>
      </trkpt>
      <trkpt lat="1.974610" lon="37.911060">
        <ele>427.024</ele>
        <time>2012-05-16T15:53:16Z</time>
      </trkpt>
      <trkpt lat="1.973550" lon="37.910730">
        <ele>443.004</ele>
        <time>2012-05-16T15:53:36Z</time>
      </trkpt>
      <trkpt lat="1.972050" lon="37.910450">
        <ele>450.014</ele>
        <time>2012-05-16T15:53:56Z</time>
      </trkpt>
      <trkpt lat="1.966310" lon="37.909820">
        <ele>445.007</ele>
        <time>2012-05-16T15:54:16Z</time>
      </trkpt>
      <trkpt lat="1.963940" lon="37.909480">
        <ele>446.074</ele>
        <time>2012-05-16T15:54:36Z</time>
      </trkpt>
      <trkpt lat="1.961470" lon="37.908890">
        <ele>442.080</ele>
        <time>2012-05-16T15:54:56Z</time>
      </trkpt>
      <trkpt lat="1.951020" lon="37.906250">
        <ele>443.086</ele>
        <time>2012-05-16T15:55:16Z</time>
      </trkpt>
      <trkpt lat="1.942160" lon="37.903450">
        <ele>442.086</ele>
        <time>2012-05-16T15:55:36Z</time>
      </trkpt>
      <trkpt lat="1.927470" lon="37.899490">
        <ele>445.031</ele>
        <time>2012-05-16T15:55:56Z</time>
      </trkpt>
      <trkpt lat="1.926900" lon="37.899390">
        <ele>442.059</ele>
        <time>2012-05-16T15:56:16Z</time>
      </trkpt>
      <trkpt lat="1.925530" lon="37.899260">
        <ele>441.062</ele>
        <time>2012-05-16T15:56:36Z</time>
      </trkpt>
      <trkpt lat="1.911900" lon="37.898820">
        <ele>448.084</ele>
        <time>2012-05-16T15:56:56Z</time>
      </trkpt>
      <trkpt lat="1.910700" lon="37.898740">
        <ele>449.007</ele>
        <time>2012-05-16T15:57:16Z</time>
      </trkpt>
      <trkpt lat="1.909900" lon="37.898600">
        <ele>446.017</ele>
        <time>2012-05-16T15:57:36Z</time>
      </trkpt>
      <trkpt lat="1.908810" lon="37.898260">
        <ele>446.007</ele>
        <time>2012-05-16T15:57:56Z</time>
      </trkpt>
      <trkpt lat="1.901510" lon="37.895670">
        <ele>446.010</ele>
        <time>2012-05-16T15:58:16Z</time>
      </trkpt>
      <trkpt lat="1.900380" lon="37.895120">
        <ele>442.026</ele>
        <time>2012-05-16T15:58:36Z</time>
      </trkpt>
      <trkpt lat="1.898760" lon="37.894190">
        <ele>441.062</ele>
        <time>2012-05-16T15:58:56Z</time>
      </trkpt>
      <trkpt lat="1.893120" lon="37.890680">
        <ele>448.092</ele>
        <time>2012-05-16T15:59:16Z</time>
      </trkpt>
      <trkpt lat="1.890490" lon="37.889120">
        <ele>446.087</ele>
        <time>2012-05-16T15:59:36Z</time>
      </trkpt>
      <trkpt lat="1.889780" lon="37.888860">
        <ele>448.035</ele>
        <time>2012-05-16T15:59:56Z</time>
      </trkpt>
      <trkpt lat="1.888590" lon="37.888640">
        <ele>451.088</ele>
        <time>2012-05-16T16:00:16Z</time>
      </trkpt>
      <trkpt lat="1.886750" lon="37.888560">
        <ele>451.066</ele>
        <time>2012-05-16T16:00:36Z</time>
      </trkpt>
      <trkpt lat="1.884960" lon="37.888550">
        <ele>455.029</ele>
        <time>2012-05-16T16:00:56Z</time>
      </trkpt>
      <trkpt lat="1.884050" lon="37.888430">
        <ele>449.021</ele>
        <time>2012-05-16T16:01:16Z</time>
      </trkpt>
      <trkpt lat="1.883580" lon="37.888320">
        <ele>449.007</ele>
        <time>2012-05-16T16:01:36Z</time>
      </trkpt>
      <trkpt lat="1.882750" lon="37.888030">
        <ele>447.038</ele>
        <time>2012-05-16T16:01:56Z</time>
      </trkpt>
      <trkpt lat="1.882280" lon="37.887760">
        <ele>450.074</ele>
        <time>2012-05-16T16:02:16Z</time>
      </trkpt>
      <trkpt lat="1.881660" lon="37.887340">
        <ele>449.060</ele>
        <time>2012-05-16T16:02:36Z</time>
      </trkpt>
      <trkpt lat="1.881120" lon="37.886860">
        <ele>451.030</ele>
        <time>2012-05-16T16:02:56Z</time>
      </trkpt>
      <trkpt lat="1.877320" lon="37.882750">
        <ele>450.085</ele>
        <time>2012-05-16T16:03:16Z</time>
      </trkpt>
      <trkpt lat="1.874800" lon="37.880610">
        <ele>455.033</ele>
        <time>2012-05-16T16:03:36Z</time>
      </trkpt>
      <trkpt lat="1.870420" lon="37.877040">
        <ele>452.026</ele>
        <time>2012-05-16T16:03:56Z</time>
      </trkpt>
      <trkpt lat="1.869420" lon="37.876430">
        <ele>452.078</ele>
        <time>2012-05-16T16:04:16Z</time>
      </trkpt>
      <trkpt lat="1.868570" lon="37.876100">
        <ele>456.033</ele>
        <time>2012-05-16T16:04:36Z</time>
      </trkpt>
      <trkpt lat="1.867960" lon="37.875960">
        <ele>461.026</ele>
        <time>2012-05-16T16:04:56Z</time>
      </trkpt>
      <trkpt lat="1.867260" lon="37.875880">
        <ele>469.007</ele>
        <time>2012-05-16T16:05:16Z</time>
      </trkpt>
      <trkpt lat="1.866660" lon="37.875890">
        <ele>470.059</ele>
        <time>2012-05-16T16:05:36Z</time>
      </trkpt>
      <trkpt lat="1.861970" lon="37.876800">
        <ele>469.075</ele>
        <time>2012-05-16T16:05:56Z</time>
      </trkpt>
      <trkpt lat="1.861020" lon="37.876800">
        <ele>472.091</ele>
        <time>2012-05-16T16:06:16Z</time>
      </trkpt>
      <trkpt lat="1.860400" lon="37.876740">
        <ele>473.071</ele>
        <time>2012-05-16T16:06:36Z</time>
      </trkpt>
      <trkpt lat="1.859250" lon="37.876400">
        <ele>458.046</ele>
        <time>2012-05-16T16:06:56Z</time>
      </trkpt>
      <trkpt lat="1.851740" lon="37.873340">
        <ele>459.024</ele>
        <time>2012-05-16T16:07:16Z</time>
      </trkpt>
      <trkpt lat="1.850990" lon="37.872960">
        <ele>456.057</ele>
        <time>2012-05-16T16:07:36Z</time>
      </trkpt>
      <trkpt lat="1.850290" lon="37.872460">
        <ele>454.013</ele>
        <time>2012-05-16T16:07:56Z</time>
      </trkpt>
      <trkpt lat="1.849480" lon="37.871660">
        <ele>456.043</ele>
        <time>2012-05-16T16:08:16Z</time>
      </trkpt>
      <trkpt lat="1.843150" lon="37.863490">
        <ele>461.007</ele>
        <time>2012-05-16T16:08:36Z</time>
      </trkpt>
      <trkpt lat="1.842470" lon="37.862710">
        <ele>458.007</ele>
        <time>2012-05-16T16:08:56Z</time>
      </trkpt>
      <trkpt lat="1.842070" lon="37.862350">
        <ele>456.063</ele>
        <time>2012-05-16T16:09:16Z</time>
      </trkpt>
      <trkpt lat="1.841280" lon="37.861860">
        <ele>458.069</ele>
        <time>2012-05-16T16:09:36Z</time>
      </trkpt>
      <trkpt lat="1.840420" lon="37.861490">
        <ele>463.085</ele>
        <time>2012-05-16T16:09:56Z</time>
      </trkpt>
      <trkpt lat="1.839830" lon="37.861330">
        <ele>468.085</ele>
        <time>2012-05-16T16:10:16Z</time>
      </trkpt>
      <trkpt lat="1.836570" lon="37.860880">
        <ele>466.080</ele>
        <time>2012-05-16T16:10:36Z</time>
      </trkpt>
      <trkpt lat="1.834130" lon="37.860620">
        <ele>467.058</ele>
        <time>2012-05-16T16:10:56Z</time>
      </trkpt>
      <trkpt lat="1.830260" lon="37.860070">
        <ele>468.031</ele>
        <time>2012-05-16T16:11:16Z</time>
      </trkpt>
      <trkpt lat="1.828590" lon="37.859970">
        <ele>469.015</ele>
        <time>2012-05-16T16:11:36Z</time>
      </trkpt>
      <trkpt lat="1.820450" lon="37.858940">
        <ele>477.065</ele>
        <time>2012-05-16T16:11:56Z</time>
      </trkpt>
      <trkpt lat="1.775930" lon="37.853660">
        <ele>500.011</ele>
        <time>2012-05-16T16:12:16Z</time>
      </trkpt>
      <trkpt lat="1.772570" lon="37.853250">
        <ele>498.007</ele>
        <time>2012-05-16T16:12:36Z</time>
      </trkpt>
      <trkpt lat="1.771750" lon="37.853060">
        <ele>497.073</ele>
        <time>2012-05-16T16:12:56Z</time>
      </trkpt>
      <trkpt lat="1.769400" lon="37.852090">
        <ele>500.079</ele>
        <time>2012-05-16T16:13:16Z</time>
      </trkpt>
      <trkpt lat="1.762950" lon="37.849220">
        <ele>496.075</ele>
        <time>2012-05-16T16:13:36Z</time>
      </trkpt>
      <trkpt lat="1.752070" lon="37.844290">
        <ele>497.085</ele>
        <time>2012-05-16T16:13:56Z</time>
      </trkpt>
      <trkpt lat="1.747690" lon="37.842360">
        <ele>493.020</ele>
        <time>2012-05-16T16:14:16Z</time>
      </trkpt>
      <trkpt lat="1.738730" lon="37.838270">
        <ele>514.038</ele>
        <time>2012-05-16T16:14:36Z</time>
      </trkpt>
      <trkpt lat="1.737810" lon="37.837910">
        <ele>515.081</ele>
        <time>2012-05-16T16:14:56Z</time>
      </trkpt>
      <trkpt lat="1.736910" lon="37.837690">
        <ele>516.087</ele>
        <time>2012-05-16T16:15:16Z</time>
      </trkpt>
      <trkpt lat="1.734400" lon="37.837330">
        <ele>526.042</ele>
        <time>2012-05-16T16:15:36Z</time>
      </trkpt>
      <trkpt lat="1.731850" lon="37.837040">
        <ele>532.026</ele>
        <time>2012-05-16T16:15:56Z</time>
      </trkpt>
      <trkpt lat="1.731390" lon="37.837050">
        <ele>535.007</ele>
        <time>2012-05-16T16:16:16Z</time>
      </trkpt>
      <trkpt lat="1.730560" lon="37.836950">
        <ele>538.030</ele>
        <time>2012-05-16T16:16:36Z</time>
      </trkpt>
      <trkpt lat="1.729000" lon="37.836620">
        <ele>533.026</ele>
        <time>2012-05-16T16:16:56Z</time>
      </trkpt>
      <trkpt lat="1.724520" lon="37.834360">
        <ele>541.092</ele>
        <time>2012-05-16T16:17:16Z</time>
      </trkpt>
      <trkpt lat="1.719740" lon="37.831800">
        <ele>557.012</ele>
        <time>2012-05-16T16:17:36Z</time>
      </trkpt>
      <trkpt lat="1.717170" lon="37.830500">
        <ele>568.097</ele>
        <time>2012-05-16T16:17:56Z</time>
      </trkpt>
      <trkpt lat="1.716310" lon="37.830160">
        <ele>574.035</ele>
        <time>2012-05-16T16:18:16Z</time>
      </trkpt>
      <trkpt lat="1.715750" lon="37.830050">
        <ele>578.028</ele>
        <time>2012-05-16T16:18:36Z</time>
      </trkpt>
      <trkpt lat="1.714710" lon="37.829980">
        <ele>581.056</ele>
        <time>2012-05-16T16:18:56Z</time>
      </trkpt>
      <trkpt lat="1.707680" lon="37.830350">
        <ele>586.059</ele>
        <time>2012-05-16T16:19:16Z</time>
      </trkpt>
      <trkpt lat="1.702380" lon="37.830470">
        <ele>579.014</ele>
        <time>2012-05-16T16:19:36Z</time>
      </trkpt>
      <trkpt lat="1.698180" lon="37.830810">
        <ele>571.007</ele>
        <time>2012-05-16T16:19:56Z</time>
      </trkpt>
      <trkpt lat="1.695980" lon="37.830910">
        <ele>569.057</ele>
        <time>2012-05-16T16:20:16Z</time>
      </trkpt>
      <trkpt lat="1.695320" lon="37.830850">
        <ele>568.043</ele>
        <time>2012-05-16T16:20:36Z</time>
      </trkpt>
      <trkpt lat="1.694400" lon="37.830610">
        <ele>564.049</ele>
        <time>2012-05-16T16:20:56Z</time>
      </trkpt>
      <trkpt lat="1.689340" lon="37.828370">
        <ele>572.029</ele>
        <time>2012-05-16T16:21:16Z</time>
      </trkpt>
      <trkpt lat="1.688540" lon="37.828180">
        <ele>578.044</ele>
        <time>2012-05-16T16:21:36Z</time>
      </trkpt>
      <trkpt lat="1.687610" lon="37.828130">
        <ele>576.072</ele>
        <time>2012-05-16T16:21:56Z</time>
      </trkpt>
      <trkpt lat="1.686950" lon="37.828220">
        <ele>578.055</ele>
        <time>2012-05-16T16:22:16Z</time>
      </trkpt>
      <trkpt lat="1.679430" lon="37.829990">
        <ele>565.042</ele>
        <time>2012-05-16T16:22:36Z</time>
      </trkpt>
      <trkpt lat="1.673550" lon="37.831440">
        <ele>559.022</ele>
        <time>2012-05-16T16:22:56Z</time>
      </trkpt>
      <trkpt lat="1.671770" lon="37.832090">
        <ele>553.014</ele>
        <time>2012-05-16T16:23:16Z</time>
      </trkpt>
      <trkpt lat="1.668280" lon="37.832900">
        <ele>553.007</ele>
        <time>2012-05-16T16:23:36Z</time>
      </trkpt>
      <trkpt lat="1.667470" lon="37.833040">
        <ele>551.086</ele>
        <time>2012-05-16T16:23:56Z</time>
      </trkpt>
      <trkpt lat="1.666860" lon="37.832970">
        <ele>550.052</ele>
        <time>2012-05-16T16:24:16Z</time>
      </trkpt>
      <trkpt lat="1.659790" lon="37.830600">
        <ele>538.048</ele>
        <time>2012-05-16T16:24:36Z</time>
      </trkpt>
      <trkpt lat="1.637840" lon="37.822850">
        <ele>542.048</ele>
        <time>2012-05-16T16:24:56Z</time>
      </trkpt>
      <trkpt lat="1.636360" lon="37.822310">
        <ele>542.033</ele>
        <time>2012-05-16T16:25:16Z</time>
      </trkpt>
      <trkpt lat="1.635520" lon="37.821910">
        <ele>539.031</ele>
        <time>2012-05-16T16:25:36Z</time>
      </trkpt>
      <trkpt lat="1.634730" lon="37.821370">
        <ele>547.084</ele>
        <time>2012-05-16T16:25:56Z</time>
      </trkpt>
      <trkpt lat="1.634440" lon="37.821110">
        <ele>547.011</ele>
        <time>2012-05-16T16:26:16Z</time>
      </trkpt>
      <trkpt lat="1.633890" lon="37.820480">
        <ele>543.021</ele>
        <time>2012-05-16T16:26:36Z</time>
      </trkpt>
      <trkpt lat="1.633460" lon="37.819820">
        <ele>544.003</ele>
        <time>2012-05-16T16:26:56Z</time>
      </trkpt>
      <trkpt lat="1.632810" lon="37.818440">
        <ele>541.007</ele>
        <time>2012-05-16T16:27:16Z</time>
      </trkpt>
      <trkpt lat="1.629650" lon="37.812390">
        <ele>541.043</ele>
        <time>2012-05-16T16:27:36Z</time>
      </trkpt>
      <trkpt lat="1.628980" lon="37.811500">
        <ele>544.099</ele>
        <time>2012-05-16T16:27:56Z</time>
      </trkpt>
      <trkpt lat="1.628560" lon="37.811050">
        <ele>544.045</ele>
        <time>2012-05-16T16:28:16Z</time>
      </trkpt>
      <trkpt lat="1.627670" lon="37.810400">
        <ele>544.025</ele>
        <time>2012-05-16T16:28:36Z</time>
      </trkpt>
      <trkpt lat="1.627150" lon="37.810110">
        <ele>544.060</ele>
        <time>2012-05-16T16:28:56Z</time>
      </trkpt>
      <trkpt lat="1.626310" lon="37.809760">
        <ele>544.098</ele>
        <time>2012-05-16T16:29:16Z</time>
      </trkpt>
      <trkpt lat="1.615360" lon="37.805610">
        <ele>552.071</ele>
        <time>2012-05-16T16:29:36Z</time>
      </trkpt>
      <trkpt lat="1.613780" lon="37.805060">
        <ele>552.044</ele>
        <time>2012-05-16T16:29:56Z</time>
      </trkpt>
      <trkpt lat="1.613170" lon="37.804920">
        <ele>554.005</ele>
        <time>2012-05-16T16:30:16Z</time>
      </trkpt>
      <trkpt lat="1.612010" lon="37.804720">
        <ele>559.015</ele>
        <time>2012-05-16T16:30:36Z</time>
      </trkpt>
      <trkpt lat="1.604990" lon="37.803860">
        <ele>565.007</ele>
        <time>2012-05-16T16:30:56Z</time>
      </trkpt>
      <trkpt lat="1.599770" lon="37.803290">
        <ele>579.076</ele>
        <time>2012-05-16T16:31:16Z</time>
      </trkpt>
      <trkpt lat="1.598970" lon="37.803290">
        <ele>584.012</ele>
        <time>2012-05-16T16:31:36Z</time>
      </trkpt>
      <trkpt lat="1.598370" lon="37.803350">
        <ele>584.098</ele>
        <time>2012-05-16T16:31:56Z</time>
      </trkpt>
      <trkpt lat="1.597790" lon="37.803460">
        <ele>586.098</ele>
        <time>2012-05-16T16:32:16Z</time>
      </trkpt>
      <trkpt lat="1.596220" lon="37.804020">
        <ele>588.063</ele>
        <time>2012-05-16T16:32:36Z</time>
      </trkpt>
      <trkpt lat="1.594790" lon="37.804240">
        <ele>583.011</ele>
        <time>2012-05-16T16:32:56Z</time>
      </trkpt>
      <trkpt lat="1.594050" lon="37.804280">
        <ele>579.084</ele>
        <time>2012-05-16T16:33:16Z</time>
      </trkpt>
      <trkpt lat="1.593480" lon="37.804180">
        <ele>573.095</ele>
        <time>2012-05-16T16:33:36Z</time>
      </trkpt>
      <trkpt lat="1.592870" lon="37.804000">
        <ele>568.049</ele>
        <time>2012-05-16T16:33:56Z</time>
      </trkpt>
      <trkpt lat="1.592000" lon="37.803620">
        <ele>566.023</ele>
        <time>2012-05-16T16:34:16Z</time>
      </trkpt>
      <trkpt lat="1.588160" lon="37.801680">
        <ele>563.007</ele>
        <time>2012-05-16T16:34:36Z</time>
      </trkpt>
      <trkpt lat="1.587310" lon="37.801080">
        <ele>564.051</ele>
        <time>2012-05-16T16:34:56Z</time>
      </trkpt>
      <trkpt lat="1.586850" lon="37.800670">
        <ele>565.067</ele>
        <time>2012-05-16T16:35:16Z</time>
      </trkpt>
      <trkpt lat="1.586480" lon="37.800220">
        <ele>566.013</ele>
        <time>2012-05-16T16:35:36Z</time>
      </trkpt>
      <trkpt lat="1.585710" lon="37.798980">
        <ele>571.093</ele>
        <time>2012-05-16T16:35:56Z</time>
      </trkpt>
      <trkpt lat="1.585000" lon="37.797620">
        <ele>570.058</ele>
        <time>2012-05-16T16:36:16Z</time>
      </trkpt>
      <trkpt lat="1.583930" lon="37.796200">
        <ele>569.056</ele>
        <time>2012-05-16T16:36:36Z</time>
      </trkpt>
      <trkpt lat="1.580040" lon="37.792630">
        <ele>572.059</ele>
        <time>2012-05-16T16:36:56Z</time>
      </trkpt>
      <trkpt lat="1.579270" lon="37.792000">
        <ele>571.064</ele>
        <time>2012-05-16T16:37:16Z</time>
      </trkpt>
      <trkpt lat="1.578610" lon="37.791590">
        <ele>571.006</ele>
        <time>2012-05-16T16:37:36Z</time>
      </trkpt>
      <trkpt lat="1.577990" lon="37.791370">
        <ele>572.016</ele>
        <time>2012-05-16T16:37:56Z</time>
      </trkpt>
      <trkpt lat="1.577360" lon="37.791200">
        <ele>575.007</ele>
        <time>2012-05-16T16:38:16Z</time>
      </trkpt>
      <trkpt lat="1.571990" lon="37.790100">
        <ele>572.028</ele>
        <time>2012-05-16T16:38:36Z</time>
      </trkpt>
      <trkpt lat="1.569910" lon="37.789440">
        <ele>579.014</ele>
        <time>2012-05-16T16:38:56Z</time>
      </trkpt>
      <trkpt lat="1.568970" lon="37.789110">
        <ele>579.040</ele>
        <time>2012-05-16T16:39:16Z</time>
      </trkpt>
      <trkpt lat="1.567800" lon="37.788600">
        <ele>581.040</ele>
        <time>2012-05-16T16:39:36Z</time>
      </trkpt>
      <trkpt lat="1.567140" lon="37.788150">
        <ele>581.045</ele>
        <time>2012-05-16T16:39:56Z</time>
      </trkpt>
      <trkpt lat="1.565290" lon="37.786480">
        <ele>585.063</ele>
        <time>2012-05-16T16:40:16Z</time>
      </trkpt>
      <trkpt lat="1.561020" lon="37.781290">
        <ele>597.066</ele>
        <time>2012-05-16T16:40:36Z</time>
      </trkpt>
      <trkpt lat="1.557900" lon="37.776740">
        <ele>595.052</ele>
        <time>2012-05-16T16:40:56Z</time>
      </trkpt>
      <trkpt lat="1.557380" lon="37.776170">
        <ele>593.053</ele>
        <time>2012-05-16T16:41:16Z</time>
      </trkpt>
      <trkpt lat="1.556770" lon="37.775700">
        <ele>596.008</ele>
        <time>2012-05-16T16:41:36Z</time>
      </trkpt>
      <trkpt lat="1.553420" lon="37.773730">
        <ele>598.007</ele>
        <time>2012-05-16T16:41:56Z</time>
      </trkpt>
      <trkpt lat="1.550530" lon="37.772230">
        <ele>599.017</ele>
        <time>2012-05-16T16:42:16Z</time>
      </trkpt>
      <trkpt lat="1.546920" lon="37.770610">
        <ele>600.033</ele>
        <time>2012-05-16T16:42:36Z</time>
      </trkpt>
      <trkpt lat="1.546170" lon="37.770200">
        <ele>601.039</ele>
        <time>2012-05-16T16:42:56Z</time>
      </trkpt>
      <trkpt lat="1.545670" lon="37.769840">
        <ele>601.039</ele>
        <time>2012-05-16T16:43:16Z</time>
      </trkpt>
      <trkpt lat="1.545270" lon="37.769490">
        <ele>601.084</ele>
        <time>2012-05-16T16:43:36Z</time>
      </trkpt>
      <trkpt lat="1.539820" lon="37.763320">
        <ele>608.022</ele>
        <time>2012-05-16T16:43:56Z</time>
      </trkpt>
      <trkpt lat="1.537260" lon="37.760950">
        <ele>608.095</ele>
        <time>2012-05-16T16:44:16Z</time>
      </trkpt>
      <trkpt lat="1.536360" lon="37.760200">
        <ele>610.043</ele>
        <time>2012-05-16T16:44:36Z</time>
      </trkpt>
      <trkpt lat="1.535620" lon="37.759690">
        <ele>608.064</ele>
        <time>2012-05-16T16:44:56Z</time>
      </trkpt>
      <trkpt lat="1.534440" lon="37.759160">
        <ele>610.010</ele>
        <time>2012-05-16T16:45:16Z</time>
      </trkpt>
      <trkpt lat="1.532780" lon="37.758550">
        <ele>612.007</ele>
        <time>2012-05-16T16:45:36Z</time>
      </trkpt>
      <trkpt lat="1.528820" lon="37.756910">
        <ele>612.076</ele>
        <time>2012-05-16T16:45:56Z</time>
      </trkpt>
      <trkpt lat="1.527930" lon="37.756480">
        <ele>618.092</ele>
        <time>2012-05-16T16:46:16Z</time>
      </trkpt>
      <trkpt lat="1.527510" lon="37.756190">
        <ele>620.078</ele>
        <time>2012-05-16T16:46:36Z</time>
      </trkpt>
      <trkpt lat="1.526730" lon="37.755290">
        <ele>619.038</ele>
        <time>2012-05-16T16:46:56Z</time>
      </trkpt>
      <trkpt lat="1.526130" lon="37.754690">
        <ele>619.073</ele>
        <time>2012-05-16T16:47:16Z</time>
      </trkpt>
      <trkpt lat="1.525070" lon="37.753890">
        <ele>620.051</ele>
        <time>2012-05-16T16:47:36Z</time>
      </trkpt>
      <trkpt lat="1.524420" lon="37.753590">
        <ele>621.054</ele>
        <time>2012-05-16T16:47:56Z</time>
      </trkpt>
      <trkpt lat="1.520450" lon="37.752080">
        <ele>628.092</ele>
        <time>2012-05-16T16:48:16Z</time>
      </trkpt>
      <trkpt lat="1.513670" lon="37.749850">
        <ele>636.073</ele>
        <time>2012-05-16T16:48:36Z</time>
      </trkpt>
      <trkpt lat="1.506800" lon="37.747800">
        <ele>636.020</ele>
        <time>2012-05-16T16:48:56Z</time>
      </trkpt>
      <trkpt lat="1.504100" lon="37.746930">
        <ele>634.007</ele>
        <time>2012-05-16T16:49:16Z</time>
      </trkpt>
      <trkpt lat="1.503450" lon="37.746620">
        <ele>634.091</ele>
        <time>2012-05-16T16:49:36Z</time>
      </trkpt>
      <trkpt lat="1.502920" lon="37.746240">
        <ele>633.057</ele>
        <time>2012-05-16T16:49:56Z</time>
      </trkpt>
      <trkpt lat="1.500740" lon="37.744140">
        <ele>635.093</ele>
        <time>2012-05-16T16:50:16Z</time>
      </trkpt>
      <trkpt lat="1.500310" lon="37.743800">
        <ele>638.023</ele>
        <time>2012-05-16T16:50:36Z</time>
      </trkpt>
      <trkpt lat="1.499870" lon="37.743520">
        <ele>639.018</ele>
        <time>2012-05-16T16:50:56Z</time>
      </trkpt>
      <trkpt lat="1.499190" lon="37.743230">
        <ele>641.046</ele>
        <time>2012-05-16T16:51:16Z</time>
      </trkpt>
      <trkpt lat="1.498520" lon="37.743010">
        <ele>643.049</ele>
        <time>2012-05-16T16:51:36Z</time>
      </trkpt>
      <trkpt lat="1.489390" lon="37.740880">
        <ele>646.043</ele>
        <time>2012-05-16T16:51:56Z</time>
      </trkpt>
      <trkpt lat="1.488610" lon="37.740670">
        <ele>640.064</ele>
        <time>2012-05-16T16:52:16Z</time>
      </trkpt>
      <trkpt lat="1.488030" lon="37.740430">
        <ele>641.010</ele>
        <time>2012-05-16T16:52:36Z</time>
      </trkpt>
      <trkpt lat="1.487480" lon="37.740110">
        <ele>640.007</ele>
        <time>2012-05-16T16:52:56Z</time>
      </trkpt>
      <trkpt lat="1.486520" lon="37.739280">
        <ele>641.096</ele>
        <time>2012-05-16T16:53:16Z</time>
      </trkpt>
      <trkpt lat="1.485970" lon="37.738570">
        <ele>636.032</ele>
        <time>2012-05-16T16:53:36Z</time>
      </trkpt>
      <trkpt lat="1.484470" lon="37.736400">
        <ele>633.088</ele>
        <time>2012-05-16T16:53:56Z</time>
      </trkpt>
      <trkpt lat="1.483580" lon="37.735460">
        <ele>629.028</ele>
        <time>2012-05-16T16:54:16Z</time>
      </trkpt>
      <trkpt lat="1.481950" lon="37.734340">
        <ele>624.063</ele>
        <time>2012-05-16T16:54:36Z</time>
      </trkpt>
      <trkpt lat="1.480910" lon="37.733810">
        <ele>623.031</ele>
        <time>2012-05-16T16:54:56Z</time>
      </trkpt>
      <trkpt lat="1.480230" lon="37.733560">
        <ele>636.014</ele>
        <time>2012-05-16T16:55:16Z</time>
      </trkpt>
      <trkpt lat="1.479660" lon="37.733460">
        <ele>648.022</ele>
        <time>2012-05-16T16:55:36Z</time>
      </trkpt>
      <trkpt lat="1.478870" lon="37.733420">
        <ele>642.062</ele>
        <time>2012-05-16T16:55:56Z</time>
      </trkpt>
      <trkpt lat="1.473850" lon="37.733580">
        <ele>642.008</ele>
        <time>2012-05-16T16:56:16Z</time>
      </trkpt>
      <trkpt lat="1.473240" lon="37.733540">
        <ele>643.007</ele>
        <time>2012-05-16T16:56:36Z</time>
      </trkpt>
      <trkpt lat="1.472780" lon="37.733440">
        <ele>638.064</ele>
        <time>2012-05-16T16:56:56Z</time>
      </trkpt>
      <trkpt lat="1.472270" lon="37.733300">
        <ele>636.090</ele>
        <time>2012-05-16T16:57:16Z</time>
      </trkpt>
      <trkpt lat="1.467040" lon="37.731150">
        <ele>621.026</ele>
        <time>2012-05-16T16:57:36Z</time>
      </trkpt>
      <trkpt lat="1.460350" lon="37.728830">
        <ele>613.066</ele>
        <time>2012-05-16T16:57:56Z</time>
      </trkpt>
      <trkpt lat="1.458980" lon="37.728660">
        <ele>619.061</ele>
        <time>2012-05-16T16:58:16Z</time>
      </trkpt>
      <trkpt lat="1.453300" lon="37.728830">
        <ele>608.029</ele>
        <time>2012-05-16T16:58:36Z</time>
      </trkpt>
      <trkpt lat="1.451970" lon="37.728710">
        <ele>608.032</ele>
        <time>2012-05-16T16:58:56Z</time>
      </trkpt>
      <trkpt lat="1.451390" lon="37.728530">
        <ele>604.068</ele>
        <time>2012-05-16T16:59:16Z</time>
      </trkpt>
      <trkpt lat="1.450730" lon="37.728230">
        <ele>603.042</ele>
        <time>2012-05-16T16:59:36Z</time>
      </trkpt>
      <trkpt lat="1.449460" lon="37.727560">
        <ele>594.026</ele>
        <time>2012-05-16T16:59:56Z</time>
      </trkpt>
      <trkpt lat="1.447310" lon="37.726530">
        <ele>605.007</ele>
        <time>2012-05-16T17:00:16Z</time>
      </trkpt>
      <trkpt lat="1.440610" lon="37.724000">
        <ele>600.078</ele>
        <time>2012-05-16T17:00:36Z</time>
      </trkpt>
      <trkpt lat="1.437040" lon="37.722780">
        <ele>602.034</ele>
        <time>2012-05-16T17:00:56Z</time>
      </trkpt>
      <trkpt lat="1.433800" lon="37.722030">
        <ele>605.090</ele>
        <time>2012-05-16T17:01:16Z</time>
      </trkpt>
      <trkpt lat="1.432700" lon="37.721850">
        <ele>611.090</ele>
        <time>2012-05-16T17:01:36Z</time>
      </trkpt>
      <trkpt lat="1.431060" lon="37.721820">
        <ele>612.015</ele>
        <time>2012-05-16T17:01:56Z</time>
      </trkpt>
      <trkpt lat="1.430130" lon="37.721920">
        <ele>616.083</ele>
        <time>2012-05-16T17:02:16Z</time>
      </trkpt>
      <trkpt lat="1.429350" lon="37.722140">
        <ele>613.036</ele>
        <time>2012-05-16T17:02:36Z</time>
      </trkpt>
      <trkpt lat="1.428400" lon="37.722540">
        <ele>606.023</ele>
        <time>2012-05-16T17:02:56Z</time>
      </trkpt>
      <trkpt lat="1.426950" lon="37.723260">
        <ele>605.083</ele>
        <time>2012-05-16T17:03:16Z</time>
      </trkpt>
      <trkpt lat="1.425980" lon="37.723570">
        <ele>608.011</ele>
        <time>2012-05-16T17:03:36Z</time>
      </trkpt>
      <trkpt lat="1.425380" lon="37.723720">
        <ele>610.007</ele>
        <time>2012-05-16T17:03:56Z</time>
      </trkpt>
      <trkpt lat="1.423990" lon="37.723820">
        <ele>602.014</ele>
        <time>2012-05-16T17:04:16Z</time>
      </trkpt>
      <trkpt lat="1.422980" lon="37.723800">
        <ele>597.070</ele>
        <time>2012-05-16T17:04:36Z</time>
      </trkpt>
      <trkpt lat="1.419850" lon="37.723480">
        <ele>590.026</ele>
        <time>2012-05-16T17:04:56Z</time>
      </trkpt>
      <trkpt lat="1.418000" lon="37.723370">
        <ele>598.046</ele>
        <time>2012-05-16T17:05:16Z</time>
      </trkpt>
      <trkpt lat="1.406880" lon="37.723170">
        <ele>591.081</ele>
        <time>2012-05-16T17:05:36Z</time>
      </trkpt>
      <trkpt lat="1.398030" lon="37.723090">
        <ele>597.079</ele>
        <time>2012-05-16T17:05:56Z</time>
      </trkpt>
      <trkpt lat="1.392530" lon="37.722980">
        <ele>600.072</ele>
        <time>2012-05-16T17:06:16Z</time>
      </trkpt>
      <trkpt lat="1.391940" lon="37.722920">
        <ele>604.036</ele>
        <time>2012-05-16T17:06:36Z</time>
      </trkpt>
      <trkpt lat="1.391510" lon="37.722860">
        <ele>602.017</ele>
        <time>2012-05-16T17:06:56Z</time>
      </trkpt>
      <trkpt lat="1.390930" lon="37.722680">
        <ele>600.018</ele>
        <time>2012-05-16T17:07:16Z</time>
      </trkpt>
      <trkpt lat="1.384240" lon="37.720220">
        <ele>597.007</ele>
        <time>2012-05-16T17:07:36Z</time>
      </trkpt>
      <trkpt lat="1.379060" lon="37.718130">
        <ele>606.045</ele>
        <time>2012-05-16T17:07:56Z</time>
      </trkpt>
      <trkpt lat="1.378380" lon="37.717750">
        <ele>607.091</ele>
        <time>2012-05-16T17:08:16Z</time>
      </trkpt>
      <trkpt lat="1.377710" lon="37.717280">
        <ele>607.017</ele>
        <time>2012-05-16T17:08:36Z</time>
      </trkpt>
      <trkpt lat="1.374020" lon="37.714290">
        <ele>611.077</ele>
        <time>2012-05-16T17:08:56Z</time>
      </trkpt>
      <trkpt lat="1.373540" lon="37.713980">
        <ele>612.032</ele>
        <time>2012-05-16T17:09:16Z</time>
      </trkpt>
      <trkpt lat="1.372880" lon="37.713680">
        <ele>613.070</ele>
        <time>2012-05-16T17:09:36Z</time>
      </trkpt>
      <trkpt lat="1.371850" lon="37.713430">
        <ele>617.073</ele>
        <time>2012-05-16T17:09:56Z</time>
      </trkpt>
      <trkpt lat="1.369200" lon="37.713090">
        <ele>623.017</ele>
        <time>2012-05-16T17:10:16Z</time>
      </trkpt>
      <trkpt lat="1.368480" lon="37.713050">
        <ele>626.087</ele>
        <time>2012-05-16T17:10:36Z</time>
      </trkpt>
      <trkpt lat="1.366910" lon="37.713130">
        <ele>622.015</ele>
        <time>2012-05-16T17:10:56Z</time>
      </trkpt>
      <trkpt lat="1.363130" lon="37.713540">
        <ele>631.007</ele>
        <time>2012-05-16T17:11:16Z</time>
      </trkpt>
      <trkpt lat="1.362160" lon="37.713480">
        <ele>640.063</ele>
        <time>2012-05-16T17:11:36Z</time>
      </trkpt>
      <trkpt lat="1.361310" lon="37.713270">
        <ele>641.069</ele>
        <time>2012-05-16T17:11:56Z</time>
      </trkpt>
      <trkpt lat="1.358870" lon="37.712060">
        <ele>634.085</ele>
        <time>2012-05-16T17:12:16Z</time>
      </trkpt>
      <trkpt lat="1.358350" lon="37.711870">
        <ele>637.095</ele>
        <time>2012-05-16T17:12:36Z</time>
      </trkpt>
      <trkpt lat="1.357810" lon="37.711750">
        <ele>638.060</ele>
        <time>2012-05-16T17:12:56Z</time>
      </trkpt>
      <trkpt lat="1.356490" lon="37.711690">
        <ele>639.098</ele>
        <time>2012-05-16T17:13:16Z</time>
      </trkpt>
      <trkpt lat="1.353300" lon="37.712270">
        <ele>645.091</ele>
        <time>2012-05-16T17:13:36Z</time>
      </trkpt>
      <trkpt lat="1.351100" lon="37.712750">
        <ele>643.025</ele>
        <time>2012-05-16T17:13:56Z</time>
      </trkpt>
      <trkpt lat="1.347020" lon="37.712880">
        <ele>651.026</ele>
        <time>2012-05-16T17:14:16Z</time>
      </trkpt>
      <trkpt lat="1.344730" lon="37.713060">
        <ele>658.008</ele>
        <time>2012-05-16T17:14:36Z</time>
      </trkpt>
      <trkpt lat="1.342330" lon="37.713330">
        <ele>649.007</ele>
        <time>2012-05-16T17:14:56Z</time>
      </trkpt>
      <trkpt lat="1.341300" lon="37.713270">
        <ele>650.094</ele>
        <time>2012-05-16T17:15:16Z</time>
      </trkpt>
      <trkpt lat="1.338750" lon="37.712790">
        <ele>662.060</ele>
        <time>2012-05-16T17:15:36Z</time>
      </trkpt>
      <trkpt lat="1.335260" lon="37.711980">
        <ele>662.016</ele>
        <time>2012-05-16T17:15:56Z</time>
      </trkpt>
      <trkpt lat="1.333500" lon="37.711520">
        <ele>666.016</ele>
        <time>2012-05-16T17:16:16Z</time>
      </trkpt>
      <trkpt lat="1.332740" lon="37.711310">
        <ele>663.061</ele>
        <time>2012-05-16T17:16:36Z</time>
      </trkpt>
      <trkpt lat="1.332040" lon="37.711030">
        <ele>657.059</ele>
        <time>2012-05-16T17:16:56Z</time>
      </trkpt>
      <trkpt lat="1.331680" lon="37.710830">
        <ele>656.022</ele>
        <time>2012-05-16T17:17:16Z</time>
      </trkpt>
      <trkpt lat="1.331380" lon="37.710610">
        <ele>657.039</ele>
        <time>2012-05-16T17:17:36Z</time>
      </trkpt>
      <trkpt lat="1.331080" lon="37.710300">
        <ele>658.001</ele>
        <time>2012-05-16T17:17:56Z</time>
      </trkpt>
      <trkpt lat="1.330870" lon="37.709970">
        <ele>660.021</ele>
        <time>2012-05-16T17:18:16Z</time>
      </trkpt>
      <trkpt lat="1.330680" lon="37.709560">
        <ele>661.007</ele>
        <time>2012-05-16T17:18:36Z</time>
      </trkpt>
      <trkpt lat="1.330500" lon="37.708890">
        <ele>662.015</ele>
        <time>2012-05-16T17:18:56Z</time>
      </trkpt>
      <trkpt lat="1.329100" lon="37.701690">
        <ele>677.021</ele>
        <time>2012-05-16T17:19:16Z</time>
      </trkpt>
      <trkpt lat="1.328730" lon="37.700190">
        <ele>678.077</ele>
        <time>2012-05-16T17:19:36Z</time>
      </trkpt>
      <trkpt lat="1.328210" lon="37.699220">
        <ele>680.027</ele>
        <time>2012-05-16T17:19:56Z</time>
      </trkpt>
      <trkpt lat="1.323990" lon="37.693530">
        <ele>695.062</ele>
        <time>2012-05-16T17:20:16Z</time>
      </trkpt>
      <trkpt lat="1.323250" lon="37.692690">
        <ele>694.040</ele>
        <time>2012-05-16T17:20:36Z</time>
      </trkpt>
      <trkpt lat="1.322650" lon="37.692190">
        <ele>692.043</ele>
        <time>2012-05-16T17:20:56Z</time>
      </trkpt>
      <trkpt lat="1.321750" lon="37.691600">
        <ele>686.074</ele>
        <time>2012-05-16T17:21:16Z</time>
      </trkpt>
      <trkpt lat="1.318000" lon="37.689740">
        <ele>689.056</ele>
        <time>2012-05-16T17:21:36Z</time>
      </trkpt>
      <trkpt lat="1.310850" lon="37.686070">
        <ele>705.021</ele>
        <time>2012-05-16T17:21:56Z</time>
      </trkpt>
      <trkpt lat="1.310160" lon="37.685790">
        <ele>707.007</ele>
        <time>2012-05-16T17:22:16Z</time>
      </trkpt>
      <trkpt lat="1.309500" lon="37.685630">
        <ele>704.049</ele>
        <time>2012-05-16T17:22:36Z</time>
      </trkpt>
      <trkpt lat="1.308910" lon="37.685560">
        <ele>706.065</ele>
        <time>2012-05-16T17:22:56Z</time>
      </trkpt>
      <trkpt lat="1.301560" lon="37.685500">
        <ele>707.091</ele>
        <time>2012-05-16T17:23:16Z</time>
      </trkpt>
      <trkpt lat="1.297660" lon="37.685550">
        <ele>709.071</ele>
        <time>2012-05-16T17:23:36Z</time>
      </trkpt>
      <trkpt lat="1.296040" lon="37.685630">
        <ele>714.036</ele>
        <time>2012-05-16T17:23:56Z</time>
      </trkpt>
      <trkpt lat="1.294840" lon="37.685750">
        <ele>716.024</ele>
        <time>2012-05-16T17:24:16Z</time>
      </trkpt>
      <trkpt lat="1.293910" lon="37.685960">
        <ele>714.097</ele>
        <time>2012-05-16T17:24:36Z</time>
      </trkpt>
      <trkpt lat="1.292370" lon="37.686100">
        <ele>717.064</ele>
        <time>2012-05-16T17:24:56Z</time>
      </trkpt>
      <trkpt lat="1.291700" lon="37.686060">
        <ele>718.006</ele>
        <time>2012-05-16T17:25:16Z</time>
      </trkpt>
      <trkpt lat="1.291040" lon="37.685950">
        <ele>716.016</ele>
        <time>2012-05-16T17:25:36Z</time>
      </trkpt>
      <trkpt lat="1.289600" lon="37.685660">
        <ele>713.007</ele>
        <time>2012-05-16T17:25:56Z</time>
      </trkpt>
      <trkpt lat="1.288970" lon="37.685460">
        <ele>714.078</ele>
        <time>2012-05-16T17:26:16Z</time>
      </trkpt>
      <trkpt lat="1.287620" lon="37.684690">
        <ele>713.074</ele>
        <time>2012-05-16T17:26:36Z</time>
      </trkpt>
      <trkpt lat="1.287180" lon="37.684320">
        <ele>712.050</ele>
        <time>2012-05-16T17:26:56Z</time>
      </trkpt>
      <trkpt lat="1.286830" lon="37.683940">
        <ele>714.020</ele>
        <time>2012-05-16T17:27:16Z</time>
      </trkpt>
      <trkpt lat="1.284330" lon="37.680120">
        <ele>720.065</ele>
        <time>2012-05-16T17:27:36Z</time>
      </trkpt>
      <trkpt lat="1.281800" lon="37.676540">
        <ele>724.083</ele>
        <time>2012-05-16T17:27:56Z</time>
      </trkpt>
      <trkpt lat="1.281080" lon="37.675600">
        <ele>728.076</ele>
        <time>2012-05-16T17:28:16Z</time>
      </trkpt>
      <trkpt lat="1.280650" lon="37.675130">
        <ele>728.052</ele>
        <time>2012-05-16T17:28:36Z</time>
      </trkpt>
      <trkpt lat="1.280300" lon="37.674880">
        <ele>731.053</ele>
        <time>2012-05-16T17:28:56Z</time>
      </trkpt>
      <trkpt lat="1.279910" lon="37.674700">
        <ele>730.008</ele>
        <time>2012-05-16T17:29:16Z</time>
      </trkpt>
      <trkpt lat="1.279320" lon="37.674520">
        <ele>732.007</ele>
        <time>2012-05-16T17:29:36Z</time>
      </trkpt>
      <trkpt lat="1.278400" lon="37.674540">
        <ele>736.037</ele>
        <time>2012-05-16T17:29:56Z</time>
      </trkpt>
      <trkpt lat="1.273140" lon="37.675810">
        <ele>740.043</ele>
        <time>2012-05-16T17:30:16Z</time>
      </trkpt>
      <trkpt lat="1.272400" lon="37.675910">
        <ele>740.079</ele>
        <time>2012-05-16T17:30:36Z</time>
      </trkpt>
      <trkpt lat="1.271620" lon="37.675900">
        <ele>738.069</ele>
        <time>2012-05-16T17:30:56Z</time>
      </trkpt>
      <trkpt lat="1.270280" lon="37.675750">
        <ele>732.034</ele>
        <time>2012-05-16T17:31:16Z</time>
      </trkpt>
      <trkpt lat="1.269190" lon="37.675700">
        <ele>732.032</ele>
        <time>2012-05-16T17:31:36Z</time>
      </trkpt>
      <trkpt lat="1.268430" lon="37.675780">
        <ele>735.085</ele>
        <time>2012-05-16T17:31:56Z</time>
      </trkpt>
      <trkpt lat="1.266040" lon="37.676250">
        <ele>737.062</ele>
        <time>2012-05-16T17:32:16Z</time>
      </trkpt>
      <trkpt lat="1.264840" lon="37.676380">
        <ele>727.083</ele>
        <time>2012-05-16T17:32:36Z</time>
      </trkpt>
      <trkpt lat="1.261910" lon="37.676300">
        <ele>735.011</ele>
        <time>2012-05-16T17:32:56Z</time>
      </trkpt>
      <trkpt lat="1.258890" lon="37.676460">
        <ele>742.007</ele>
        <time>2012-05-16T17:33:16Z</time>
      </trkpt>
      <trkpt lat="1.255630" lon="37.676730">
        <ele>750.078</ele>
        <time>2012-05-16T17:33:36Z</time>
      </trkpt>
      <trkpt lat="1.254280" lon="37.676730">
        <ele>753.094</ele>
        <time>2012-05-16T17:33:56Z</time>
      </trkpt>
      <trkpt lat="1.251860" lon="37.676650">
        <ele>749.060</ele>
        <time>2012-05-16T17:34:16Z</time>
      </trkpt>
      <trkpt lat="1.251000" lon="37.676540">
        <ele>747.060</ele>
        <time>2012-05-16T17:34:36Z</time>
      </trkpt>
      <trkpt lat="1.250100" lon="37.676330">
        <ele>747.025</ele>
        <time>2012-05-16T17:34:56Z</time>
      </trkpt>
      <trkpt lat="1.248650" lon="37.675750">
        <ele>739.013</ele>
        <time>2012-05-16T17:35:16Z</time>
      </trkpt>
      <trkpt lat="1.237060" lon="37.670380">
        <ele>740.046</ele>
        <time>2012-05-16T17:35:36Z</time>
      </trkpt>
      <trkpt lat="1.233930" lon="37.668990">
        <ele>739.045</ele>
        <time>2012-05-16T17:35:56Z</time>
      </trkpt>
      <trkpt lat="1.229020" lon="37.666580">
        <ele>731.047</ele>
        <time>2012-05-16T17:36:16Z</time>
      </trkpt>
      <trkpt lat="1.227580" lon="37.665920">
        <ele>734.011</ele>
        <time>2012-05-16T17:36:36Z</time>
      </trkpt>
      <trkpt lat="1.224840" lon="37.664870">
        <ele>740.007</ele>
        <time>2012-05-16T17:36:56Z</time>
      </trkpt>
      <trkpt lat="1.224000" lon="37.664480">
        <ele>742.096</ele>
        <time>2012-05-16T17:37:16Z</time>
      </trkpt>
      <trkpt lat="1.223100" lon="37.663830">
        <ele>741.082</ele>
        <time>2012-05-16T17:37:36Z</time>
      </trkpt>
      <trkpt lat="1.222580" lon="37.663350">
        <ele>740.088</ele>
        <time>2012-05-16T17:37:56Z</time>
      </trkpt>
      <trkpt lat="1.221930" lon="37.662550">
        <ele>741.048</ele>
        <time>2012-05-16T17:38:16Z</time>
      </trkpt>
      <trkpt lat="1.219300" lon="37.659200">
        <ele>740.053</ele>
        <time>2012-05-16T17:38:36Z</time>
      </trkpt>
      <trkpt lat="1.216670" lon="37.655670">
        <ele>741.041</ele>
        <time>2012-05-16T17:38:56Z</time>
      </trkpt>
      <trkpt lat="1.216250" lon="37.654940">
        <ele>740.094</ele>
        <time>2012-05-16T17:39:16Z</time>
      </trkpt>
      <trkpt lat="1.216010" lon="37.654410">
        <ele>740.029</ele>
        <time>2012-05-16T17:39:36Z</time>
      </trkpt>
      <trkpt lat="1.215800" lon="37.653780">
        <ele>741.000</ele>
        <time>2012-05-16T17:39:56Z</time>
      </trkpt>
      <trkpt lat="1.215600" lon="37.652770">
        <ele>739.020</ele>
        <time>2012-05-16T17:40:16Z</time>
      </trkpt>
      <trkpt lat="1.212540" lon="37.633520">
        <ele>749.007</ele>
        <time>2012-05-16T17:40:36Z</time>
      </trkpt>
      <trkpt lat="1.212330" lon="37.632750">
        <ele>749.034</ele>
        <time>2012-05-16T17:40:56Z</time>
      </trkpt>
      <trkpt lat="1.212100" lon="37.632180">
        <ele>751.030</ele>
        <time>2012-05-16T17:41:16Z</time>
      </trkpt>
      <trkpt lat="1.211790" lon="37.631630">
        <ele>750.096</ele>
        <time>2012-05-16T17:41:36Z</time>
      </trkpt>
      <trkpt lat="1.211330" lon="37.631080">
        <ele>749.036</ele>
        <time>2012-05-16T17:41:56Z</time>
      </trkpt>
      <trkpt lat="1.210930" lon="37.630670">
        <ele>747.021</ele>
        <time>2012-05-16T17:42:16Z</time>
      </trkpt>
      <trkpt lat="1.209310" lon="37.629230">
        <ele>747.099</ele>
        <time>2012-05-16T17:42:36Z</time>
      </trkpt>
      <trkpt lat="1.208310" lon="37.628160">
        <ele>751.012</ele>
        <time>2012-05-16T17:42:56Z</time>
      </trkpt>
      <trkpt lat="1.206730" lon="37.626640">
        <ele>755.085</ele>
        <time>2012-05-16T17:43:16Z</time>
      </trkpt>
      <trkpt lat="1.205870" lon="37.625640">
        <ele>754.089</ele>
        <time>2012-05-16T17:43:36Z</time>
      </trkpt>
      <trkpt lat="1.203470" lon="37.622520">
        <ele>755.017</ele>
        <time>2012-05-16T17:43:56Z</time>
      </trkpt>
      <trkpt lat="1.201460" lon="37.620020">
        <ele>755.007</ele>
        <time>2012-05-16T17:44:16Z</time>
      </trkpt>
      <trkpt lat="1.200220" lon="37.618340">
        <ele>758.090</ele>
        <time>2012-05-16T17:44:36Z</time>
      </trkpt>
      <trkpt lat="1.195830" lon="37.612700">
        <ele>762.066</ele>
        <time>2012-05-16T17:44:56Z</time>
      </trkpt>
      <trkpt lat="1.194860" lon="37.611240">
        <ele>762.092</ele>
        <time>2012-05-16T17:45:16Z</time>
      </trkpt>
      <trkpt lat="1.193200" lon="37.607330">
        <ele>758.052</ele>
        <time>2012-05-16T17:45:36Z</time>
      </trkpt>
      <trkpt lat="1.190610" lon="37.602090">
        <ele>757.077</ele>
        <time>2012-05-16T17:45:56Z</time>
      </trkpt>
      <trkpt lat="1.188860" lon="37.598300">
        <ele>755.095</ele>
        <time>2012-05-16T17:46:16Z</time>
      </trkpt>
      <trkpt lat="1.188600" lon="37.597450">
        <ele>756.048</ele>
        <time>2012-05-16T17:46:36Z</time>
      </trkpt>
      <trkpt lat="1.188180" lon="37.595670">
        <ele>758.042</ele>
        <time>2012-05-16T17:46:56Z</time>
      </trkpt>
      <trkpt lat="1.188110" lon="37.595190">
        <ele>759.022</ele>
        <time>2012-05-16T17:47:16Z</time>
      </trkpt>
      <trkpt lat="1.187650" lon="37.589950">
        <ele>763.014</ele>
        <time>2012-05-16T17:47:36Z</time>
      </trkpt>
      <trkpt lat="1.187680" lon="37.588250">
        <ele>765.007</ele>
        <time>2012-05-16T17:47:56Z</time>
      </trkpt>
      <trkpt lat="1.187620" lon="37.587400">
        <ele>764.056</ele>
        <time>2012-05-16T17:48:16Z</time>
      </trkpt>
      <trkpt lat="1.187570" lon="37.586960">
        <ele>764.052</ele>
        <time>2012-05-16T17:48:36Z</time>
      </trkpt>
      <trkpt lat="1.187460" lon="37.586580">
        <ele>764.038</ele>
        <time>2012-05-16T17:48:56Z</time>
      </trkpt>
      <trkpt lat="1.187150" lon="37.585900">
        <ele>761.068</ele>
        <time>2012-05-16T17:49:16Z</time>
      </trkpt>
      <trkpt lat="1.186480" lon="37.585000">
        <ele>759.053</ele>
        <time>2012-05-16T17:49:36Z</time>
      </trkpt>
      <trkpt lat="1.186050" lon="37.584580">
        <ele>761.061</ele>
        <time>2012-05-16T17:49:56Z</time>
      </trkpt>
      <trkpt lat="1.185450" lon="37.584120">
        <ele>762.054</ele>
        <time>2012-05-16T17:50:16Z</time>
      </trkpt>
      <trkpt lat="1.184780" lon="37.583710">
        <ele>761.034</ele>
        <time>2012-05-16T17:50:36Z</time>
      </trkpt>
      <trkpt lat="1.183800" lon="37.583340">
        <ele>763.055</ele>
        <time>2012-05-16T17:50:56Z</time>
      </trkpt>
      <trkpt lat="1.182730" lon="37.583150">
        <ele>768.010</ele>
        <time>2012-05-16T17:51:16Z</time>
      </trkpt>
      <trkpt lat="1.169700" lon="37.581620">
        <ele>769.007</ele>
        <time>2012-05-16T17:51:36Z</time>
      </trkpt>
      <trkpt lat="1.168590" lon="37.581590">
        <ele>776.075</ele>
        <time>2012-05-16T17:51:56Z</time>
      </trkpt>
      <trkpt lat="1.167440" lon="37.581800">
        <ele>779.031</ele>
        <time>2012-05-16T17:52:16Z</time>
      </trkpt>
      <trkpt lat="1.166710" lon="37.582050">
        <ele>775.037</ele>
        <time>2012-05-16T17:52:36Z</time>
      </trkpt>
      <trkpt lat="1.165870" lon="37.582550">
        <ele>772.027</ele>
        <time>2012-05-16T17:52:56Z</time>
      </trkpt>
      <trkpt lat="1.163900" lon="37.584100">
        <ele>764.062</ele>
        <time>2012-05-16T17:53:16Z</time>
      </trkpt>
      <trkpt lat="1.163380" lon="37.584650">
        <ele>766.080</ele>
        <time>2012-05-16T17:53:36Z</time>
      </trkpt>
      <trkpt lat="1.162860" lon="37.585400">
        <ele>765.063</ele>
        <time>2012-05-16T17:53:56Z</time>
      </trkpt>
      <trkpt lat="1.161870" lon="37.587530">
        <ele>761.067</ele>
        <time>2012-05-16T17:54:16Z</time>
      </trkpt>
      <trkpt lat="1.160840" lon="37.589250">
        <ele>760.081</ele>
        <time>2012-05-16T17:54:36Z</time>
      </trkpt>
      <trkpt lat="1.155710" lon="37.595230">
        <ele>754.019</ele>
        <time>2012-05-16T17:54:56Z</time>
      </trkpt>
      <trkpt lat="1.154710" lon="37.595940">
        <ele>753.007</ele>
        <time>2012-05-16T17:55:16Z</time>
      </trkpt>
      <trkpt lat="1.154110" lon="37.596220">
        <ele>752.048</ele>
        <time>2012-05-16T17:55:36Z</time>
      </trkpt>
      <trkpt lat="1.153450" lon="37.596450">
        <ele>751.044</ele>
        <time>2012-05-16T17:55:56Z</time>
      </trkpt>
      <trkpt lat="1.152730" lon="37.596610">
        <ele>748.080</ele>
        <time>2012-05-16T17:56:16Z</time>
      </trkpt>
      <trkpt lat="1.151510" lon="37.596660">
        <ele>743.020</ele>
        <time>2012-05-16T17:56:36Z</time>
      </trkpt>
      <trkpt lat="1.146730" lon="37.596610">
        <ele>742.075</ele>
        <time>2012-05-16T17:56:56Z</time>
      </trkpt>
      <trkpt lat="1.145840" lon="37.596670">
        <ele>742.053</ele>
        <time>2012-05-16T17:57:16Z</time>
      </trkpt>
      <trkpt lat="1.144990" lon="37.596820">
        <ele>738.036</ele>
        <time>2012-05-16T17:57:36Z</time>
      </trkpt>
      <trkpt lat="1.143370" lon="37.597310">
        <ele>736.039</ele>
        <time>2012-05-16T17:57:56Z</time>
      </trkpt>
      <trkpt lat="1.139340" lon="37.599120">
        <ele>726.001</ele>
        <time>2012-05-16T17:58:16Z</time>
      </trkpt>
      <trkpt lat="1.138780" lon="37.599270">
        <ele>726.021</ele>
        <time>2012-05-16T17:58:36Z</time>
      </trkpt>
      <trkpt lat="1.138230" lon="37.599350">
        <ele>728.007</ele>
        <time>2012-05-16T17:58:56Z</time>
      </trkpt>
      <trkpt lat="1.137700" lon="37.599400">
        <ele>727.045</ele>
        <time>2012-05-16T17:59:16Z</time>
      </trkpt>
      <trkpt lat="1.130270" lon="37.599400">
        <ele>718.061</ele>
        <time>2012-05-16T17:59:36Z</time>
      </trkpt>
      <trkpt lat="1.126440" lon="37.599330">
        <ele>731.097</ele>
        <time>2012-05-16T17:59:56Z</time>
      </trkpt>
      <trkpt lat="1.125880" lon="37.599240">
        <ele>732.067</ele>
        <time>2012-05-16T18:00:16Z</time>
      </trkpt>
      <trkpt lat="1.124520" lon="37.598770">
        <ele>734.062</ele>
        <time>2012-05-16T18:00:36Z</time>
      </trkpt>
      <trkpt lat="1.119830" lon="37.596720">
        <ele>738.040</ele>
        <time>2012-05-16T18:00:56Z</time>
      </trkpt>
      <trkpt lat="1.118950" lon="37.596240">
        <ele>737.073</ele>
        <time>2012-05-16T18:01:16Z</time>
      </trkpt>
      <trkpt lat="1.116530" lon="37.594370">
        <ele>739.073</ele>
        <time>2012-05-16T18:01:36Z</time>
      </trkpt>
      <trkpt lat="1.115180" lon="37.593520">
        <ele>745.085</ele>
        <time>2012-05-16T18:01:56Z</time>
      </trkpt>
      <trkpt lat="1.111020" lon="37.591890">
        <ele>754.013</ele>
        <time>2012-05-16T18:02:16Z</time>
      </trkpt>
      <trkpt lat="1.109200" lon="37.591230">
        <ele>750.007</ele>
        <time>2012-05-16T18:02:36Z</time>
      </trkpt>
      <trkpt lat="1.107690" lon="37.590550">
        <ele>752.089</ele>
        <time>2012-05-16T18:02:56Z</time>
      </trkpt>
      <trkpt lat="1.107130" lon="37.590190">
        <ele>753.065</ele>
        <time>2012-05-16T18:03:16Z</time>
      </trkpt>
      <trkpt lat="1.106250" lon="37.589490">
        <ele>750.091</ele>
        <time>2012-05-16T18:03:36Z</time>
      </trkpt>
      <trkpt lat="1.104930" lon="37.588310">
        <ele>752.071</ele>
        <time>2012-05-16T18:03:56Z</time>
      </trkpt>
      <trkpt lat="1.104180" lon="37.587780">
        <ele>750.016</ele>
        <time>2012-05-16T18:04:16Z</time>
      </trkpt>
      <trkpt lat="1.101300" lon="37.586200">
        <ele>761.064</ele>
        <time>2012-05-16T18:04:36Z</time>
      </trkpt>
      <trkpt lat="1.100610" lon="37.585770">
        <ele>757.047</ele>
        <time>2012-05-16T18:04:56Z</time>
      </trkpt>
      <trkpt lat="1.100130" lon="37.585410">
        <ele>756.088</ele>
        <time>2012-05-16T18:05:16Z</time>
      </trkpt>
      <trkpt lat="1.099490" lon="37.584640">
        <ele>759.024</ele>
        <time>2012-05-16T18:05:36Z</time>
      </trkpt>
      <trkpt lat="1.098860" lon="37.583430">
        <ele>760.026</ele>
        <time>2012-05-16T18:05:56Z</time>
      </trkpt>
      <trkpt lat="1.098580" lon="37.582700">
        <ele>764.007</ele>
        <time>2012-05-16T18:06:16Z</time>
      </trkpt>
      <trkpt lat="1.097960" lon="37.579700">
        <ele>767.060</ele>
        <time>2012-05-16T18:06:36Z</time>
      </trkpt>
      <trkpt lat="1.097630" lon="37.578980">
        <ele>765.076</ele>
        <time>2012-05-16T18:06:56Z</time>
      </trkpt>
      <trkpt lat="1.096990" lon="37.578030">
        <ele>764.022</ele>
        <time>2012-05-16T18:07:16Z</time>
      </trkpt>
      <trkpt lat="1.096210" lon="37.577210">
        <ele>767.062</ele>
        <time>2012-05-16T18:07:36Z</time>
      </trkpt>
      <trkpt lat="1.094670" lon="37.575820">
        <ele>771.037</ele>
        <time>2012-05-16T18:07:56Z</time>
      </trkpt>
      <trkpt lat="1.093290" lon="37.575150">
        <ele>774.025</ele>
        <time>2012-05-16T18:08:16Z</time>
      </trkpt>
      <trkpt lat="1.089750" lon="37.574390">
        <ele>771.038</ele>
        <time>2012-05-16T18:08:36Z</time>
      </trkpt>
      <trkpt lat="1.089010" lon="37.574120">
        <ele>768.045</ele>
        <time>2012-05-16T18:08:56Z</time>
      </trkpt>
      <trkpt lat="1.088000" lon="37.573530">
        <ele>770.047</ele>
        <time>2012-05-16T18:09:16Z</time>
      </trkpt>
      <trkpt lat="1.086740" lon="37.572610">
        <ele>774.011</ele>
        <time>2012-05-16T18:09:36Z</time>
      </trkpt>
      <trkpt lat="1.086040" lon="37.572190">
        <ele>774.007</ele>
        <time>2012-05-16T18:09:56Z</time>
      </trkpt>
      <trkpt lat="1.084950" lon="37.571780">
        <ele>781.066</ele>
        <time>2012-05-16T18:10:16Z</time>
      </trkpt>
      <trkpt lat="1.084560" lon="37.571690">
        <ele>790.032</ele>
        <time>2012-05-16T18:10:36Z</time>
      </trkpt>
      <trkpt lat="1.083220" lon="37.571570">
        <ele>786.028</ele>
        <time>2012-05-16T18:10:56Z</time>
      </trkpt>
      <trkpt lat="1.079020" lon="37.571380">
        <ele>798.068</ele>
        <time>2012-05-16T18:11:16Z</time>
      </trkpt>
      <trkpt lat="1.078260" lon="37.571280">
        <ele>789.033</ele>
        <time>2012-05-16T18:11:36Z</time>
      </trkpt>
      <trkpt lat="1.077760" lon="37.571160">
        <ele>782.011</ele>
        <time>2012-05-16T18:11:56Z</time>
      </trkpt>
      <trkpt lat="1.076940" lon="37.570850">
        <ele>777.094</ele>
        <time>2012-05-16T18:12:16Z</time>
      </trkpt>
      <trkpt lat="1.071700" lon="37.568300">
        <ele>783.081</ele>
        <time>2012-05-16T18:12:36Z</time>
      </trkpt>
      <trkpt lat="1.070110" lon="37.567460">
        <ele>791.061</ele>
        <time>2012-05-16T18:12:56Z</time>
      </trkpt>
      <trkpt lat="1.065150" lon="37.564500">
        <ele>791.017</ele>
        <time>2012-05-16T18:13:16Z</time>
      </trkpt>
      <trkpt lat="1.063990" lon="37.564050">
        <ele>797.007</ele>
        <time>2012-05-16T18:13:36Z</time>
      </trkpt>
      <trkpt lat="1.058940" lon="37.562710">
        <ele>806.080</ele>
        <time>2012-05-16T18:13:56Z</time>
      </trkpt>
      <trkpt lat="1.058350" lon="37.562610">
        <ele>811.016</ele>
        <time>2012-05-16T18:14:16Z</time>
      </trkpt>
      <trkpt lat="1.050000" lon="37.561540">
        <ele>805.052</ele>
        <time>2012-05-16T18:14:36Z</time>
      </trkpt>
      <trkpt lat="1.048690" lon="37.561480">
        <ele>808.022</ele>
        <time>2012-05-16T18:14:56Z</time>
      </trkpt>
      <trkpt lat="1.040170" lon="37.562040">
        <ele>819.047</ele>
        <time>2012-05-16T18:15:16Z</time>
      </trkpt>
      <trkpt lat="1.034940" lon="37.561940">
        <ele>811.045</ele>
        <time>2012-05-16T18:15:36Z</time>
      </trkpt>
      <trkpt lat="1.033860" lon="37.561990">
        <ele>827.098</ele>
        <time>2012-05-16T18:15:56Z</time>
      </trkpt>
      <trkpt lat="1.032940" lon="37.562180">
        <ele>828.043</ele>
        <time>2012-05-16T18:16:16Z</time>
      </trkpt>
      <trkpt lat="1.027010" lon="37.564170">
        <ele>832.064</ele>
        <time>2012-05-16T18:16:36Z</time>
      </trkpt>
      <trkpt lat="1.025960" lon="37.564330">
        <ele>832.010</ele>
        <time>2012-05-16T18:16:56Z</time>
      </trkpt>
      <trkpt lat="1.024860" lon="37.564270">
        <ele>827.007</ele>
        <time>2012-05-16T18:17:16Z</time>
      </trkpt>
      <trkpt lat="1.020600" lon="37.563120">
        <ele>833.046</ele>
        <time>2012-05-16T18:17:36Z</time>
      </trkpt>
      <trkpt lat="1.019230" lon="37.562990">
        <ele>842.012</ele>
        <time>2012-05-16T18:17:56Z</time>
      </trkpt>
      <trkpt lat="1.017970" lon="37.563090">
        <ele>842.058</ele>
        <time>2012-05-16T18:18:16Z</time>
      </trkpt>
      <trkpt lat="1.017190" lon="37.563290">
        <ele>842.068</ele>
        <time>2012-05-16T18:18:36Z</time>
      </trkpt>
      <trkpt lat="1.016370" lon="37.563590">
        <ele>836.063</ele>
        <time>2012-05-16T18:18:56Z</time>
      </trkpt>
      <trkpt lat="1.011070" lon="37.565800">
        <ele>843.041</ele>
        <time>2012-05-16T18:19:16Z</time>
      </trkpt>
      <trkpt lat="1.009520" lon="37.566300">
        <ele>847.084</ele>
        <time>2012-05-16T18:19:36Z</time>
      </trkpt>
      <trkpt lat="1.007630" lon="37.566630">
        <ele>843.065</ele>
        <time>2012-05-16T18:19:56Z</time>
      </trkpt>
      <trkpt lat="1.000050" lon="37.567640">
        <ele>860.068</ele>
        <time>2012-05-16T18:20:16Z</time>
      </trkpt>
      <trkpt lat="0.998690" lon="37.567910">
        <ele>857.014</ele>
        <time>2012-05-16T18:20:36Z</time>
      </trkpt>
      <trkpt lat="0.997920" lon="37.568180">
        <ele>853.007</ele>
        <time>2012-05-16T18:20:56Z</time>
      </trkpt>
      <trkpt lat="0.996580" lon="37.568930">
        <ele>852.038</ele>
        <time>2012-05-16T18:21:16Z</time>
      </trkpt>
      <trkpt lat="0.991450" lon="37.572660">
        <ele>856.044</ele>
        <time>2012-05-16T18:21:36Z</time>
      </trkpt>
      <trkpt lat="0.988240" lon="37.574520">
        <ele>860.040</ele>
        <time>2012-05-16T18:21:56Z</time>
      </trkpt>
      <trkpt lat="0.984060" lon="37.576840">
        <ele>868.030</ele>
        <time>2012-05-16T18:22:16Z</time>
      </trkpt>
      <trkpt lat="0.983500" lon="37.577100">
        <ele>869.045</ele>
        <time>2012-05-16T18:22:36Z</time>
      </trkpt>
      <trkpt lat="0.976780" lon="37.579550">
        <ele>869.033</ele>
        <time>2012-05-16T18:22:56Z</time>
      </trkpt>
      <trkpt lat="0.975470" lon="37.579820">
        <ele>863.026</ele>
        <time>2012-05-16T18:23:16Z</time>
      </trkpt>
      <trkpt lat="0.974000" lon="37.579840">
        <ele>867.043</ele>
        <time>2012-05-16T18:23:36Z</time>
      </trkpt>
      <trkpt lat="0.969910" lon="37.579590">
        <ele>879.064</ele>
        <time>2012-05-16T18:23:56Z</time>
      </trkpt>
      <trkpt lat="0.968470" lon="37.579410">
        <ele>872.010</ele>
        <time>2012-05-16T18:24:16Z</time>
      </trkpt>
      <trkpt lat="0.960670" lon="37.577430">
        <ele>876.007</ele>
        <time>2012-05-16T18:24:36Z</time>
      </trkpt>
      <trkpt lat="0.955490" lon="37.576470">
        <ele>888.046</ele>
        <time>2012-05-16T18:24:56Z</time>
      </trkpt>
      <trkpt lat="0.951980" lon="37.576030">
        <ele>886.012</ele>
        <time>2012-05-16T18:25:16Z</time>
      </trkpt>
      <trkpt lat="0.943370" lon="37.575110">
        <ele>887.088</ele>
        <time>2012-05-16T18:25:36Z</time>
      </trkpt>
      <trkpt lat="0.942050" lon="37.574900">
        <ele>889.098</ele>
        <time>2012-05-16T18:25:56Z</time>
      </trkpt>
      <trkpt lat="0.940580" lon="37.574470">
        <ele>883.063</ele>
        <time>2012-05-16T18:26:16Z</time>
      </trkpt>
      <trkpt lat="0.935720" lon="37.572750">
        <ele>890.061</ele>
        <time>2012-05-16T18:26:36Z</time>
      </trkpt>
      <trkpt lat="0.934400" lon="37.572320">
        <ele>890.024</ele>
        <time>2012-05-16T18:26:56Z</time>
      </trkpt>
      <trkpt lat="0.933500" lon="37.572090">
        <ele>891.082</ele>
        <time>2012-05-16T18:27:16Z</time>
      </trkpt>
      <trkpt lat="0.923010" lon="37.570110">
        <ele>891.043</ele>
        <time>2012-05-16T18:27:36Z</time>
      </trkpt>
      <trkpt lat="0.921930" lon="37.569720">
        <ele>886.017</ele>
        <time>2012-05-16T18:27:56Z</time>
      </trkpt>
      <trkpt lat="0.920900" lon="37.569180">
        <ele>886.007</ele>
        <time>2012-05-16T18:28:16Z</time>
      </trkpt>
      <trkpt lat="0.913280" lon="37.564500">
        <ele>890.020</ele>
        <time>2012-05-16T18:28:36Z</time>
      </trkpt>
      <trkpt lat="0.911370" lon="37.563640">
        <ele>898.076</ele>
        <time>2012-05-16T18:28:56Z</time>
      </trkpt>
      <trkpt lat="0.908000" lon="37.562270">
        <ele>900.062</ele>
        <time>2012-05-16T18:29:16Z</time>
      </trkpt>
      <trkpt lat="0.907050" lon="37.561950">
        <ele>905.092</ele>
        <time>2012-05-16T18:29:36Z</time>
      </trkpt>
      <trkpt lat="0.906300" lon="37.561760">
        <ele>903.047</ele>
        <time>2012-05-16T18:29:56Z</time>
      </trkpt>
      <trkpt lat="0.897940" lon="37.560070">
        <ele>918.095</ele>
        <time>2012-05-16T18:30:16Z</time>
      </trkpt>
      <trkpt lat="0.897260" lon="37.559990">
        <ele>920.038</ele>
        <time>2012-05-16T18:30:36Z</time>
      </trkpt>
      <trkpt lat="0.895750" lon="37.560020">
        <ele>923.075</ele>
        <time>2012-05-16T18:30:56Z</time>
      </trkpt>
      <trkpt lat="0.886080" lon="37.560960">
        <ele>968.028</ele>
        <time>2012-05-16T18:31:16Z</time>
      </trkpt>
      <trkpt lat="0.884180" lon="37.561230">
        <ele>976.020</ele>
        <time>2012-05-16T18:31:36Z</time>
      </trkpt>
      <trkpt lat="0.869230" lon="37.565410">
        <ele>994.007</ele>
        <time>2012-05-16T18:31:56Z</time>
      </trkpt>
      <trkpt lat="0.867440" lon="37.565790">
        <ele>1001.039</ele>
        <time>2012-05-16T18:32:16Z</time>
      </trkpt>
      <trkpt lat="0.864360" lon="37.566340">
        <ele>995.025</ele>
        <time>2012-05-16T18:32:36Z</time>
      </trkpt>
      <trkpt lat="0.863410" lon="37.566570">
        <ele>992.081</ele>
        <time>2012-05-16T18:32:56Z</time>
      </trkpt>
      <trkpt lat="0.854960" lon="37.569240">
        <ele>1003.091</ele>
        <time>2012-05-16T18:33:16Z</time>
      </trkpt>
      <trkpt lat="0.854320" lon="37.569390">
        <ele>1002.016</ele>
        <time>2012-05-16T18:33:36Z</time>
      </trkpt>
      <trkpt lat="0.853220" lon="37.569550">
        <ele>982.014</ele>
        <time>2012-05-16T18:33:56Z</time>
      </trkpt>
      <trkpt lat="0.852550" lon="37.569580">
        <ele>990.027</ele>
        <time>2012-05-16T18:34:16Z</time>
      </trkpt>
      <trkpt lat="0.848310" lon="37.569670">
        <ele>993.073</ele>
        <time>2012-05-16T18:34:36Z</time>
      </trkpt>
      <trkpt lat="0.847250" lon="37.569580">
        <ele>992.085</ele>
        <time>2012-05-16T18:34:56Z</time>
      </trkpt>
      <trkpt lat="0.845920" lon="37.569240">
        <ele>988.013</ele>
        <time>2012-05-16T18:35:16Z</time>
      </trkpt>
      <trkpt lat="0.843260" lon="37.568390">
        <ele>995.007</ele>
        <time>2012-05-16T18:35:36Z</time>
      </trkpt>
      <trkpt lat="0.841710" lon="37.567790">
        <ele>989.079</ele>
        <time>2012-05-16T18:35:56Z</time>
      </trkpt>
      <trkpt lat="0.840370" lon="37.566980">
        <ele>993.085</ele>
        <time>2012-05-16T18:36:16Z</time>
      </trkpt>
      <trkpt lat="0.834680" lon="37.562900">
        <ele>993.091</ele>
        <time>2012-05-16T18:36:36Z</time>
      </trkpt>
      <trkpt lat="0.833800" lon="37.562420">
        <ele>985.071</ele>
        <time>2012-05-16T18:36:56Z</time>
      </trkpt>
      <trkpt lat="0.833370" lon="37.562240">
        <ele>984.076</ele>
        <time>2012-05-16T18:37:16Z</time>
      </trkpt>
      <trkpt lat="0.829940" lon="37.561140">
        <ele>993.014</ele>
        <time>2012-05-16T18:37:36Z</time>
      </trkpt>
      <trkpt lat="0.827920" lon="37.560390">
        <ele>987.097</ele>
        <time>2012-05-16T18:37:56Z</time>
      </trkpt>
      <trkpt lat="0.824990" lon="37.559120">
        <ele>996.057</ele>
        <time>2012-05-16T18:38:16Z</time>
      </trkpt>
      <trkpt lat="0.821960" lon="37.557880">
        <ele>1011.000</ele>
        <time>2012-05-16T18:38:36Z</time>
      </trkpt>
      <trkpt lat="0.815170" lon="37.555330">
        <ele>1004.020</ele>
        <time>2012-05-16T18:38:56Z</time>
      </trkpt>
      <trkpt lat="0.813510" lon="37.554530">
        <ele>999.007</ele>
        <time>2012-05-16T18:39:16Z</time>
      </trkpt>
      <trkpt lat="0.808990" lon="37.552110">
        <ele>984.067</ele>
        <time>2012-05-16T18:39:36Z</time>
      </trkpt>
      <trkpt lat="0.808060" lon="37.551710">
        <ele>981.023</ele>
        <time>2012-05-16T18:39:56Z</time>
      </trkpt>
      <trkpt lat="0.801350" lon="37.549730">
        <ele>961.069</ele>
        <time>2012-05-16T18:40:16Z</time>
      </trkpt>
      <trkpt lat="0.800490" lon="37.549600">
        <ele>965.059</ele>
        <time>2012-05-16T18:40:36Z</time>
      </trkpt>
      <trkpt lat="0.799340" lon="37.549620">
        <ele>957.094</ele>
        <time>2012-05-16T18:40:56Z</time>
      </trkpt>
      <trkpt lat="0.798220" lon="37.549870">
        <ele>952.082</ele>
        <time>2012-05-16T18:41:16Z</time>
      </trkpt>
      <trkpt lat="0.782560" lon="37.554110">
        <ele>904.035</ele>
        <time>2012-05-16T18:41:36Z</time>
      </trkpt>
      <trkpt lat="0.781150" lon="37.554520">
        <ele>902.025</ele>
        <time>2012-05-16T18:41:56Z</time>
      </trkpt>
      <trkpt lat="0.778750" lon="37.555470">
        <ele>904.026</ele>
        <time>2012-05-16T18:42:16Z</time>
      </trkpt>
      <trkpt lat="0.777250" lon="37.555980">
        <ele>906.008</ele>
        <time>2012-05-16T18:42:36Z</time>
      </trkpt>
      <trkpt lat="0.775780" lon="37.556310">
        <ele>904.007</ele>
        <time>2012-05-16T18:42:56Z</time>
      </trkpt>
      <trkpt lat="0.773250" lon="37.556610">
        <ele>898.024</ele>
        <time>2012-05-16T18:43:16Z</time>
      </trkpt>
      <trkpt lat="0.772060" lon="37.556890">
        <ele>899.030</ele>
        <time>2012-05-16T18:43:36Z</time>
      </trkpt>
      <trkpt lat="0.770810" lon="37.557370">
        <ele>893.076</ele>
        <time>2012-05-16T18:43:56Z</time>
      </trkpt>
      <trkpt lat="0.769760" lon="37.557950">
        <ele>896.096</ele>
        <time>2012-05-16T18:44:16Z</time>
      </trkpt>
      <trkpt lat="0.769000" lon="37.558520">
        <ele>898.021</ele>
        <time>2012-05-16T18:44:36Z</time>
      </trkpt>
      <trkpt lat="0.767600" lon="37.559820">
        <ele>897.059</ele>
        <time>2012-05-16T18:44:56Z</time>
      </trkpt>
      <trkpt lat="0.762280" lon="37.564540">
        <ele>901.022</ele>
        <time>2012-05-16T18:45:16Z</time>
      </trkpt>
      <trkpt lat="0.751490" lon="37.573940">
        <ele>896.094</ele>
        <time>2012-05-16T18:45:36Z</time>
      </trkpt>
      <trkpt lat="0.735410" lon="37.588120">
        <ele>904.057</ele>
        <time>2012-05-16T18:45:56Z</time>
      </trkpt>
      <trkpt lat="0.717830" lon="37.603390">
        <ele>891.022</ele>
        <time>2012-05-16T18:46:16Z</time>
      </trkpt>
      <trkpt lat="0.696100" lon="37.622080">
        <ele>887.007</ele>
        <time>2012-05-16T18:46:36Z</time>
      </trkpt>
      <trkpt lat="0.695720" lon="37.622440">
        <ele>886.091</ele>
        <time>2012-05-16T18:46:56Z</time>
      </trkpt>
      <trkpt lat="0.695240" lon="37.623030">
        <ele>889.097</ele>
        <time>2012-05-16T18:47:16Z</time>
      </trkpt>
      <trkpt lat="0.691960" lon="37.627620">
        <ele>884.023</ele>
        <time>2012-05-16T18:47:36Z</time>
      </trkpt>
      <trkpt lat="0.691520" lon="37.628160">
        <ele>882.083</ele>
        <time>2012-05-16T18:47:56Z</time>
      </trkpt>
      <trkpt lat="0.691010" lon="37.628710">
        <ele>884.098</ele>
        <time>2012-05-16T18:48:16Z</time>
      </trkpt>
      <trkpt lat="0.689990" lon="37.629470">
        <ele>884.086</ele>
        <time>2012-05-16T18:48:36Z</time>
      </trkpt>
      <trkpt lat="0.677920" lon="37.637650">
        <ele>864.019</ele>
        <time>2012-05-16T18:48:56Z</time>
      </trkpt>
      <trkpt lat="0.672880" lon="37.640310">
        <ele>867.064</ele>
        <time>2012-05-16T18:49:16Z</time>
      </trkpt>
      <trkpt lat="0.661410" lon="37.647280">
        <ele>868.006</ele>
        <time>2012-05-16T18:49:36Z</time>
      </trkpt>
      <trkpt lat="0.660110" lon="37.647940">
        <ele>870.016</ele>
        <time>2012-05-16T18:49:56Z</time>
      </trkpt>
      <trkpt lat="0.658690" lon="37.648370">
        <ele>878.007</ele>
        <time>2012-05-16T18:50:16Z</time>
      </trkpt>
      <trkpt lat="0.656810" lon="37.648620">
        <ele>883.048</ele>
        <time>2012-05-16T18:50:36Z</time>
      </trkpt>
      <trkpt lat="0.649680" lon="37.649180">
        <ele>866.044</ele>
        <time>2012-05-16T18:50:56Z</time>
      </trkpt>
      <trkpt lat="0.647240" lon="37.649460">
        <ele>862.090</ele>
        <time>2012-05-16T18:51:16Z</time>
      </trkpt>
      <trkpt lat="0.645820" lon="37.649960">
        <ele>862.090</ele>
        <time>2012-05-16T18:51:36Z</time>
      </trkpt>
      <trkpt lat="0.644910" lon="37.650340">
        <ele>861.055</ele>
        <time>2012-05-16T18:51:56Z</time>
      </trkpt>
      <trkpt lat="0.643690" lon="37.651190">
        <ele>855.033</ele>
        <time>2012-05-16T18:52:16Z</time>
      </trkpt>
      <trkpt lat="0.643140" lon="37.651720">
        <ele>851.056</ele>
        <time>2012-05-16T18:52:36Z</time>
      </trkpt>
      <trkpt lat="0.642570" lon="37.652400">
        <ele>849.061</ele>
        <time>2012-05-16T18:52:56Z</time>
      </trkpt>
      <trkpt lat="0.642240" lon="37.652880">
        <ele>848.021</ele>
        <time>2012-05-16T18:53:16Z</time>
      </trkpt>
      <trkpt lat="0.641880" lon="37.653620">
        <ele>848.013</ele>
        <time>2012-05-16T18:53:36Z</time>
      </trkpt>
      <trkpt lat="0.641550" lon="37.654560">
        <ele>847.007</ele>
        <time>2012-05-16T18:53:56Z</time>
      </trkpt>
      <trkpt lat="0.640950" lon="37.658400">
        <ele>837.028</ele>
        <time>2012-05-16T18:54:16Z</time>
      </trkpt>
      <trkpt lat="0.640360" lon="37.662920">
        <ele>833.084</ele>
        <time>2012-05-16T18:54:36Z</time>
      </trkpt>
      <trkpt lat="0.640070" lon="37.664350">
        <ele>830.040</ele>
        <time>2012-05-16T18:54:56Z</time>
      </trkpt>
      <trkpt lat="0.639930" lon="37.664720">
        <ele>830.050</ele>
        <time>2012-05-16T18:55:16Z</time>
      </trkpt>
      <trkpt lat="0.639690" lon="37.665260">
        <ele>830.095</ele>
        <time>2012-05-16T18:55:36Z</time>
      </trkpt>
      <trkpt lat="0.637800" lon="37.668850">
        <ele>825.043</ele>
        <time>2012-05-16T18:55:56Z</time>
      </trkpt>
      <trkpt lat="0.634490" lon="37.674700">
        <ele>825.086</ele>
        <time>2012-05-16T18:56:16Z</time>
      </trkpt>
      <trkpt lat="0.634010" lon="37.675240">
        <ele>825.039</ele>
        <time>2012-05-16T18:56:36Z</time>
      </trkpt>
      <trkpt lat="0.633490" lon="37.675590">
        <ele>824.001</ele>
        <time>2012-05-16T18:56:56Z</time>
      </trkpt>
      <trkpt lat="0.632640" lon="37.675840">
        <ele>822.021</ele>
        <time>2012-05-16T18:57:16Z</time>
      </trkpt>
      <trkpt lat="0.631880" lon="37.675820">
        <ele>825.007</ele>
        <time>2012-05-16T18:57:36Z</time>
      </trkpt>
      <trkpt lat="0.631450" lon="37.675710">
        <ele>824.065</ele>
        <time>2012-05-16T18:57:56Z</time>
      </trkpt>
      <trkpt lat="0.623160" lon="37.672450">
        <ele>825.031</ele>
        <time>2012-05-16T18:58:16Z</time>
      </trkpt>
      <trkpt lat="0.621830" lon="37.672000">
        <ele>828.027</ele>
        <time>2012-05-16T18:58:36Z</time>
      </trkpt>
      <trkpt lat="0.621040" lon="37.671810">
        <ele>829.037</ele>
        <time>2012-05-16T18:58:56Z</time>
      </trkpt>
      <trkpt lat="0.620270" lon="37.671760">
        <ele>830.062</ele>
        <time>2012-05-16T18:59:16Z</time>
      </trkpt>
      <trkpt lat="0.597560" lon="37.672130">
        <ele>882.070</ele>
        <time>2012-05-16T18:59:36Z</time>
      </trkpt>
      <trkpt lat="0.596280" lon="37.672240">
        <ele>888.053</ele>
        <time>2012-05-16T18:59:56Z</time>
      </trkpt>
      <trkpt lat="0.595200" lon="37.672480">
        <ele>888.082</ele>
        <time>2012-05-16T19:00:16Z</time>
      </trkpt>
      <trkpt lat="0.591920" lon="37.673340">
        <ele>888.043</ele>
        <time>2012-05-16T19:00:36Z</time>
      </trkpt>
      <trkpt lat="0.574220" lon="37.677560">
        <ele>910.017</ele>
        <time>2012-05-16T19:00:56Z</time>
      </trkpt>
      <trkpt lat="0.570570" lon="37.678490">
        <ele>900.007</ele>
        <time>2012-05-16T19:01:16Z</time>
      </trkpt>
      <trkpt lat="0.569110" lon="37.678720">
        <ele>911.010</ele>
        <time>2012-05-16T19:01:36Z</time>
      </trkpt>
      <trkpt lat="0.568570" lon="37.678720">
        <ele>915.056</ele>
        <time>2012-05-16T19:01:56Z</time>
      </trkpt>
      <trkpt lat="0.565880" lon="37.678600">
        <ele>908.082</ele>
        <time>2012-05-16T19:02:16Z</time>
      </trkpt>
      <trkpt lat="0.565070" lon="37.678520">
        <ele>907.062</ele>
        <time>2012-05-16T19:02:36Z</time>
      </trkpt>
      <trkpt lat="0.564020" lon="37.678330">
        <ele>892.057</ele>
        <time>2012-05-16T19:02:56Z</time>
      </trkpt>
      <trkpt lat="0.562990" lon="37.677990">
        <ele>890.075</ele>
        <time>2012-05-16T19:03:16Z</time>
      </trkpt>
      <trkpt lat="0.561370" lon="37.677170">
        <ele>899.048</ele>
        <time>2012-05-16T19:03:36Z</time>
      </trkpt>
      <trkpt lat="0.552530" lon="37.671900">
        <ele>907.059</ele>
        <time>2012-05-16T19:03:56Z</time>
      </trkpt>
      <trkpt lat="0.540170" lon="37.664700">
        <ele>916.003</ele>
        <time>2012-05-16T19:04:16Z</time>
      </trkpt>
      <trkpt lat="0.527920" lon="37.657380">
        <ele>920.023</ele>
        <time>2012-05-16T19:04:36Z</time>
      </trkpt>
      <trkpt lat="0.524360" lon="37.655180">
        <ele>921.007</ele>
        <time>2012-05-16T19:04:56Z</time>
      </trkpt>
      <trkpt lat="0.523030" lon="37.654480">
        <ele>927.037</ele>
        <time>2012-05-16T19:05:16Z</time>
      </trkpt>
      <trkpt lat="0.500040" lon="37.640710">
        <ele>935.013</ele>
        <time>2012-05-16T19:05:36Z</time>
      </trkpt>
      <trkpt lat="0.489400" lon="37.634780">
        <ele>945.049</ele>
        <time>2012-05-16T19:05:56Z</time>
      </trkpt>
      <trkpt lat="0.481380" lon="37.630740">
        <ele>950.099</ele>
        <time>2012-05-16T19:06:16Z</time>
      </trkpt>
      <trkpt lat="0.475730" lon="37.627730">
        <ele>954.094</ele>
        <time>2012-05-16T19:06:36Z</time>
      </trkpt>
      <trkpt lat="0.474800" lon="37.627050">
        <ele>953.012</ele>
        <time>2012-05-16T19:06:56Z</time>
      </trkpt>
      <trkpt lat="0.474150" lon="37.626420">
        <ele>953.015</ele>
        <time>2012-05-16T19:07:16Z</time>
      </trkpt>
      <trkpt lat="0.470180" lon="37.622150">
        <ele>954.015</ele>
        <time>2012-05-16T19:07:36Z</time>
      </trkpt>
      <trkpt lat="0.463000" lon="37.614870">
        <ele>959.065</ele>
        <time>2012-05-16T19:07:56Z</time>
      </trkpt>
      <trkpt lat="0.461750" lon="37.613670">
        <ele>960.011</ele>
        <time>2012-05-16T19:08:16Z</time>
      </trkpt>
      <trkpt lat="0.460730" lon="37.612750">
        <ele>955.007</ele>
        <time>2012-05-16T19:08:36Z</time>
      </trkpt>
      <trkpt lat="0.459950" lon="37.612280">
        <ele>956.053</ele>
        <time>2012-05-16T19:08:56Z</time>
      </trkpt>
      <trkpt lat="0.459240" lon="37.611960">
        <ele>960.029</ele>
        <time>2012-05-16T19:09:16Z</time>
      </trkpt>
      <trkpt lat="0.453270" lon="37.609720">
        <ele>966.015</ele>
        <time>2012-05-16T19:09:36Z</time>
      </trkpt>
      <trkpt lat="0.444580" lon="37.606800">
        <ele>981.085</ele>
        <time>2012-05-16T19:09:56Z</time>
      </trkpt>
      <trkpt lat="0.440360" lon="37.605250">
        <ele>956.030</ele>
        <time>2012-05-16T19:10:16Z</time>
      </trkpt>
      <trkpt lat="0.437840" lon="37.604410">
        <ele>968.018</ele>
        <time>2012-05-16T19:10:36Z</time>
      </trkpt>
      <trkpt lat="0.435350" lon="37.603470">
        <ele>979.051</ele>
        <time>2012-05-16T19:10:56Z</time>
      </trkpt>
      <trkpt lat="0.434020" lon="37.602460">
        <ele>986.098</ele>
        <time>2012-05-16T19:11:16Z</time>
      </trkpt>
      <trkpt lat="0.425930" lon="37.599880">
        <ele>1000.015</ele>
        <time>2012-05-16T19:11:36Z</time>
      </trkpt>
      <trkpt lat="0.419470" lon="37.597680">
        <ele>1004.026</ele>
        <time>2012-05-16T19:11:56Z</time>
      </trkpt>
      <trkpt lat="0.418220" lon="37.597300">
        <ele>1003.007</ele>
        <time>2012-05-16T19:12:16Z</time>
      </trkpt>
      <trkpt lat="0.417920" lon="37.597260">
        <ele>1003.091</ele>
        <time>2012-05-16T19:12:36Z</time>
      </trkpt>
      <trkpt lat="0.417620" lon="37.597300">
        <ele>1004.097</ele>
        <time>2012-05-16T19:12:56Z</time>
      </trkpt>
      <trkpt lat="0.417060" lon="37.597490">
        <ele>1004.053</ele>
        <time>2012-05-16T19:13:16Z</time>
      </trkpt>
      <trkpt lat="0.416350" lon="37.597490">
        <ele>1005.063</ele>
        <time>2012-05-16T19:13:36Z</time>
      </trkpt>
      <trkpt lat="0.408640" lon="37.596250">
        <ele>1013.058</ele>
        <time>2012-05-16T19:13:56Z</time>
      </trkpt>
      <trkpt lat="0.405890" lon="37.595700">
        <ele>1016.076</ele>
        <time>2012-05-16T19:14:16Z</time>
      </trkpt>
      <trkpt lat="0.401680" lon="37.594730">
        <ele>1019.099</ele>
        <time>2012-05-16T19:14:36Z</time>
      </trkpt>
      <trkpt lat="0.394690" lon="37.593220">
        <ele>1028.088</ele>
        <time>2012-05-16T19:14:56Z</time>
      </trkpt>
      <trkpt lat="0.373680" lon="37.588880">
        <ele>1061.024</ele>
        <time>2012-05-16T19:15:16Z</time>
      </trkpt>
      <trkpt lat="0.370530" lon="37.588240">
        <ele>1067.026</ele>
        <time>2012-05-16T19:15:36Z</time>
      </trkpt>
      <trkpt lat="0.365950" lon="37.587530">
        <ele>1080.007</ele>
        <time>2012-05-16T19:15:56Z</time>
      </trkpt>
      <trkpt lat="0.365040" lon="37.587210">
        <ele>1085.030</ele>
        <time>2012-05-16T19:16:16Z</time>
      </trkpt>
      <trkpt lat="0.364220" lon="37.586750">
        <ele>1086.056</ele>
        <time>2012-05-16T19:16:36Z</time>
      </trkpt>
      <trkpt lat="0.361820" lon="37.584970">
        <ele>1083.012</ele>
        <time>2012-05-16T19:16:56Z</time>
      </trkpt>
      <trkpt lat="0.360920" lon="37.584430">
        <ele>1080.082</ele>
        <time>2012-05-16T19:17:16Z</time>
      </trkpt>
      <trkpt lat="0.358630" lon="37.583610">
        <ele>1089.077</ele>
        <time>2012-05-16T19:17:36Z</time>
      </trkpt>
      <trkpt lat="0.357640" lon="37.583380">
        <ele>1088.035</ele>
        <time>2012-05-16T19:17:56Z</time>
      </trkpt>
      <trkpt lat="0.357110" lon="37.583330">
        <ele>1090.068</ele>
        <time>2012-05-16T19:18:16Z</time>
      </trkpt>
      <trkpt lat="0.352750" lon="37.583280">
        <ele>1095.048</ele>
        <time>2012-05-16T19:18:36Z</time>
      </trkpt>
      <trkpt lat="0.352750" lon="37.583280">
        <ele>1095.061</ele>
        <time>2012-05-16T19:18:56Z</time>
      </trkpt>
      <trkpt lat="0.351810" lon="37.583150">
        <ele>1097.017</ele>
        <time>2012-05-16T19:19:16Z</time>
      </trkpt>
      <trkpt lat="0.351200" lon="37.582970">
        <ele>1099.007</ele>
        <time>2012-05-16T19:19:36Z</time>
      </trkpt>
      <trkpt lat="0.350180" lon="37.582490">
        <ele>1100.066</ele>
        <time>2012-05-16T19:19:56Z</time>
      </trkpt>
      <trkpt lat="0.350180" lon="37.582490">
        <ele>1100.062</ele>
        <time>2012-05-16T19:20:16Z</time>
      </trkpt>
      <trkpt lat="0.349830" lon="37.583160">
        <ele>1101.058</ele>
        <time>2012-05-16T19:20:36Z</time>
      </trkpt>
      <trkpt lat="0.349830" lon="37.583160">
        <ele>1101.098</ele>
        <time>2012-05-16T19:20:56Z</time>
      </trkpt>
      <trkpt lat="0.350490" lon="37.583480">
        <ele>1101.053</ele>
        <time>2012-05-16T19:21:16Z</time>
      </trkpt>
    </trkseg>
  </trk>
</gpx>
